<?xml version="1.0" encoding="UTF-8"?>
<gpx version="1.0" creator="Trackator" xmlns:xsi="http://www.w3.org/2001/XMLSchema-instance" xmlns="http://www.topografix.com/GPX/1/0" xmlns:topografix="http://www.topografix.com/GPX/Private/TopoGrafix/0/1" xsi:schemaLocation="http://www.topografix.com/GPX/1/0 http://www.topografix.com/GPX/1/0/gpx.xsd http://www.topografix.com/GPX/Private/TopoGrafix/0/1 http://www.topografix.com/GPX/Private/TopoGrafix/0/1/topografix.xsd">
<metadata>
<link href="http://www.trackator.com">
<text>Trackator</text>
</link>
</metadata>
<time>2015-05-12T:53:13Z</time>
<trk>
<name>Track: </name>
<desc>Paragliding</desc>
<trkseg>
<trkpt lat="37.34357911" lon="-4.3550762">
<ele>875</ele>
<time>2015-05-12T:53:13Z</time>
</trkpt>
<trkpt lat="37.34357928" lon="-4.35507594">
<ele>875</ele>
<time>2015-05-12T17:53:15Z</time>
</trkpt>
<trkpt lat="37.3435795" lon="-4.35507592">
<ele>875</ele>
<time>2015-05-12T17:53:17Z</time>
</trkpt>
<trkpt lat="37.34358291" lon="-4.35507475">
<ele>874</ele>
<time>2015-05-12T17:53:19Z</time>
</trkpt>
<trkpt lat="37.34358594" lon="-4.355074">
<ele>873</ele>
<time>2015-05-12T17:53:21Z</time>
</trkpt>
<trkpt lat="37.34359028" lon="-4.35507249">
<ele>872</ele>
<time>2015-05-12T17:53:23Z</time>
</trkpt>
<trkpt lat="37.34359059" lon="-4.35507219">
<ele>872</ele>
<time>2015-05-12T17:53:25Z</time>
</trkpt>
<trkpt lat="37.34359098" lon="-4.35507204">
<ele>872</ele>
<time>2015-05-12T17:53:27Z</time>
</trkpt>
<trkpt lat="37.3435912" lon="-4.35507194">
<ele>872</ele>
<time>2015-05-12T17:53:29Z</time>
</trkpt>
<trkpt lat="37.34359183" lon="-4.35507155">
<ele>872</ele>
<time>2015-05-12T17:53:31Z</time>
</trkpt>
<trkpt lat="37.34359203" lon="-4.35507084">
<ele>871</ele>
<time>2015-05-12T17:53:33Z</time>
</trkpt>
<trkpt lat="37.34359255" lon="-4.3550702">
<ele>871</ele>
<time>2015-05-12T17:53:35Z</time>
</trkpt>
<trkpt lat="37.34359308" lon="-4.35507003">
<ele>871</ele>
<time>2015-05-12T17:53:37Z</time>
</trkpt>
<trkpt lat="37.34359346" lon="-4.35506996">
<ele>871</ele>
<time>2015-05-12T17:53:39Z</time>
</trkpt>
<trkpt lat="37.34359371" lon="-4.35507001">
<ele>871</ele>
<time>2015-05-12T17:53:41Z</time>
</trkpt>
<trkpt lat="37.34359361" lon="-4.35506981">
<ele>871</ele>
<time>2015-05-12T17:53:43Z</time>
</trkpt>
<trkpt lat="37.34359393" lon="-4.3550698">
<ele>871</ele>
<time>2015-05-12T17:53:45Z</time>
</trkpt>
<trkpt lat="37.34359424" lon="-4.35506986">
<ele>871</ele>
<time>2015-05-12T17:53:47Z</time>
</trkpt>
<trkpt lat="37.34359447" lon="-4.35506963">
<ele>871</ele>
<time>2015-05-12T17:53:49Z</time>
</trkpt>
<trkpt lat="37.34359473" lon="-4.35506952">
<ele>871</ele>
<time>2015-05-12T17:53:51Z</time>
</trkpt>
<trkpt lat="37.34359492" lon="-4.35506931">
<ele>871</ele>
<time>2015-05-12T17:53:53Z</time>
</trkpt>
<trkpt lat="37.34359518" lon="-4.35506936">
<ele>870</ele>
<time>2015-05-12T17:53:55Z</time>
</trkpt>
<trkpt lat="37.34359561" lon="-4.35506928">
<ele>870</ele>
<time>2015-05-12T17:53:57Z</time>
</trkpt>
<trkpt lat="37.34359587" lon="-4.35506944">
<ele>870</ele>
<time>2015-05-12T17:53:59Z</time>
</trkpt>
<trkpt lat="37.34359625" lon="-4.35506956">
<ele>870</ele>
<time>2015-05-12T17:54:01Z</time>
</trkpt>
<trkpt lat="37.34359926" lon="-4.35507305">
<ele>870</ele>
<time>2015-05-12T17:54:03Z</time>
</trkpt>
<trkpt lat="37.34360035" lon="-4.35507415">
<ele>869</ele>
<time>2015-05-12T17:54:05Z</time>
</trkpt>
<trkpt lat="37.3436021" lon="-4.35507652">
<ele>869</ele>
<time>2015-05-12T17:54:07Z</time>
</trkpt>
<trkpt lat="37.34360279" lon="-4.35507729">
<ele>869</ele>
<time>2015-05-12T17:54:09Z</time>
</trkpt>
<trkpt lat="37.34360553" lon="-4.35508028">
<ele>868</ele>
<time>2015-05-12T17:54:11Z</time>
</trkpt>
<trkpt lat="37.34360652" lon="-4.35508118">
<ele>868</ele>
<time>2015-05-12T17:54:13Z</time>
</trkpt>
<trkpt lat="37.34360667" lon="-4.35508131">
<ele>868</ele>
<time>2015-05-12T17:54:15Z</time>
</trkpt>
<trkpt lat="37.34360706" lon="-4.35508124">
<ele>868</ele>
<time>2015-05-12T17:54:17Z</time>
</trkpt>
<trkpt lat="37.34360625" lon="-4.35507302">
<ele>867</ele>
<time>2015-05-12T17:54:19Z</time>
</trkpt>
<trkpt lat="37.34360875" lon="-4.35507148">
<ele>867</ele>
<time>2015-05-12T17:54:21Z</time>
</trkpt>
<trkpt lat="37.3436147" lon="-4.35506522">
<ele>867</ele>
<time>2015-05-12T17:54:23Z</time>
</trkpt>
<trkpt lat="37.34361824" lon="-4.35506281">
<ele>867</ele>
<time>2015-05-12T17:54:25Z</time>
</trkpt>
<trkpt lat="37.3436242" lon="-4.35505914">
<ele>866</ele>
<time>2015-05-12T17:54:27Z</time>
</trkpt>
<trkpt lat="37.34362496" lon="-4.3550572">
<ele>866</ele>
<time>2015-05-12T17:54:29Z</time>
</trkpt>
<trkpt lat="37.34362807" lon="-4.35506247">
<ele>866</ele>
<time>2015-05-12T17:54:31Z</time>
</trkpt>
<trkpt lat="37.34362868" lon="-4.35506494">
<ele>865</ele>
<time>2015-05-12T17:54:33Z</time>
</trkpt>
<trkpt lat="37.34363054" lon="-4.35506803">
<ele>865</ele>
<time>2015-05-12T17:54:35Z</time>
</trkpt>
<trkpt lat="37.34363034" lon="-4.35506807">
<ele>865</ele>
<time>2015-05-12T17:54:37Z</time>
</trkpt>
<trkpt lat="37.34363035" lon="-4.35506791">
<ele>865</ele>
<time>2015-05-12T17:54:39Z</time>
</trkpt>
<trkpt lat="37.34363039" lon="-4.3550679">
<ele>865</ele>
<time>2015-05-12T17:54:41Z</time>
</trkpt>
<trkpt lat="37.34363041" lon="-4.35506791">
<ele>865</ele>
<time>2015-05-12T17:54:43Z</time>
</trkpt>
<trkpt lat="37.34363041" lon="-4.3550679">
<ele>865</ele>
<time>2015-05-12T17:54:45Z</time>
</trkpt>
<trkpt lat="37.34363042" lon="-4.35506789">
<ele>865</ele>
<time>2015-05-12T17:54:47Z</time>
</trkpt>
<trkpt lat="37.34363044" lon="-4.35506793">
<ele>865</ele>
<time>2015-05-12T17:54:49Z</time>
</trkpt>
<trkpt lat="37.34363045" lon="-4.3550679">
<ele>865</ele>
<time>2015-05-12T17:54:51Z</time>
</trkpt>
<trkpt lat="37.34363047" lon="-4.35506789">
<ele>865</ele>
<time>2015-05-12T17:54:53Z</time>
</trkpt>
<trkpt lat="37.34363051" lon="-4.35506791">
<ele>865</ele>
<time>2015-05-12T17:54:55Z</time>
</trkpt>
<trkpt lat="37.34363048" lon="-4.35506791">
<ele>865</ele>
<time>2015-05-12T17:54:57Z</time>
</trkpt>
<trkpt lat="37.34363053" lon="-4.35506787">
<ele>865</ele>
<time>2015-05-12T17:54:59Z</time>
</trkpt>
<trkpt lat="37.34363057" lon="-4.35506791">
<ele>865</ele>
<time>2015-05-12T17:55:01Z</time>
</trkpt>
<trkpt lat="37.34363058" lon="-4.35506785">
<ele>865</ele>
<time>2015-05-12T17:55:03Z</time>
</trkpt>
<trkpt lat="37.34363061" lon="-4.35506789">
<ele>865</ele>
<time>2015-05-12T17:55:05Z</time>
</trkpt>
<trkpt lat="37.34363065" lon="-4.35506788">
<ele>865</ele>
<time>2015-05-12T17:55:07Z</time>
</trkpt>
<trkpt lat="37.34363066" lon="-4.35506786">
<ele>865</ele>
<time>2015-05-12T17:55:09Z</time>
</trkpt>
<trkpt lat="37.34363027" lon="-4.35506813">
<ele>865</ele>
<time>2015-05-12T17:55:11Z</time>
</trkpt>
<trkpt lat="37.34363007" lon="-4.35506814">
<ele>865</ele>
<time>2015-05-12T17:55:13Z</time>
</trkpt>
<trkpt lat="37.34363224" lon="-4.35506698">
<ele>864</ele>
<time>2015-05-12T17:55:15Z</time>
</trkpt>
<trkpt lat="37.34363266" lon="-4.35506674">
<ele>864</ele>
<time>2015-05-12T17:55:17Z</time>
</trkpt>
<trkpt lat="37.34363208" lon="-4.35506728">
<ele>864</ele>
<time>2015-05-12T17:55:19Z</time>
</trkpt>
<trkpt lat="37.34363202" lon="-4.35506702">
<ele>864</ele>
<time>2015-05-12T17:55:21Z</time>
</trkpt>
<trkpt lat="37.34363641" lon="-4.35506517">
<ele>863</ele>
<time>2015-05-12T17:55:23Z</time>
</trkpt>
<trkpt lat="37.34363777" lon="-4.35506381">
<ele>864</ele>
<time>2015-05-12T17:55:25Z</time>
</trkpt>
<trkpt lat="37.34363849" lon="-4.35506239">
<ele>865</ele>
<time>2015-05-12T17:55:27Z</time>
</trkpt>
<trkpt lat="37.34364271" lon="-4.35506222">
<ele>864</ele>
<time>2015-05-12T17:55:29Z</time>
</trkpt>
<trkpt lat="37.34364385" lon="-4.35506401">
<ele>863</ele>
<time>2015-05-12T17:55:31Z</time>
</trkpt>
<trkpt lat="37.34364426" lon="-4.35506625">
<ele>863</ele>
<time>2015-05-12T17:55:33Z</time>
</trkpt>
<trkpt lat="37.34364447" lon="-4.35506747">
<ele>863</ele>
<time>2015-05-12T17:55:35Z</time>
</trkpt>
<trkpt lat="37.34364451" lon="-4.35506758">
<ele>863</ele>
<time>2015-05-12T17:55:37Z</time>
</trkpt>
<trkpt lat="37.3436447" lon="-4.3550674">
<ele>863</ele>
<time>2015-05-12T17:55:39Z</time>
</trkpt>
<trkpt lat="37.34364475" lon="-4.35506739">
<ele>863</ele>
<time>2015-05-12T17:55:41Z</time>
</trkpt>
<trkpt lat="37.34364479" lon="-4.35506737">
<ele>863</ele>
<time>2015-05-12T17:55:43Z</time>
</trkpt>
<trkpt lat="37.34364485" lon="-4.35506733">
<ele>863</ele>
<time>2015-05-12T17:55:45Z</time>
</trkpt>
<trkpt lat="37.34364487" lon="-4.35506735">
<ele>863</ele>
<time>2015-05-12T17:55:47Z</time>
</trkpt>
<trkpt lat="37.34364488" lon="-4.35506735">
<ele>863</ele>
<time>2015-05-12T17:55:49Z</time>
</trkpt>
<trkpt lat="37.34364489" lon="-4.35506734">
<ele>863</ele>
<time>2015-05-12T17:55:51Z</time>
</trkpt>
<trkpt lat="37.34364492" lon="-4.35506725">
<ele>863</ele>
<time>2015-05-12T17:55:53Z</time>
</trkpt>
<trkpt lat="37.34364498" lon="-4.35506725">
<ele>863</ele>
<time>2015-05-12T17:55:55Z</time>
</trkpt>
<trkpt lat="37.34364502" lon="-4.35506724">
<ele>863</ele>
<time>2015-05-12T17:55:57Z</time>
</trkpt>
<trkpt lat="37.34364507" lon="-4.35506719">
<ele>863</ele>
<time>2015-05-12T17:55:59Z</time>
</trkpt>
<trkpt lat="37.34364503" lon="-4.35506713">
<ele>863</ele>
<time>2015-05-12T17:56:01Z</time>
</trkpt>
<trkpt lat="37.34364506" lon="-4.35506712">
<ele>863</ele>
<time>2015-05-12T17:56:03Z</time>
</trkpt>
<trkpt lat="37.34364503" lon="-4.35506708">
<ele>863</ele>
<time>2015-05-12T17:56:05Z</time>
</trkpt>
<trkpt lat="37.34364498" lon="-4.35506701">
<ele>863</ele>
<time>2015-05-12T17:56:07Z</time>
</trkpt>
<trkpt lat="37.34364507" lon="-4.355067">
<ele>863</ele>
<time>2015-05-12T17:56:09Z</time>
</trkpt>
<trkpt lat="37.34364505" lon="-4.355067">
<ele>863</ele>
<time>2015-05-12T17:56:11Z</time>
</trkpt>
<trkpt lat="37.34364507" lon="-4.35506701">
<ele>863</ele>
<time>2015-05-12T17:56:13Z</time>
</trkpt>
<trkpt lat="37.34364509" lon="-4.35506703">
<ele>863</ele>
<time>2015-05-12T17:56:15Z</time>
</trkpt>
<trkpt lat="37.3436451" lon="-4.35506705">
<ele>863</ele>
<time>2015-05-12T17:56:17Z</time>
</trkpt>
<trkpt lat="37.3436451" lon="-4.35506705">
<ele>863</ele>
<time>2015-05-12T17:56:19Z</time>
</trkpt>
<trkpt lat="37.34364514" lon="-4.35506702">
<ele>863</ele>
<time>2015-05-12T17:56:21Z</time>
</trkpt>
<trkpt lat="37.34364513" lon="-4.35506706">
<ele>863</ele>
<time>2015-05-12T17:56:23Z</time>
</trkpt>
<trkpt lat="37.34364511" lon="-4.35506705">
<ele>863</ele>
<time>2015-05-12T17:56:25Z</time>
</trkpt>
<trkpt lat="37.34364977" lon="-4.35507007">
<ele>862</ele>
<time>2015-05-12T17:56:27Z</time>
</trkpt>
<trkpt lat="37.34365398" lon="-4.35507325">
<ele>862</ele>
<time>2015-05-12T17:56:29Z</time>
</trkpt>
<trkpt lat="37.3436574" lon="-4.35507312">
<ele>862</ele>
<time>2015-05-12T17:56:31Z</time>
</trkpt>
<trkpt lat="37.34366246" lon="-4.35507297">
<ele>861</ele>
<time>2015-05-12T17:56:33Z</time>
</trkpt>
<trkpt lat="37.34366397" lon="-4.35507213">
<ele>862</ele>
<time>2015-05-12T17:56:35Z</time>
</trkpt>
<trkpt lat="37.34366481" lon="-4.35507302">
<ele>862</ele>
<time>2015-05-12T17:56:37Z</time>
</trkpt>
<trkpt lat="37.34366667" lon="-4.35507254">
<ele>861</ele>
<time>2015-05-12T17:56:39Z</time>
</trkpt>
<trkpt lat="37.34366612" lon="-4.35507325">
<ele>861</ele>
<time>2015-05-12T17:56:41Z</time>
</trkpt>
<trkpt lat="37.3436636" lon="-4.35506681">
<ele>861</ele>
<time>2015-05-12T17:56:43Z</time>
</trkpt>
<trkpt lat="37.34366139" lon="-4.35506382">
<ele>860</ele>
<time>2015-05-12T17:56:45Z</time>
</trkpt>
<trkpt lat="37.34366906" lon="-4.35507088">
<ele>859</ele>
<time>2015-05-12T17:56:47Z</time>
</trkpt>
<trkpt lat="37.34366896" lon="-4.35506995">
<ele>858</ele>
<time>2015-05-12T17:56:49Z</time>
</trkpt>
<trkpt lat="37.34366874" lon="-4.35506957">
<ele>858</ele>
<time>2015-05-12T17:56:51Z</time>
</trkpt>
<trkpt lat="37.34366884" lon="-4.35506966">
<ele>858</ele>
<time>2015-05-12T17:56:53Z</time>
</trkpt>
<trkpt lat="37.34366876" lon="-4.35506964">
<ele>858</ele>
<time>2015-05-12T17:56:55Z</time>
</trkpt>
<trkpt lat="37.34366879" lon="-4.35506972">
<ele>858</ele>
<time>2015-05-12T17:56:57Z</time>
</trkpt>
<trkpt lat="37.34366885" lon="-4.35506974">
<ele>858</ele>
<time>2015-05-12T17:56:59Z</time>
</trkpt>
<trkpt lat="37.34366885" lon="-4.35506976">
<ele>858</ele>
<time>2015-05-12T17:57:01Z</time>
</trkpt>
<trkpt lat="37.3436691" lon="-4.35506981">
<ele>858</ele>
<time>2015-05-12T17:57:03Z</time>
</trkpt>
<trkpt lat="37.34366906" lon="-4.35506971">
<ele>858</ele>
<time>2015-05-12T17:57:05Z</time>
</trkpt>
<trkpt lat="37.34366907" lon="-4.35506968">
<ele>858</ele>
<time>2015-05-12T17:57:07Z</time>
</trkpt>
<trkpt lat="37.34366825" lon="-4.35507112">
<ele>858</ele>
<time>2015-05-12T17:57:09Z</time>
</trkpt>
<trkpt lat="37.34366745" lon="-4.35507036">
<ele>857</ele>
<time>2015-05-12T17:57:11Z</time>
</trkpt>
<trkpt lat="37.34366513" lon="-4.35507006">
<ele>856</ele>
<time>2015-05-12T17:57:13Z</time>
</trkpt>
<trkpt lat="37.3436637" lon="-4.35506953">
<ele>856</ele>
<time>2015-05-12T17:57:15Z</time>
</trkpt>
<trkpt lat="37.34366354" lon="-4.35507013">
<ele>857</ele>
<time>2015-05-12T17:57:17Z</time>
</trkpt>
<trkpt lat="37.34366494" lon="-4.35507228">
<ele>857</ele>
<time>2015-05-12T17:57:19Z</time>
</trkpt>
<trkpt lat="37.34366681" lon="-4.3550742">
<ele>856</ele>
<time>2015-05-12T17:57:21Z</time>
</trkpt>
<trkpt lat="37.34366719" lon="-4.35507472">
<ele>856</ele>
<time>2015-05-12T17:57:23Z</time>
</trkpt>
<trkpt lat="37.34366719" lon="-4.35507475">
<ele>856</ele>
<time>2015-05-12T17:57:25Z</time>
</trkpt>
<trkpt lat="37.34366525" lon="-4.35507499">
<ele>857</ele>
<time>2015-05-12T17:57:27Z</time>
</trkpt>
<trkpt lat="37.34366468" lon="-4.35507582">
<ele>858</ele>
<time>2015-05-12T17:57:29Z</time>
</trkpt>
<trkpt lat="37.34366308" lon="-4.35507356">
<ele>858</ele>
<time>2015-05-12T17:57:31Z</time>
</trkpt>
<trkpt lat="37.34366417" lon="-4.35507233">
<ele>858</ele>
<time>2015-05-12T17:57:33Z</time>
</trkpt>
<trkpt lat="37.3436638" lon="-4.35507032">
<ele>858</ele>
<time>2015-05-12T17:57:35Z</time>
</trkpt>
<trkpt lat="37.34366688" lon="-4.35507231">
<ele>858</ele>
<time>2015-05-12T17:57:37Z</time>
</trkpt>
<trkpt lat="37.34366761" lon="-4.35507069">
<ele>859</ele>
<time>2015-05-12T17:57:39Z</time>
</trkpt>
<trkpt lat="37.34366663" lon="-4.35507019">
<ele>859</ele>
<time>2015-05-12T17:57:41Z</time>
</trkpt>
<trkpt lat="37.34366523" lon="-4.35506986">
<ele>860</ele>
<time>2015-05-12T17:57:43Z</time>
</trkpt>
<trkpt lat="37.34366433" lon="-4.35506861">
<ele>859</ele>
<time>2015-05-12T17:57:45Z</time>
</trkpt>
<trkpt lat="37.34366686" lon="-4.35506311">
<ele>857</ele>
<time>2015-05-12T17:57:47Z</time>
</trkpt>
<trkpt lat="37.34367129" lon="-4.35505604">
<ele>857</ele>
<time>2015-05-12T17:57:49Z</time>
</trkpt>
<trkpt lat="37.34367374" lon="-4.35504758">
<ele>860</ele>
<time>2015-05-12T17:57:51Z</time>
</trkpt>
<trkpt lat="37.3436762" lon="-4.35504139">
<ele>861</ele>
<time>2015-05-12T17:57:53Z</time>
</trkpt>
<trkpt lat="37.3436814" lon="-4.35503547">
<ele>860</ele>
<time>2015-05-12T17:57:55Z</time>
</trkpt>
<trkpt lat="37.34368688" lon="-4.35503236">
<ele>862</ele>
<time>2015-05-12T17:57:57Z</time>
</trkpt>
<trkpt lat="37.34368232" lon="-4.35503219">
<ele>862</ele>
<time>2015-05-12T17:57:59Z</time>
</trkpt>
<trkpt lat="37.34368199" lon="-4.35503194">
<ele>862</ele>
<time>2015-05-12T17:58:01Z</time>
</trkpt>
<trkpt lat="37.34368286" lon="-4.35503181">
<ele>862</ele>
<time>2015-05-12T17:58:03Z</time>
</trkpt>
<trkpt lat="37.3436822" lon="-4.35502985">
<ele>862</ele>
<time>2015-05-12T17:58:05Z</time>
</trkpt>
<trkpt lat="37.34368293" lon="-4.35502846">
<ele>862</ele>
<time>2015-05-12T17:58:07Z</time>
</trkpt>
<trkpt lat="37.34368282" lon="-4.35502905">
<ele>862</ele>
<time>2015-05-12T17:58:09Z</time>
</trkpt>
<trkpt lat="37.3436824" lon="-4.35502866">
<ele>862</ele>
<time>2015-05-12T17:58:11Z</time>
</trkpt>
<trkpt lat="37.34368263" lon="-4.35502893">
<ele>862</ele>
<time>2015-05-12T17:58:13Z</time>
</trkpt>
<trkpt lat="37.34368263" lon="-4.35502891">
<ele>862</ele>
<time>2015-05-12T17:58:15Z</time>
</trkpt>
<trkpt lat="37.34368239" lon="-4.35502889">
<ele>862</ele>
<time>2015-05-12T17:58:17Z</time>
</trkpt>
<trkpt lat="37.34368225" lon="-4.35502884">
<ele>862</ele>
<time>2015-05-12T17:58:19Z</time>
</trkpt>
<trkpt lat="37.34368239" lon="-4.35502857">
<ele>862</ele>
<time>2015-05-12T17:58:21Z</time>
</trkpt>
<trkpt lat="37.3436828" lon="-4.35502836">
<ele>862</ele>
<time>2015-05-12T17:58:23Z</time>
</trkpt>
<trkpt lat="37.34368271" lon="-4.35503122">
<ele>861</ele>
<time>2015-05-12T17:58:25Z</time>
</trkpt>
<trkpt lat="37.34368701" lon="-4.35504415">
<ele>859</ele>
<time>2015-05-12T17:58:27Z</time>
</trkpt>
<trkpt lat="37.34368773" lon="-4.35504759">
<ele>857</ele>
<time>2015-05-12T17:58:29Z</time>
</trkpt>
<trkpt lat="37.34368628" lon="-4.35504937">
<ele>857</ele>
<time>2015-05-12T17:58:31Z</time>
</trkpt>
<trkpt lat="37.34368789" lon="-4.35504775">
<ele>857</ele>
<time>2015-05-12T17:58:33Z</time>
</trkpt>
<trkpt lat="37.3436911" lon="-4.3550436">
<ele>857</ele>
<time>2015-05-12T17:58:35Z</time>
</trkpt>
<trkpt lat="37.34369226" lon="-4.35503839">
<ele>857</ele>
<time>2015-05-12T17:58:37Z</time>
</trkpt>
<trkpt lat="37.34369142" lon="-4.35503341">
<ele>857</ele>
<time>2015-05-12T17:58:39Z</time>
</trkpt>
<trkpt lat="37.34369973" lon="-4.35504016">
<ele>856</ele>
<time>2015-05-12T17:58:41Z</time>
</trkpt>
<trkpt lat="37.3437032" lon="-4.35504202">
<ele>857</ele>
<time>2015-05-12T17:58:43Z</time>
</trkpt>
<trkpt lat="37.34370446" lon="-4.3550415">
<ele>857</ele>
<time>2015-05-12T17:58:45Z</time>
</trkpt>
<trkpt lat="37.34370462" lon="-4.35503988">
<ele>858</ele>
<time>2015-05-12T17:58:47Z</time>
</trkpt>
<trkpt lat="37.34370475" lon="-4.35503907">
<ele>858</ele>
<time>2015-05-12T17:58:49Z</time>
</trkpt>
<trkpt lat="37.34370483" lon="-4.35503892">
<ele>858</ele>
<time>2015-05-12T17:58:51Z</time>
</trkpt>
<trkpt lat="37.34370486" lon="-4.35503888">
<ele>858</ele>
<time>2015-05-12T17:58:53Z</time>
</trkpt>
<trkpt lat="37.34370486" lon="-4.35503887">
<ele>858</ele>
<time>2015-05-12T17:58:55Z</time>
</trkpt>
<trkpt lat="37.34370486" lon="-4.35503885">
<ele>858</ele>
<time>2015-05-12T17:58:57Z</time>
</trkpt>
<trkpt lat="37.34370485" lon="-4.35503884">
<ele>858</ele>
<time>2015-05-12T17:58:59Z</time>
</trkpt>
<trkpt lat="37.34370468" lon="-4.35503863">
<ele>858</ele>
<time>2015-05-12T17:59:01Z</time>
</trkpt>
<trkpt lat="37.3437096" lon="-4.35504685">
<ele>855</ele>
<time>2015-05-12T17:59:03Z</time>
</trkpt>
<trkpt lat="37.34371565" lon="-4.3550585">
<ele>854</ele>
<time>2015-05-12T17:59:05Z</time>
</trkpt>
<trkpt lat="37.34371257" lon="-4.35504709">
<ele>853</ele>
<time>2015-05-12T17:59:07Z</time>
</trkpt>
<trkpt lat="37.34371346" lon="-4.35504641">
<ele>852</ele>
<time>2015-05-12T17:59:09Z</time>
</trkpt>
<trkpt lat="37.34371542" lon="-4.35504424">
<ele>852</ele>
<time>2015-05-12T17:59:11Z</time>
</trkpt>
<trkpt lat="37.34371529" lon="-4.3550434">
<ele>853</ele>
<time>2015-05-12T17:59:13Z</time>
</trkpt>
<trkpt lat="37.34371175" lon="-4.35504041">
<ele>853</ele>
<time>2015-05-12T17:59:15Z</time>
</trkpt>
<trkpt lat="37.34370659" lon="-4.3550399">
<ele>855</ele>
<time>2015-05-12T17:59:17Z</time>
</trkpt>
<trkpt lat="37.34370275" lon="-4.35503181">
<ele>858</ele>
<time>2015-05-12T17:59:19Z</time>
</trkpt>
<trkpt lat="37.34370422" lon="-4.35502132">
<ele>858</ele>
<time>2015-05-12T17:59:21Z</time>
</trkpt>
<trkpt lat="37.34369821" lon="-4.35506483">
<ele>855</ele>
<time>2015-05-12T17:59:23Z</time>
</trkpt>
<trkpt lat="37.34364294" lon="-4.35527798">
<ele>856</ele>
<time>2015-05-12T17:59:25Z</time>
</trkpt>
<trkpt lat="37.34370589" lon="-4.35534224">
<ele>857</ele>
<time>2015-05-12T17:59:27Z</time>
</trkpt>
<trkpt lat="37.34378147" lon="-4.35540602">
<ele>858</ele>
<time>2015-05-12T17:59:29Z</time>
</trkpt>
<trkpt lat="37.34398129" lon="-4.35544594">
<ele>858</ele>
<time>2015-05-12T17:59:31Z</time>
</trkpt>
<trkpt lat="37.34422852" lon="-4.35534113">
<ele>862</ele>
<time>2015-05-12T17:59:33Z</time>
</trkpt>
<trkpt lat="37.34440797" lon="-4.35517189">
<ele>864</ele>
<time>2015-05-12T17:59:35Z</time>
</trkpt>
<trkpt lat="37.34458664" lon="-4.35496184">
<ele>863</ele>
<time>2015-05-12T17:59:37Z</time>
</trkpt>
<trkpt lat="37.34480117" lon="-4.35472301">
<ele>864</ele>
<time>2015-05-12T17:59:39Z</time>
</trkpt>
<trkpt lat="37.34500541" lon="-4.35447914">
<ele>868</ele>
<time>2015-05-12T17:59:41Z</time>
</trkpt>
<trkpt lat="37.3451807" lon="-4.3543073">
<ele>873</ele>
<time>2015-05-12T17:59:43Z</time>
</trkpt>
<trkpt lat="37.34534669" lon="-4.35423625">
<ele>875</ele>
<time>2015-05-12T17:59:45Z</time>
</trkpt>
<trkpt lat="37.34550605" lon="-4.35429622">
<ele>873</ele>
<time>2015-05-12T17:59:47Z</time>
</trkpt>
<trkpt lat="37.34551664" lon="-4.35441573">
<ele>873</ele>
<time>2015-05-12T17:59:49Z</time>
</trkpt>
<trkpt lat="37.34543797" lon="-4.35442657">
<ele>879</ele>
<time>2015-05-12T17:59:51Z</time>
</trkpt>
<trkpt lat="37.34538319" lon="-4.35439212">
<ele>881</ele>
<time>2015-05-12T17:59:53Z</time>
</trkpt>
<trkpt lat="37.34529462" lon="-4.35442834">
<ele>877</ele>
<time>2015-05-12T17:59:56Z</time>
</trkpt>
<trkpt lat="37.34517825" lon="-4.35449897">
<ele>877</ele>
<time>2015-05-12T17:59:58Z</time>
</trkpt>
<trkpt lat="37.34510043" lon="-4.35453251">
<ele>879</ele>
<time>2015-05-12T18:00:00Z</time>
</trkpt>
<trkpt lat="37.34504207" lon="-4.35456232">
<ele>879</ele>
<time>2015-05-12T18:00:02Z</time>
</trkpt>
<trkpt lat="37.34496066" lon="-4.35459513">
<ele>881</ele>
<time>2015-05-12T18:00:04Z</time>
</trkpt>
<trkpt lat="37.34483817" lon="-4.35460592">
<ele>882</ele>
<time>2015-05-12T18:00:06Z</time>
</trkpt>
<trkpt lat="37.34474909" lon="-4.35463409">
<ele>885</ele>
<time>2015-05-12T18:00:08Z</time>
</trkpt>
<trkpt lat="37.34466816" lon="-4.35467144">
<ele>887</ele>
<time>2015-05-12T18:00:10Z</time>
</trkpt>
<trkpt lat="37.344573" lon="-4.35468232">
<ele>891</ele>
<time>2015-05-12T18:00:12Z</time>
</trkpt>
<trkpt lat="37.34448006" lon="-4.35468917">
<ele>892</ele>
<time>2015-05-12T18:00:14Z</time>
</trkpt>
<trkpt lat="37.34440346" lon="-4.35471677">
<ele>894</ele>
<time>2015-05-12T18:00:16Z</time>
</trkpt>
<trkpt lat="37.34435202" lon="-4.35476222">
<ele>895</ele>
<time>2015-05-12T18:00:18Z</time>
</trkpt>
<trkpt lat="37.34429525" lon="-4.35485752">
<ele>896</ele>
<time>2015-05-12T18:00:20Z</time>
</trkpt>
<trkpt lat="37.34434735" lon="-4.35498173">
<ele>898</ele>
<time>2015-05-12T18:00:22Z</time>
</trkpt>
<trkpt lat="37.3445608" lon="-4.35492155">
<ele>896</ele>
<time>2015-05-12T18:00:24Z</time>
</trkpt>
<trkpt lat="37.34473587" lon="-4.35467089">
<ele>897</ele>
<time>2015-05-12T18:00:26Z</time>
</trkpt>
<trkpt lat="37.34488828" lon="-4.35442606">
<ele>899</ele>
<time>2015-05-12T18:00:28Z</time>
</trkpt>
<trkpt lat="37.34503792" lon="-4.35423981">
<ele>898</ele>
<time>2015-05-12T18:00:30Z</time>
</trkpt>
<trkpt lat="37.34522946" lon="-4.35405892">
<ele>897</ele>
<time>2015-05-12T18:00:32Z</time>
</trkpt>
<trkpt lat="37.3454437" lon="-4.35385528">
<ele>898</ele>
<time>2015-05-12T18:00:34Z</time>
</trkpt>
<trkpt lat="37.34567432" lon="-4.35367115">
<ele>897</ele>
<time>2015-05-12T18:00:36Z</time>
</trkpt>
<trkpt lat="37.34588099" lon="-4.35358857">
<ele>895</ele>
<time>2015-05-12T18:00:38Z</time>
</trkpt>
<trkpt lat="37.34597347" lon="-4.35368563">
<ele>889</ele>
<time>2015-05-12T18:00:40Z</time>
</trkpt>
<trkpt lat="37.34590607" lon="-4.35375113">
<ele>888</ele>
<time>2015-05-12T18:00:42Z</time>
</trkpt>
<trkpt lat="37.34588057" lon="-4.3537597">
<ele>887</ele>
<time>2015-05-12T18:00:44Z</time>
</trkpt>
<trkpt lat="37.34587086" lon="-4.35381168">
<ele>881</ele>
<time>2015-05-12T18:00:46Z</time>
</trkpt>
<trkpt lat="37.34578978" lon="-4.35388973">
<ele>874</ele>
<time>2015-05-12T18:00:48Z</time>
</trkpt>
<trkpt lat="37.34570607" lon="-4.35393544">
<ele>874</ele>
<time>2015-05-12T18:00:50Z</time>
</trkpt>
<trkpt lat="37.34564458" lon="-4.35396287">
<ele>872</ele>
<time>2015-05-12T18:00:52Z</time>
</trkpt>
<trkpt lat="37.345583" lon="-4.35400373">
<ele>869</ele>
<time>2015-05-12T18:00:54Z</time>
</trkpt>
<trkpt lat="37.34550078" lon="-4.3540616">
<ele>865</ele>
<time>2015-05-12T18:00:56Z</time>
</trkpt>
<trkpt lat="37.34540307" lon="-4.3541405">
<ele>864</ele>
<time>2015-05-12T18:00:58Z</time>
</trkpt>
<trkpt lat="37.34532423" lon="-4.35421935">
<ele>864</ele>
<time>2015-05-12T18:01:00Z</time>
</trkpt>
<trkpt lat="37.34524956" lon="-4.35428059">
<ele>861</ele>
<time>2015-05-12T18:01:02Z</time>
</trkpt>
<trkpt lat="37.34515874" lon="-4.35438436">
<ele>857</ele>
<time>2015-05-12T18:01:04Z</time>
</trkpt>
<trkpt lat="37.34509915" lon="-4.35455167">
<ele>860</ele>
<time>2015-05-12T18:01:06Z</time>
</trkpt>
<trkpt lat="37.34504097" lon="-4.35469196">
<ele>863</ele>
<time>2015-05-12T18:01:08Z</time>
</trkpt>
<trkpt lat="37.34495268" lon="-4.35477967">
<ele>862</ele>
<time>2015-05-12T18:01:10Z</time>
</trkpt>
<trkpt lat="37.34481335" lon="-4.35482329">
<ele>860</ele>
<time>2015-05-12T18:01:12Z</time>
</trkpt>
<trkpt lat="37.34466064" lon="-4.35483905">
<ele>862</ele>
<time>2015-05-12T18:01:14Z</time>
</trkpt>
<trkpt lat="37.3445386" lon="-4.35487541">
<ele>864</ele>
<time>2015-05-12T18:01:16Z</time>
</trkpt>
<trkpt lat="37.3444224" lon="-4.35492666">
<ele>866</ele>
<time>2015-05-12T18:01:18Z</time>
</trkpt>
<trkpt lat="37.34430196" lon="-4.35495173">
<ele>868</ele>
<time>2015-05-12T18:01:20Z</time>
</trkpt>
<trkpt lat="37.34417722" lon="-4.35493702">
<ele>869</ele>
<time>2015-05-12T18:01:22Z</time>
</trkpt>
<trkpt lat="37.34405606" lon="-4.35493884">
<ele>871</ele>
<time>2015-05-12T18:01:24Z</time>
</trkpt>
<trkpt lat="37.34395194" lon="-4.35499263">
<ele>871</ele>
<time>2015-05-12T18:01:26Z</time>
</trkpt>
<trkpt lat="37.34387634" lon="-4.3550892">
<ele>870</ele>
<time>2015-05-12T18:01:28Z</time>
</trkpt>
<trkpt lat="37.34377455" lon="-4.35516945">
<ele>869</ele>
<time>2015-05-12T18:01:30Z</time>
</trkpt>
<trkpt lat="37.34366818" lon="-4.35526179">
<ele>869</ele>
<time>2015-05-12T18:01:32Z</time>
</trkpt>
<trkpt lat="37.34358206" lon="-4.35535768">
<ele>869</ele>
<time>2015-05-12T18:01:34Z</time>
</trkpt>
<trkpt lat="37.34346254" lon="-4.35541969">
<ele>871</ele>
<time>2015-05-12T18:01:36Z</time>
</trkpt>
<trkpt lat="37.34338903" lon="-4.35548624">
<ele>873</ele>
<time>2015-05-12T18:01:38Z</time>
</trkpt>
<trkpt lat="37.3434271" lon="-4.35557823">
<ele>871</ele>
<time>2015-05-12T18:01:40Z</time>
</trkpt>
<trkpt lat="37.3435906" lon="-4.3556538">
<ele>871</ele>
<time>2015-05-12T18:01:42Z</time>
</trkpt>
<trkpt lat="37.34377552" lon="-4.35553535">
<ele>873</ele>
<time>2015-05-12T18:01:44Z</time>
</trkpt>
<trkpt lat="37.34392521" lon="-4.35534714">
<ele>876</ele>
<time>2015-05-12T18:01:46Z</time>
</trkpt>
<trkpt lat="37.34408736" lon="-4.35521501">
<ele>879</ele>
<time>2015-05-12T18:01:48Z</time>
</trkpt>
<trkpt lat="37.34425219" lon="-4.35507687">
<ele>880</ele>
<time>2015-05-12T18:01:50Z</time>
</trkpt>
<trkpt lat="37.34441366" lon="-4.35489038">
<ele>882</ele>
<time>2015-05-12T18:01:52Z</time>
</trkpt>
<trkpt lat="37.34456641" lon="-4.3547312">
<ele>883</ele>
<time>2015-05-12T18:01:54Z</time>
</trkpt>
<trkpt lat="37.34473748" lon="-4.35457468">
<ele>885</ele>
<time>2015-05-12T18:01:56Z</time>
</trkpt>
<trkpt lat="37.34491228" lon="-4.35441763">
<ele>887</ele>
<time>2015-05-12T18:01:58Z</time>
</trkpt>
<trkpt lat="37.34510498" lon="-4.35430685">
<ele>888</ele>
<time>2015-05-12T18:02:00Z</time>
</trkpt>
<trkpt lat="37.3452671" lon="-4.3543561">
<ele>889</ele>
<time>2015-05-12T18:02:02Z</time>
</trkpt>
<trkpt lat="37.34535705" lon="-4.35451791">
<ele>889</ele>
<time>2015-05-12T18:02:04Z</time>
</trkpt>
<trkpt lat="37.3453397" lon="-4.35465515">
<ele>891</ele>
<time>2015-05-12T18:02:06Z</time>
</trkpt>
<trkpt lat="37.34527051" lon="-4.35469438">
<ele>892</ele>
<time>2015-05-12T18:02:08Z</time>
</trkpt>
<trkpt lat="37.34517234" lon="-4.35469668">
<ele>891</ele>
<time>2015-05-12T18:02:10Z</time>
</trkpt>
<trkpt lat="37.34504791" lon="-4.35462358">
<ele>891</ele>
<time>2015-05-12T18:02:12Z</time>
</trkpt>
<trkpt lat="37.34492234" lon="-4.35455884">
<ele>893</ele>
<time>2015-05-12T18:02:14Z</time>
</trkpt>
<trkpt lat="37.34482027" lon="-4.35455838">
<ele>892</ele>
<time>2015-05-12T18:02:16Z</time>
</trkpt>
<trkpt lat="37.34470228" lon="-4.35453635">
<ele>891</ele>
<time>2015-05-12T18:02:18Z</time>
</trkpt>
<trkpt lat="37.344576" lon="-4.35452742">
<ele>889</ele>
<time>2015-05-12T18:02:20Z</time>
</trkpt>
<trkpt lat="37.34445484" lon="-4.35456897">
<ele>889</ele>
<time>2015-05-12T18:02:22Z</time>
</trkpt>
<trkpt lat="37.34435829" lon="-4.35462556">
<ele>888</ele>
<time>2015-05-12T18:02:24Z</time>
</trkpt>
<trkpt lat="37.34424633" lon="-4.35466655">
<ele>887</ele>
<time>2015-05-12T18:02:26Z</time>
</trkpt>
<trkpt lat="37.34412023" lon="-4.35469608">
<ele>885</ele>
<time>2015-05-12T18:02:28Z</time>
</trkpt>
<trkpt lat="37.34400572" lon="-4.3547597">
<ele>884</ele>
<time>2015-05-12T18:02:30Z</time>
</trkpt>
<trkpt lat="37.3439014" lon="-4.35488225">
<ele>882</ele>
<time>2015-05-12T18:02:32Z</time>
</trkpt>
<trkpt lat="37.3437917" lon="-4.3550415">
<ele>882</ele>
<time>2015-05-12T18:02:34Z</time>
</trkpt>
<trkpt lat="37.34387193" lon="-4.35517836">
<ele>883</ele>
<time>2015-05-12T18:02:36Z</time>
</trkpt>
<trkpt lat="37.34402378" lon="-4.35523788">
<ele>888</ele>
<time>2015-05-12T18:02:38Z</time>
</trkpt>
<trkpt lat="37.3441984" lon="-4.35514217">
<ele>889</ele>
<time>2015-05-12T18:02:40Z</time>
</trkpt>
<trkpt lat="37.34433822" lon="-4.35492293">
<ele>893</ele>
<time>2015-05-12T18:02:42Z</time>
</trkpt>
<trkpt lat="37.34451918" lon="-4.35486983">
<ele>897</ele>
<time>2015-05-12T18:02:44Z</time>
</trkpt>
<trkpt lat="37.3446643" lon="-4.35494983">
<ele>901</ele>
<time>2015-05-12T18:02:46Z</time>
</trkpt>
<trkpt lat="37.344749" lon="-4.35507808">
<ele>905</ele>
<time>2015-05-12T18:02:48Z</time>
</trkpt>
<trkpt lat="37.34472185" lon="-4.35518567">
<ele>910</ele>
<time>2015-05-12T18:02:50Z</time>
</trkpt>
<trkpt lat="37.34461687" lon="-4.35520198">
<ele>912</ele>
<time>2015-05-12T18:02:52Z</time>
</trkpt>
<trkpt lat="37.3445024" lon="-4.35508069">
<ele>911</ele>
<time>2015-05-12T18:02:54Z</time>
</trkpt>
<trkpt lat="37.34458382" lon="-4.35461812">
<ele>912</ele>
<time>2015-05-12T18:02:56Z</time>
</trkpt>
<trkpt lat="37.34477554" lon="-4.3544092">
<ele>916</ele>
<time>2015-05-12T18:02:58Z</time>
</trkpt>
<trkpt lat="37.34498443" lon="-4.35450365">
<ele>923</ele>
<time>2015-05-12T18:03:00Z</time>
</trkpt>
<trkpt lat="37.34508051" lon="-4.3546125">
<ele>928</ele>
<time>2015-05-12T18:03:02Z</time>
</trkpt>
<trkpt lat="37.34511476" lon="-4.35468308">
<ele>931</ele>
<time>2015-05-12T18:03:04Z</time>
</trkpt>
<trkpt lat="37.34511662" lon="-4.35472982">
<ele>933</ele>
<time>2015-05-12T18:03:06Z</time>
</trkpt>
<trkpt lat="37.34507526" lon="-4.35478763">
<ele>933</ele>
<time>2015-05-12T18:03:08Z</time>
</trkpt>
<trkpt lat="37.3449718" lon="-4.35476683">
<ele>931</ele>
<time>2015-05-12T18:03:10Z</time>
</trkpt>
<trkpt lat="37.34485451" lon="-4.3547302">
<ele>929</ele>
<time>2015-05-12T18:03:12Z</time>
</trkpt>
<trkpt lat="37.34474229" lon="-4.35470699">
<ele>926</ele>
<time>2015-05-12T18:03:14Z</time>
</trkpt>
<trkpt lat="37.34463456" lon="-4.35471466">
<ele>928</ele>
<time>2015-05-12T18:03:16Z</time>
</trkpt>
<trkpt lat="37.34461135" lon="-4.3547392">
<ele>931</ele>
<time>2015-05-12T18:03:18Z</time>
</trkpt>
<trkpt lat="37.34466515" lon="-4.35482995">
<ele>930</ele>
<time>2015-05-12T18:03:20Z</time>
</trkpt>
<trkpt lat="37.34472025" lon="-4.35494754">
<ele>929</ele>
<time>2015-05-12T18:03:22Z</time>
</trkpt>
<trkpt lat="37.34471435" lon="-4.35508766">
<ele>930</ele>
<time>2015-05-12T18:03:24Z</time>
</trkpt>
<trkpt lat="37.34476067" lon="-4.35519999">
<ele>931</ele>
<time>2015-05-12T18:03:26Z</time>
</trkpt>
<trkpt lat="37.3447972" lon="-4.3552836">
<ele>932</ele>
<time>2015-05-12T18:03:28Z</time>
</trkpt>
<trkpt lat="37.34475693" lon="-4.35535481">
<ele>931</ele>
<time>2015-05-12T18:03:30Z</time>
</trkpt>
<trkpt lat="37.34467401" lon="-4.3554406">
<ele>936</ele>
<time>2015-05-12T18:03:32Z</time>
</trkpt>
<trkpt lat="37.34466786" lon="-4.35550353">
<ele>943</ele>
<time>2015-05-12T18:03:34Z</time>
</trkpt>
<trkpt lat="37.34474177" lon="-4.35557177">
<ele>945</ele>
<time>2015-05-12T18:03:36Z</time>
</trkpt>
<trkpt lat="37.34481922" lon="-4.35567134">
<ele>947</ele>
<time>2015-05-12T18:03:38Z</time>
</trkpt>
<trkpt lat="37.34478352" lon="-4.3557767">
<ele>947</ele>
<time>2015-05-12T18:03:40Z</time>
</trkpt>
<trkpt lat="37.34465803" lon="-4.35575041">
<ele>950</ele>
<time>2015-05-12T18:03:42Z</time>
</trkpt>
<trkpt lat="37.34451831" lon="-4.35551844">
<ele>951</ele>
<time>2015-05-12T18:03:44Z</time>
</trkpt>
<trkpt lat="37.34448059" lon="-4.355196">
<ele>957</ele>
<time>2015-05-12T18:03:46Z</time>
</trkpt>
<trkpt lat="37.34453747" lon="-4.35487685">
<ele>962</ele>
<time>2015-05-12T18:03:48Z</time>
</trkpt>
<trkpt lat="37.34472356" lon="-4.35463111">
<ele>963</ele>
<time>2015-05-12T18:03:50Z</time>
</trkpt>
<trkpt lat="37.34497451" lon="-4.35456157">
<ele>963</ele>
<time>2015-05-12T18:03:52Z</time>
</trkpt>
<trkpt lat="37.34514591" lon="-4.35464663">
<ele>968</ele>
<time>2015-05-12T18:03:54Z</time>
</trkpt>
<trkpt lat="37.34520014" lon="-4.35475065">
<ele>973</ele>
<time>2015-05-12T18:03:56Z</time>
</trkpt>
<trkpt lat="37.34524677" lon="-4.35482498">
<ele>974</ele>
<time>2015-05-12T18:03:58Z</time>
</trkpt>
<trkpt lat="37.34523376" lon="-4.35489531">
<ele>974</ele>
<time>2015-05-12T18:04:00Z</time>
</trkpt>
<trkpt lat="37.34516629" lon="-4.35493582">
<ele>976</ele>
<time>2015-05-12T18:04:02Z</time>
</trkpt>
<trkpt lat="37.34507155" lon="-4.3549589">
<ele>979</ele>
<time>2015-05-12T18:04:04Z</time>
</trkpt>
<trkpt lat="37.34497619" lon="-4.35496698">
<ele>981</ele>
<time>2015-05-12T18:04:06Z</time>
</trkpt>
<trkpt lat="37.34483118" lon="-4.35487948">
<ele>980</ele>
<time>2015-05-12T18:04:08Z</time>
</trkpt>
<trkpt lat="37.34470972" lon="-4.3546271">
<ele>979</ele>
<time>2015-05-12T18:04:10Z</time>
</trkpt>
<trkpt lat="37.34473084" lon="-4.3542804">
<ele>980</ele>
<time>2015-05-12T18:04:12Z</time>
</trkpt>
<trkpt lat="37.34491903" lon="-4.35398386">
<ele>983</ele>
<time>2015-05-12T18:04:14Z</time>
</trkpt>
<trkpt lat="37.34511234" lon="-4.3538398">
<ele>986</ele>
<time>2015-05-12T18:04:16Z</time>
</trkpt>
<trkpt lat="37.34531632" lon="-4.35379632">
<ele>990</ele>
<time>2015-05-12T18:04:18Z</time>
</trkpt>
<trkpt lat="37.34547588" lon="-4.35383896">
<ele>994</ele>
<time>2015-05-12T18:04:20Z</time>
</trkpt>
<trkpt lat="37.34558706" lon="-4.35388822">
<ele>1001</ele>
<time>2015-05-12T18:04:22Z</time>
</trkpt>
<trkpt lat="37.3456485" lon="-4.35393224">
<ele>1005</ele>
<time>2015-05-12T18:04:24Z</time>
</trkpt>
<trkpt lat="37.34565404" lon="-4.35401534">
<ele>1005</ele>
<time>2015-05-12T18:04:26Z</time>
</trkpt>
<trkpt lat="37.34563371" lon="-4.3541225">
<ele>1007</ele>
<time>2015-05-12T18:04:28Z</time>
</trkpt>
<trkpt lat="37.34561466" lon="-4.35420443">
<ele>1010</ele>
<time>2015-05-12T18:04:30Z</time>
</trkpt>
<trkpt lat="37.34558748" lon="-4.35427178">
<ele>1011</ele>
<time>2015-05-12T18:04:32Z</time>
</trkpt>
<trkpt lat="37.3455259" lon="-4.35431226">
<ele>1013</ele>
<time>2015-05-12T18:04:34Z</time>
</trkpt>
<trkpt lat="37.34544235" lon="-4.35432992">
<ele>1015</ele>
<time>2015-05-12T18:04:36Z</time>
</trkpt>
<trkpt lat="37.34527279" lon="-4.35425497">
<ele>1017</ele>
<time>2015-05-12T18:04:38Z</time>
</trkpt>
<trkpt lat="37.34511595" lon="-4.35407716">
<ele>1016</ele>
<time>2015-05-12T18:04:40Z</time>
</trkpt>
<trkpt lat="37.34497063" lon="-4.35382984">
<ele>1018</ele>
<time>2015-05-12T18:04:42Z</time>
</trkpt>
<trkpt lat="37.34490163" lon="-4.35350841">
<ele>1017</ele>
<time>2015-05-12T18:04:44Z</time>
</trkpt>
<trkpt lat="37.3449298" lon="-4.35314512">
<ele>1017</ele>
<time>2015-05-12T18:04:46Z</time>
</trkpt>
<trkpt lat="37.34506668" lon="-4.35284752">
<ele>1017</ele>
<time>2015-05-12T18:04:48Z</time>
</trkpt>
<trkpt lat="37.34523818" lon="-4.35269756">
<ele>1017</ele>
<time>2015-05-12T18:04:50Z</time>
</trkpt>
<trkpt lat="37.34540116" lon="-4.3526351">
<ele>1017</ele>
<time>2015-05-12T18:04:52Z</time>
</trkpt>
<trkpt lat="37.34550148" lon="-4.35269317">
<ele>1015</ele>
<time>2015-05-12T18:04:54Z</time>
</trkpt>
<trkpt lat="37.34552268" lon="-4.3527675">
<ele>1018</ele>
<time>2015-05-12T18:04:56Z</time>
</trkpt>
<trkpt lat="37.34548588" lon="-4.3528224">
<ele>1022</ele>
<time>2015-05-12T18:04:58Z</time>
</trkpt>
<trkpt lat="37.34547187" lon="-4.3528693">
<ele>1025</ele>
<time>2015-05-12T18:05:00Z</time>
</trkpt>
<trkpt lat="37.34548663" lon="-4.35290348">
<ele>1029</ele>
<time>2015-05-12T18:05:02Z</time>
</trkpt>
<trkpt lat="37.34551307" lon="-4.35294828">
<ele>1031</ele>
<time>2015-05-12T18:05:04Z</time>
</trkpt>
<trkpt lat="37.34552705" lon="-4.35300575">
<ele>1032</ele>
<time>2015-05-12T18:05:06Z</time>
</trkpt>
<trkpt lat="37.34550812" lon="-4.3530747">
<ele>1032</ele>
<time>2015-05-12T18:05:08Z</time>
</trkpt>
<trkpt lat="37.34542182" lon="-4.35318546">
<ele>1034</ele>
<time>2015-05-12T18:05:10Z</time>
</trkpt>
<trkpt lat="37.3453904" lon="-4.35328048">
<ele>1038</ele>
<time>2015-05-12T18:05:12Z</time>
</trkpt>
<trkpt lat="37.3454097" lon="-4.35336775">
<ele>1040</ele>
<time>2015-05-12T18:05:14Z</time>
</trkpt>
<trkpt lat="37.34549403" lon="-4.35347689">
<ele>1042</ele>
<time>2015-05-12T18:05:16Z</time>
</trkpt>
<trkpt lat="37.34554847" lon="-4.35359004">
<ele>1048</ele>
<time>2015-05-12T18:05:18Z</time>
</trkpt>
<trkpt lat="37.34550698" lon="-4.35363307">
<ele>1055</ele>
<time>2015-05-12T18:05:20Z</time>
</trkpt>
<trkpt lat="37.34534421" lon="-4.3535736">
<ele>1052</ele>
<time>2015-05-12T18:05:22Z</time>
</trkpt>
<trkpt lat="37.34512932" lon="-4.35337973">
<ele>1053</ele>
<time>2015-05-12T18:05:24Z</time>
</trkpt>
<trkpt lat="37.34500408" lon="-4.35311083">
<ele>1058</ele>
<time>2015-05-12T18:05:26Z</time>
</trkpt>
<trkpt lat="37.34497971" lon="-4.35278236">
<ele>1058</ele>
<time>2015-05-12T18:05:28Z</time>
</trkpt>
<trkpt lat="37.34512788" lon="-4.35250085">
<ele>1060</ele>
<time>2015-05-12T18:05:30Z</time>
</trkpt>
<trkpt lat="37.3453021" lon="-4.35243146">
<ele>1065</ele>
<time>2015-05-12T18:05:32Z</time>
</trkpt>
<trkpt lat="37.34545073" lon="-4.35247667">
<ele>1066</ele>
<time>2015-05-12T18:05:34Z</time>
</trkpt>
<trkpt lat="37.34545484" lon="-4.35250311">
<ele>1070</ele>
<time>2015-05-12T18:05:36Z</time>
</trkpt>
<trkpt lat="37.34536371" lon="-4.35251462">
<ele>1071</ele>
<time>2015-05-12T18:05:38Z</time>
</trkpt>
<trkpt lat="37.34516256" lon="-4.35250069">
<ele>1071</ele>
<time>2015-05-12T18:05:40Z</time>
</trkpt>
<trkpt lat="37.34492945" lon="-4.35238008">
<ele>1077</ele>
<time>2015-05-12T18:05:42Z</time>
</trkpt>
<trkpt lat="37.34473126" lon="-4.35222347">
<ele>1084</ele>
<time>2015-05-12T18:05:44Z</time>
</trkpt>
<trkpt lat="37.3446122" lon="-4.35198789">
<ele>1083</ele>
<time>2015-05-12T18:05:46Z</time>
</trkpt>
<trkpt lat="37.34453674" lon="-4.35164234">
<ele>1082</ele>
<time>2015-05-12T18:05:48Z</time>
</trkpt>
<trkpt lat="37.34457425" lon="-4.35123367">
<ele>1083</ele>
<time>2015-05-12T18:05:50Z</time>
</trkpt>
<trkpt lat="37.34471889" lon="-4.35090846">
<ele>1085</ele>
<time>2015-05-12T18:05:52Z</time>
</trkpt>
<trkpt lat="37.34488988" lon="-4.35074955">
<ele>1085</ele>
<time>2015-05-12T18:05:54Z</time>
</trkpt>
<trkpt lat="37.34505569" lon="-4.35068988">
<ele>1086</ele>
<time>2015-05-12T18:05:56Z</time>
</trkpt>
<trkpt lat="37.34517052" lon="-4.35072775">
<ele>1086</ele>
<time>2015-05-12T18:05:58Z</time>
</trkpt>
<trkpt lat="37.34522718" lon="-4.35085143">
<ele>1088</ele>
<time>2015-05-12T18:06:00Z</time>
</trkpt>
<trkpt lat="37.34521264" lon="-4.35095407">
<ele>1089</ele>
<time>2015-05-12T18:06:02Z</time>
</trkpt>
<trkpt lat="37.34520871" lon="-4.35103362">
<ele>1090</ele>
<time>2015-05-12T18:06:04Z</time>
</trkpt>
<trkpt lat="37.34518996" lon="-4.3511129">
<ele>1093</ele>
<time>2015-05-12T18:06:06Z</time>
</trkpt>
<trkpt lat="37.34517766" lon="-4.35120359">
<ele>1093</ele>
<time>2015-05-12T18:06:08Z</time>
</trkpt>
<trkpt lat="37.34515495" lon="-4.35133803">
<ele>1099</ele>
<time>2015-05-12T18:06:10Z</time>
</trkpt>
<trkpt lat="37.34513549" lon="-4.35140658">
<ele>1098</ele>
<time>2015-05-12T18:06:12Z</time>
</trkpt>
<trkpt lat="37.34513336" lon="-4.35148473">
<ele>1096</ele>
<time>2015-05-12T18:06:14Z</time>
</trkpt>
<trkpt lat="37.34516071" lon="-4.35160724">
<ele>1092</ele>
<time>2015-05-12T18:06:16Z</time>
</trkpt>
<trkpt lat="37.34517079" lon="-4.35170392">
<ele>1093</ele>
<time>2015-05-12T18:06:18Z</time>
</trkpt>
<trkpt lat="37.34519776" lon="-4.35179364">
<ele>1093</ele>
<time>2015-05-12T18:06:20Z</time>
</trkpt>
<trkpt lat="37.34521575" lon="-4.35189149">
<ele>1092</ele>
<time>2015-05-12T18:06:22Z</time>
</trkpt>
<trkpt lat="37.34519905" lon="-4.35200835">
<ele>1100</ele>
<time>2015-05-12T18:06:24Z</time>
</trkpt>
<trkpt lat="37.34515246" lon="-4.35207456">
<ele>1100</ele>
<time>2015-05-12T18:06:26Z</time>
</trkpt>
<trkpt lat="37.3450331" lon="-4.3521226">
<ele>1101</ele>
<time>2015-05-12T18:06:28Z</time>
</trkpt>
<trkpt lat="37.34495096" lon="-4.35215368">
<ele>1103</ele>
<time>2015-05-12T18:06:30Z</time>
</trkpt>
<trkpt lat="37.34488975" lon="-4.35222214">
<ele>1104</ele>
<time>2015-05-12T18:06:32Z</time>
</trkpt>
<trkpt lat="37.344907" lon="-4.35230075">
<ele>1106</ele>
<time>2015-05-12T18:06:34Z</time>
</trkpt>
<trkpt lat="37.34498905" lon="-4.35237556">
<ele>1105</ele>
<time>2015-05-12T18:06:36Z</time>
</trkpt>
<trkpt lat="37.3451349" lon="-4.35237386">
<ele>1110</ele>
<time>2015-05-12T18:06:38Z</time>
</trkpt>
<trkpt lat="37.34530191" lon="-4.35220245">
<ele>1109</ele>
<time>2015-05-12T18:06:40Z</time>
</trkpt>
<trkpt lat="37.34534492" lon="-4.35179845">
<ele>1109</ele>
<time>2015-05-12T18:06:42Z</time>
</trkpt>
<trkpt lat="37.3452366" lon="-4.35144821">
<ele>1110</ele>
<time>2015-05-12T18:06:44Z</time>
</trkpt>
<trkpt lat="37.34505626" lon="-4.35126213">
<ele>1114</ele>
<time>2015-05-12T18:06:46Z</time>
</trkpt>
<trkpt lat="37.34490781" lon="-4.35121684">
<ele>1114</ele>
<time>2015-05-12T18:06:48Z</time>
</trkpt>
<trkpt lat="37.34480522" lon="-4.35129006">
<ele>1116</ele>
<time>2015-05-12T18:06:50Z</time>
</trkpt>
<trkpt lat="37.34475495" lon="-4.35138741">
<ele>1118</ele>
<time>2015-05-12T18:06:52Z</time>
</trkpt>
<trkpt lat="37.34473452" lon="-4.35148516">
<ele>1118</ele>
<time>2015-05-12T18:06:54Z</time>
</trkpt>
<trkpt lat="37.34480733" lon="-4.35159082">
<ele>1120</ele>
<time>2015-05-12T18:06:56Z</time>
</trkpt>
<trkpt lat="37.34494244" lon="-4.35155117">
<ele>1122</ele>
<time>2015-05-12T18:06:58Z</time>
</trkpt>
<trkpt lat="37.34512362" lon="-4.35130651">
<ele>1120</ele>
<time>2015-05-12T18:07:00Z</time>
</trkpt>
<trkpt lat="37.34518743" lon="-4.35092308">
<ele>1121</ele>
<time>2015-05-12T18:07:02Z</time>
</trkpt>
<trkpt lat="37.34509923" lon="-4.35059674">
<ele>1122</ele>
<time>2015-05-12T18:07:04Z</time>
</trkpt>
<trkpt lat="37.34492684" lon="-4.35045306">
<ele>1122</ele>
<time>2015-05-12T18:07:06Z</time>
</trkpt>
<trkpt lat="37.34476566" lon="-4.35035126">
<ele>1122</ele>
<time>2015-05-12T18:07:08Z</time>
</trkpt>
<trkpt lat="37.34464303" lon="-4.35034094">
<ele>1123</ele>
<time>2015-05-12T18:07:10Z</time>
</trkpt>
<trkpt lat="37.34459164" lon="-4.35040987">
<ele>1121</ele>
<time>2015-05-12T18:07:12Z</time>
</trkpt>
<trkpt lat="37.34460204" lon="-4.35050356">
<ele>1121</ele>
<time>2015-05-12T18:07:14Z</time>
</trkpt>
<trkpt lat="37.34460523" lon="-4.35058225">
<ele>1122</ele>
<time>2015-05-12T18:07:16Z</time>
</trkpt>
<trkpt lat="37.34463091" lon="-4.35065318">
<ele>1120</ele>
<time>2015-05-12T18:07:18Z</time>
</trkpt>
<trkpt lat="37.34465578" lon="-4.35077719">
<ele>1117</ele>
<time>2015-05-12T18:07:20Z</time>
</trkpt>
<trkpt lat="37.34463454" lon="-4.35088074">
<ele>1118</ele>
<time>2015-05-12T18:07:22Z</time>
</trkpt>
<trkpt lat="37.3446662" lon="-4.35094879">
<ele>1121</ele>
<time>2015-05-12T18:07:24Z</time>
</trkpt>
<trkpt lat="37.34468736" lon="-4.35100226">
<ele>1119</ele>
<time>2015-05-12T18:07:26Z</time>
</trkpt>
<trkpt lat="37.34466245" lon="-4.35109269">
<ele>1115</ele>
<time>2015-05-12T18:07:28Z</time>
</trkpt>
<trkpt lat="37.34460032" lon="-4.35116888">
<ele>1115</ele>
<time>2015-05-12T18:07:30Z</time>
</trkpt>
<trkpt lat="37.34451333" lon="-4.35120624">
<ele>1115</ele>
<time>2015-05-12T18:07:32Z</time>
</trkpt>
<trkpt lat="37.34445929" lon="-4.35129149">
<ele>1112</ele>
<time>2015-05-12T18:07:34Z</time>
</trkpt>
<trkpt lat="37.3443838" lon="-4.35136429">
<ele>1111</ele>
<time>2015-05-12T18:07:36Z</time>
</trkpt>
<trkpt lat="37.3443027" lon="-4.35143743">
<ele>1110</ele>
<time>2015-05-12T18:07:38Z</time>
</trkpt>
<trkpt lat="37.34425352" lon="-4.35157165">
<ele>1107</ele>
<time>2015-05-12T18:07:40Z</time>
</trkpt>
<trkpt lat="37.34417358" lon="-4.35161635">
<ele>1108</ele>
<time>2015-05-12T18:07:42Z</time>
</trkpt>
<trkpt lat="37.34411631" lon="-4.35164789">
<ele>1108</ele>
<time>2015-05-12T18:07:44Z</time>
</trkpt>
<trkpt lat="37.3440475" lon="-4.35171812">
<ele>1104</ele>
<time>2015-05-12T18:07:46Z</time>
</trkpt>
<trkpt lat="37.34398407" lon="-4.35182843">
<ele>1103</ele>
<time>2015-05-12T18:07:48Z</time>
</trkpt>
<trkpt lat="37.34392856" lon="-4.35199773">
<ele>1103</ele>
<time>2015-05-12T18:07:50Z</time>
</trkpt>
<trkpt lat="37.34385273" lon="-4.35217038">
<ele>1105</ele>
<time>2015-05-12T18:07:52Z</time>
</trkpt>
<trkpt lat="37.34379317" lon="-4.35232812">
<ele>1105</ele>
<time>2015-05-12T18:07:54Z</time>
</trkpt>
<trkpt lat="37.34371374" lon="-4.35247679">
<ele>1107</ele>
<time>2015-05-12T18:07:56Z</time>
</trkpt>
<trkpt lat="37.34362284" lon="-4.35258455">
<ele>1112</ele>
<time>2015-05-12T18:07:58Z</time>
</trkpt>
<trkpt lat="37.34354095" lon="-4.35262277">
<ele>1115</ele>
<time>2015-05-12T18:08:00Z</time>
</trkpt>
<trkpt lat="37.3434788" lon="-4.35265141">
<ele>1113</ele>
<time>2015-05-12T18:08:02Z</time>
</trkpt>
<trkpt lat="37.34334225" lon="-4.3526896">
<ele>1114</ele>
<time>2015-05-12T18:08:04Z</time>
</trkpt>
<trkpt lat="37.34319218" lon="-4.35263023">
<ele>1116</ele>
<time>2015-05-12T18:08:06Z</time>
</trkpt>
<trkpt lat="37.34305287" lon="-4.35256453">
<ele>1114</ele>
<time>2015-05-12T18:08:08Z</time>
</trkpt>
<trkpt lat="37.34291043" lon="-4.3524423">
<ele>1113</ele>
<time>2015-05-12T18:08:10Z</time>
</trkpt>
<trkpt lat="37.34278611" lon="-4.35222927">
<ele>1113</ele>
<time>2015-05-12T18:08:12Z</time>
</trkpt>
<trkpt lat="37.34266103" lon="-4.35198501">
<ele>1114</ele>
<time>2015-05-12T18:08:14Z</time>
</trkpt>
<trkpt lat="37.34255396" lon="-4.35174538">
<ele>1112</ele>
<time>2015-05-12T18:08:16Z</time>
</trkpt>
<trkpt lat="37.3424508" lon="-4.35149066">
<ele>1110</ele>
<time>2015-05-12T18:08:18Z</time>
</trkpt>
<trkpt lat="37.34232057" lon="-4.35125157">
<ele>1111</ele>
<time>2015-05-12T18:08:20Z</time>
</trkpt>
<trkpt lat="37.34219677" lon="-4.35106295">
<ele>1111</ele>
<time>2015-05-12T18:08:22Z</time>
</trkpt>
<trkpt lat="37.34206392" lon="-4.35092331">
<ele>1113</ele>
<time>2015-05-12T18:08:24Z</time>
</trkpt>
<trkpt lat="37.34192841" lon="-4.35085134">
<ele>1113</ele>
<time>2015-05-12T18:08:26Z</time>
</trkpt>
<trkpt lat="37.34181528" lon="-4.35084689">
<ele>1112</ele>
<time>2015-05-12T18:08:28Z</time>
</trkpt>
<trkpt lat="37.34171082" lon="-4.35084014">
<ele>1112</ele>
<time>2015-05-12T18:08:30Z</time>
</trkpt>
<trkpt lat="37.34157364" lon="-4.35078292">
<ele>1108</ele>
<time>2015-05-12T18:08:32Z</time>
</trkpt>
<trkpt lat="37.34145194" lon="-4.35068243">
<ele>1108</ele>
<time>2015-05-12T18:08:34Z</time>
</trkpt>
<trkpt lat="37.34130967" lon="-4.35053036">
<ele>1106</ele>
<time>2015-05-12T18:08:36Z</time>
</trkpt>
<trkpt lat="37.34116586" lon="-4.35039125">
<ele>1107</ele>
<time>2015-05-12T18:08:38Z</time>
</trkpt>
<trkpt lat="37.3410312" lon="-4.35028294">
<ele>1108</ele>
<time>2015-05-12T18:08:40Z</time>
</trkpt>
<trkpt lat="37.34091014" lon="-4.35020852">
<ele>1113</ele>
<time>2015-05-12T18:08:42Z</time>
</trkpt>
<trkpt lat="37.34089072" lon="-4.35029692">
<ele>1114</ele>
<time>2015-05-12T18:08:44Z</time>
</trkpt>
<trkpt lat="37.34098335" lon="-4.35043777">
<ele>1115</ele>
<time>2015-05-12T18:08:46Z</time>
</trkpt>
<trkpt lat="37.34122028" lon="-4.3503676">
<ele>1117</ele>
<time>2015-05-12T18:08:48Z</time>
</trkpt>
<trkpt lat="37.34132604" lon="-4.35004489">
<ele>1115</ele>
<time>2015-05-12T18:08:50Z</time>
</trkpt>
<trkpt lat="37.34122316" lon="-4.34976886">
<ele>1117</ele>
<time>2015-05-12T18:08:52Z</time>
</trkpt>
<trkpt lat="37.34107549" lon="-4.34960075">
<ele>1120</ele>
<time>2015-05-12T18:08:54Z</time>
</trkpt>
<trkpt lat="37.34097189" lon="-4.349494">
<ele>1126</ele>
<time>2015-05-12T18:08:56Z</time>
</trkpt>
<trkpt lat="37.34089132" lon="-4.34936536">
<ele>1128</ele>
<time>2015-05-12T18:08:58Z</time>
</trkpt>
<trkpt lat="37.34080476" lon="-4.34918505">
<ele>1130</ele>
<time>2015-05-12T18:09:00Z</time>
</trkpt>
<trkpt lat="37.34071893" lon="-4.34893159">
<ele>1131</ele>
<time>2015-05-12T18:09:02Z</time>
</trkpt>
<trkpt lat="37.34063574" lon="-4.3486875">
<ele>1130</ele>
<time>2015-05-12T18:09:04Z</time>
</trkpt>
<trkpt lat="37.34055472" lon="-4.34841084">
<ele>1130</ele>
<time>2015-05-12T18:09:06Z</time>
</trkpt>
<trkpt lat="37.34048933" lon="-4.34813827">
<ele>1129</ele>
<time>2015-05-12T18:09:08Z</time>
</trkpt>
<trkpt lat="37.34047307" lon="-4.347827">
<ele>1125</ele>
<time>2015-05-12T18:09:10Z</time>
</trkpt>
<trkpt lat="37.34049709" lon="-4.34750706">
<ele>1121</ele>
<time>2015-05-12T18:09:12Z</time>
</trkpt>
<trkpt lat="37.34057294" lon="-4.34716926">
<ele>1121</ele>
<time>2015-05-12T18:09:14Z</time>
</trkpt>
<trkpt lat="37.34068539" lon="-4.34686119">
<ele>1122</ele>
<time>2015-05-12T18:09:16Z</time>
</trkpt>
<trkpt lat="37.34081415" lon="-4.34655925">
<ele>1124</ele>
<time>2015-05-12T18:09:18Z</time>
</trkpt>
<trkpt lat="37.34096778" lon="-4.34629511">
<ele>1124</ele>
<time>2015-05-12T18:09:20Z</time>
</trkpt>
<trkpt lat="37.34114126" lon="-4.34609859">
<ele>1125</ele>
<time>2015-05-12T18:09:22Z</time>
</trkpt>
<trkpt lat="37.34132152" lon="-4.34608711">
<ele>1125</ele>
<time>2015-05-12T18:09:24Z</time>
</trkpt>
<trkpt lat="37.3414382" lon="-4.34617879">
<ele>1125</ele>
<time>2015-05-12T18:09:26Z</time>
</trkpt>
<trkpt lat="37.34143049" lon="-4.34625838">
<ele>1125</ele>
<time>2015-05-12T18:09:28Z</time>
</trkpt>
<trkpt lat="37.34144386" lon="-4.3463598">
<ele>1120</ele>
<time>2015-05-12T18:09:30Z</time>
</trkpt>
<trkpt lat="37.34139377" lon="-4.34651043">
<ele>1116</ele>
<time>2015-05-12T18:09:32Z</time>
</trkpt>
<trkpt lat="37.34136246" lon="-4.34665059">
<ele>1115</ele>
<time>2015-05-12T18:09:34Z</time>
</trkpt>
<trkpt lat="37.34135297" lon="-4.34677918">
<ele>1117</ele>
<time>2015-05-12T18:09:36Z</time>
</trkpt>
<trkpt lat="37.34136275" lon="-4.34686886">
<ele>1118</ele>
<time>2015-05-12T18:09:38Z</time>
</trkpt>
<trkpt lat="37.34134877" lon="-4.34704501">
<ele>1113</ele>
<time>2015-05-12T18:09:40Z</time>
</trkpt>
<trkpt lat="37.34134227" lon="-4.34719563">
<ele>1113</ele>
<time>2015-05-12T18:09:42Z</time>
</trkpt>
<trkpt lat="37.34131696" lon="-4.34731862">
<ele>1114</ele>
<time>2015-05-12T18:09:44Z</time>
</trkpt>
<trkpt lat="37.34127222" lon="-4.34740931">
<ele>1116</ele>
<time>2015-05-12T18:09:46Z</time>
</trkpt>
<trkpt lat="37.34125221" lon="-4.34748147">
<ele>1115</ele>
<time>2015-05-12T18:09:48Z</time>
</trkpt>
<trkpt lat="37.34120987" lon="-4.34756833">
<ele>1118</ele>
<time>2015-05-12T18:09:50Z</time>
</trkpt>
<trkpt lat="37.34112586" lon="-4.34760099">
<ele>1118</ele>
<time>2015-05-12T18:09:52Z</time>
</trkpt>
<trkpt lat="37.34105204" lon="-4.34763719">
<ele>1118</ele>
<time>2015-05-12T18:09:54Z</time>
</trkpt>
<trkpt lat="37.34098391" lon="-4.34769935">
<ele>1118</ele>
<time>2015-05-12T18:09:56Z</time>
</trkpt>
<trkpt lat="37.34088011" lon="-4.34774611">
<ele>1120</ele>
<time>2015-05-12T18:09:58Z</time>
</trkpt>
<trkpt lat="37.34079499" lon="-4.34774021">
<ele>1121</ele>
<time>2015-05-12T18:10:00Z</time>
</trkpt>
<trkpt lat="37.34072666" lon="-4.3477653">
<ele>1123</ele>
<time>2015-05-12T18:10:02Z</time>
</trkpt>
<trkpt lat="37.34068881" lon="-4.34779917">
<ele>1125</ele>
<time>2015-05-12T18:10:04Z</time>
</trkpt>
<trkpt lat="37.34061243" lon="-4.3479068">
<ele>1132</ele>
<time>2015-05-12T18:10:06Z</time>
</trkpt>
<trkpt lat="37.34051639" lon="-4.34795971">
<ele>1133</ele>
<time>2015-05-12T18:10:08Z</time>
</trkpt>
<trkpt lat="37.34039234" lon="-4.3479629">
<ele>1132</ele>
<time>2015-05-12T18:10:10Z</time>
</trkpt>
<trkpt lat="37.34026294" lon="-4.34795899">
<ele>1133</ele>
<time>2015-05-12T18:10:12Z</time>
</trkpt>
<trkpt lat="37.34012169" lon="-4.34795346">
<ele>1132</ele>
<time>2015-05-12T18:10:14Z</time>
</trkpt>
<trkpt lat="37.34001339" lon="-4.34793894">
<ele>1128</ele>
<time>2015-05-12T18:10:16Z</time>
</trkpt>
<trkpt lat="37.33991536" lon="-4.34797393">
<ele>1126</ele>
<time>2015-05-12T18:10:18Z</time>
</trkpt>
<trkpt lat="37.33978635" lon="-4.34805786">
<ele>1123</ele>
<time>2015-05-12T18:10:20Z</time>
</trkpt>
<trkpt lat="37.33965097" lon="-4.34817404">
<ele>1120</ele>
<time>2015-05-12T18:10:22Z</time>
</trkpt>
<trkpt lat="37.33959597" lon="-4.34825594">
<ele>1124</ele>
<time>2015-05-12T18:10:24Z</time>
</trkpt>
<trkpt lat="37.33955024" lon="-4.3482958">
<ele>1126</ele>
<time>2015-05-12T18:10:26Z</time>
</trkpt>
<trkpt lat="37.33949331" lon="-4.34840228">
<ele>1125</ele>
<time>2015-05-12T18:10:28Z</time>
</trkpt>
<trkpt lat="37.33945036" lon="-4.34851883">
<ele>1125</ele>
<time>2015-05-12T18:10:30Z</time>
</trkpt>
<trkpt lat="37.33942289" lon="-4.34866263">
<ele>1126</ele>
<time>2015-05-12T18:10:32Z</time>
</trkpt>
<trkpt lat="37.33939282" lon="-4.34875659">
<ele>1125</ele>
<time>2015-05-12T18:10:34Z</time>
</trkpt>
<trkpt lat="37.33935783" lon="-4.34886276">
<ele>1122</ele>
<time>2015-05-12T18:10:36Z</time>
</trkpt>
<trkpt lat="37.33933655" lon="-4.34898954">
<ele>1123</ele>
<time>2015-05-12T18:10:38Z</time>
</trkpt>
<trkpt lat="37.33930367" lon="-4.34909325">
<ele>1122</ele>
<time>2015-05-12T18:10:40Z</time>
</trkpt>
<trkpt lat="37.33925853" lon="-4.3492061">
<ele>1124</ele>
<time>2015-05-12T18:10:42Z</time>
</trkpt>
<trkpt lat="37.33922442" lon="-4.34931759">
<ele>1128</ele>
<time>2015-05-12T18:10:44Z</time>
</trkpt>
<trkpt lat="37.33922471" lon="-4.34942642">
<ele>1131</ele>
<time>2015-05-12T18:10:46Z</time>
</trkpt>
<trkpt lat="37.3393044" lon="-4.34950213">
<ele>1132</ele>
<time>2015-05-12T18:10:48Z</time>
</trkpt>
<trkpt lat="37.3394407" lon="-4.3495693">
<ele>1132</ele>
<time>2015-05-12T18:10:50Z</time>
</trkpt>
<trkpt lat="37.33953367" lon="-4.34966041">
<ele>1132</ele>
<time>2015-05-12T18:10:52Z</time>
</trkpt>
<trkpt lat="37.3395169" lon="-4.3497671">
<ele>1130</ele>
<time>2015-05-12T18:10:54Z</time>
</trkpt>
<trkpt lat="37.33944958" lon="-4.34985108">
<ele>1126</ele>
<time>2015-05-12T18:10:56Z</time>
</trkpt>
<trkpt lat="37.33936309" lon="-4.34995781">
<ele>1122</ele>
<time>2015-05-12T18:10:58Z</time>
</trkpt>
<trkpt lat="37.33926517" lon="-4.350091">
<ele>1119</ele>
<time>2015-05-12T18:11:00Z</time>
</trkpt>
<trkpt lat="37.33916678" lon="-4.35021992">
<ele>1115</ele>
<time>2015-05-12T18:11:02Z</time>
</trkpt>
<trkpt lat="37.33903127" lon="-4.35033391">
<ele>1112</ele>
<time>2015-05-12T18:11:04Z</time>
</trkpt>
<trkpt lat="37.33890361" lon="-4.35044681">
<ele>1113</ele>
<time>2015-05-12T18:11:06Z</time>
</trkpt>
<trkpt lat="37.33881653" lon="-4.35051084">
<ele>1115</ele>
<time>2015-05-12T18:11:08Z</time>
</trkpt>
<trkpt lat="37.33875211" lon="-4.35057818">
<ele>1114</ele>
<time>2015-05-12T18:11:10Z</time>
</trkpt>
<trkpt lat="37.33868853" lon="-4.35065399">
<ele>1112</ele>
<time>2015-05-12T18:11:12Z</time>
</trkpt>
<trkpt lat="37.3386341" lon="-4.35074682">
<ele>1113</ele>
<time>2015-05-12T18:11:14Z</time>
</trkpt>
<trkpt lat="37.33854811" lon="-4.35084044">
<ele>1113</ele>
<time>2015-05-12T18:11:16Z</time>
</trkpt>
<trkpt lat="37.33845166" lon="-4.35095214">
<ele>1115</ele>
<time>2015-05-12T18:11:18Z</time>
</trkpt>
<trkpt lat="37.33838911" lon="-4.35103877">
<ele>1117</ele>
<time>2015-05-12T18:11:20Z</time>
</trkpt>
<trkpt lat="37.33833016" lon="-4.35112179">
<ele>1118</ele>
<time>2015-05-12T18:11:22Z</time>
</trkpt>
<trkpt lat="37.33826341" lon="-4.35119672">
<ele>1118</ele>
<time>2015-05-12T18:11:24Z</time>
</trkpt>
<trkpt lat="37.3381746" lon="-4.35128681">
<ele>1119</ele>
<time>2015-05-12T18:11:26Z</time>
</trkpt>
<trkpt lat="37.33807879" lon="-4.35135926">
<ele>1122</ele>
<time>2015-05-12T18:11:28Z</time>
</trkpt>
<trkpt lat="37.33798576" lon="-4.35140313">
<ele>1120</ele>
<time>2015-05-12T18:11:30Z</time>
</trkpt>
<trkpt lat="37.33788889" lon="-4.35145174">
<ele>1121</ele>
<time>2015-05-12T18:11:32Z</time>
</trkpt>
<trkpt lat="37.3377856" lon="-4.35150791">
<ele>1122</ele>
<time>2015-05-12T18:11:34Z</time>
</trkpt>
<trkpt lat="37.33767543" lon="-4.35154406">
<ele>1124</ele>
<time>2015-05-12T18:11:36Z</time>
</trkpt>
<trkpt lat="37.33757592" lon="-4.3515585">
<ele>1124</ele>
<time>2015-05-12T18:11:38Z</time>
</trkpt>
<trkpt lat="37.3374688" lon="-4.35159218">
<ele>1123</ele>
<time>2015-05-12T18:11:40Z</time>
</trkpt>
<trkpt lat="37.33734761" lon="-4.35162021">
<ele>1125</ele>
<time>2015-05-12T18:11:42Z</time>
</trkpt>
<trkpt lat="37.33722293" lon="-4.35161368">
<ele>1124</ele>
<time>2015-05-12T18:11:44Z</time>
</trkpt>
<trkpt lat="37.33707421" lon="-4.35161044">
<ele>1123</ele>
<time>2015-05-12T18:11:46Z</time>
</trkpt>
<trkpt lat="37.33692949" lon="-4.35162721">
<ele>1123</ele>
<time>2015-05-12T18:11:48Z</time>
</trkpt>
<trkpt lat="37.33679995" lon="-4.35165666">
<ele>1123</ele>
<time>2015-05-12T18:11:50Z</time>
</trkpt>
<trkpt lat="37.33666149" lon="-4.3517009">
<ele>1123</ele>
<time>2015-05-12T18:11:52Z</time>
</trkpt>
<trkpt lat="37.33652093" lon="-4.35176099">
<ele>1124</ele>
<time>2015-05-12T18:11:54Z</time>
</trkpt>
<trkpt lat="37.336382" lon="-4.35179008">
<ele>1123</ele>
<time>2015-05-12T18:11:56Z</time>
</trkpt>
<trkpt lat="37.33623814" lon="-4.35180444">
<ele>1123</ele>
<time>2015-05-12T18:11:58Z</time>
</trkpt>
<trkpt lat="37.33608108" lon="-4.35181401">
<ele>1121</ele>
<time>2015-05-12T18:12:00Z</time>
</trkpt>
<trkpt lat="37.33591346" lon="-4.35181643">
<ele>1121</ele>
<time>2015-05-12T18:12:02Z</time>
</trkpt>
<trkpt lat="37.33574444" lon="-4.35185026">
<ele>1122</ele>
<time>2015-05-12T18:12:04Z</time>
</trkpt>
<trkpt lat="37.33561796" lon="-4.35194241">
<ele>1123</ele>
<time>2015-05-12T18:12:06Z</time>
</trkpt>
<trkpt lat="37.3355668" lon="-4.35209441">
<ele>1125</ele>
<time>2015-05-12T18:12:08Z</time>
</trkpt>
<trkpt lat="37.33556612" lon="-4.35224722">
<ele>1129</ele>
<time>2015-05-12T18:12:10Z</time>
</trkpt>
<trkpt lat="37.33572744" lon="-4.3523295">
<ele>1133</ele>
<time>2015-05-12T18:12:12Z</time>
</trkpt>
<trkpt lat="37.33584265" lon="-4.35245753">
<ele>1137</ele>
<time>2015-05-12T18:12:14Z</time>
</trkpt>
<trkpt lat="37.33582316" lon="-4.35263389">
<ele>1140</ele>
<time>2015-05-12T18:12:16Z</time>
</trkpt>
<trkpt lat="37.33566618" lon="-4.3527558">
<ele>1142</ele>
<time>2015-05-12T18:12:18Z</time>
</trkpt>
<trkpt lat="37.33555986" lon="-4.35276782">
<ele>1147</ele>
<time>2015-05-12T18:12:20Z</time>
</trkpt>
<trkpt lat="37.33549451" lon="-4.35284521">
<ele>1146</ele>
<time>2015-05-12T18:12:22Z</time>
</trkpt>
<trkpt lat="37.33554661" lon="-4.35297293">
<ele>1145</ele>
<time>2015-05-12T18:12:24Z</time>
</trkpt>
<trkpt lat="37.33565618" lon="-4.35309447">
<ele>1146</ele>
<time>2015-05-12T18:12:26Z</time>
</trkpt>
<trkpt lat="37.33588256" lon="-4.35293373">
<ele>1152</ele>
<time>2015-05-12T18:12:28Z</time>
</trkpt>
<trkpt lat="37.3359777" lon="-4.35267492">
<ele>1154</ele>
<time>2015-05-12T18:12:30Z</time>
</trkpt>
<trkpt lat="37.33595998" lon="-4.35237097">
<ele>1156</ele>
<time>2015-05-12T18:12:32Z</time>
</trkpt>
<trkpt lat="37.33581302" lon="-4.35217207">
<ele>1162</ele>
<time>2015-05-12T18:12:34Z</time>
</trkpt>
<trkpt lat="37.33565617" lon="-4.3520796">
<ele>1163</ele>
<time>2015-05-12T18:12:36Z</time>
</trkpt>
<trkpt lat="37.33555795" lon="-4.35213296">
<ele>1164</ele>
<time>2015-05-12T18:12:38Z</time>
</trkpt>
<trkpt lat="37.33551207" lon="-4.35227215">
<ele>1167</ele>
<time>2015-05-12T18:12:40Z</time>
</trkpt>
<trkpt lat="37.33556935" lon="-4.35240836">
<ele>1170</ele>
<time>2015-05-12T18:12:42Z</time>
</trkpt>
<trkpt lat="37.33565003" lon="-4.35251043">
<ele>1174</ele>
<time>2015-05-12T18:12:44Z</time>
</trkpt>
<trkpt lat="37.33574085" lon="-4.35256723">
<ele>1177</ele>
<time>2015-05-12T18:12:46Z</time>
</trkpt>
<trkpt lat="37.3358591" lon="-4.35253965">
<ele>1180</ele>
<time>2015-05-12T18:12:48Z</time>
</trkpt>
<trkpt lat="37.33601045" lon="-4.35246089">
<ele>1183</ele>
<time>2015-05-12T18:12:50Z</time>
</trkpt>
<trkpt lat="37.33618031" lon="-4.35232978">
<ele>1187</ele>
<time>2015-05-12T18:12:52Z</time>
</trkpt>
<trkpt lat="37.33634437" lon="-4.35218503">
<ele>1191</ele>
<time>2015-05-12T18:12:54Z</time>
</trkpt>
<trkpt lat="37.33650502" lon="-4.3520593">
<ele>1194</ele>
<time>2015-05-12T18:12:56Z</time>
</trkpt>
<trkpt lat="37.33667569" lon="-4.35195549">
<ele>1198</ele>
<time>2015-05-12T18:12:58Z</time>
</trkpt>
<trkpt lat="37.33684901" lon="-4.35195471">
<ele>1200</ele>
<time>2015-05-12T18:13:00Z</time>
</trkpt>
<trkpt lat="37.33697899" lon="-4.3520139">
<ele>1200</ele>
<time>2015-05-12T18:13:02Z</time>
</trkpt>
<trkpt lat="37.33698867" lon="-4.35217182">
<ele>1204</ele>
<time>2015-05-12T18:13:04Z</time>
</trkpt>
<trkpt lat="37.33697429" lon="-4.35228409">
<ele>1209</ele>
<time>2015-05-12T18:13:06Z</time>
</trkpt>
<trkpt lat="37.33697347" lon="-4.35234579">
<ele>1211</ele>
<time>2015-05-12T18:13:08Z</time>
</trkpt>
<trkpt lat="37.33690916" lon="-4.35242651">
<ele>1208</ele>
<time>2015-05-12T18:13:10Z</time>
</trkpt>
<trkpt lat="37.33670182" lon="-4.35238153">
<ele>1207</ele>
<time>2015-05-12T18:13:12Z</time>
</trkpt>
<trkpt lat="37.33655036" lon="-4.35211518">
<ele>1213</ele>
<time>2015-05-12T18:13:14Z</time>
</trkpt>
<trkpt lat="37.33656093" lon="-4.35182806">
<ele>1216</ele>
<time>2015-05-12T18:13:16Z</time>
</trkpt>
<trkpt lat="37.33668" lon="-4.35158987">
<ele>1221</ele>
<time>2015-05-12T18:13:18Z</time>
</trkpt>
<trkpt lat="37.33683782" lon="-4.35144741">
<ele>1225</ele>
<time>2015-05-12T18:13:20Z</time>
</trkpt>
<trkpt lat="37.33701377" lon="-4.35144286">
<ele>1229</ele>
<time>2015-05-12T18:13:22Z</time>
</trkpt>
<trkpt lat="37.33715348" lon="-4.35155973">
<ele>1229</ele>
<time>2015-05-12T18:13:24Z</time>
</trkpt>
<trkpt lat="37.33718394" lon="-4.35165829">
<ele>1231</ele>
<time>2015-05-12T18:13:26Z</time>
</trkpt>
<trkpt lat="37.33709085" lon="-4.35175511">
<ele>1230</ele>
<time>2015-05-12T18:13:28Z</time>
</trkpt>
<trkpt lat="37.3369396" lon="-4.35179663">
<ele>1229</ele>
<time>2015-05-12T18:13:30Z</time>
</trkpt>
<trkpt lat="37.33676452" lon="-4.35168011">
<ele>1231</ele>
<time>2015-05-12T18:13:32Z</time>
</trkpt>
<trkpt lat="37.33663361" lon="-4.35143319">
<ele>1232</ele>
<time>2015-05-12T18:13:34Z</time>
</trkpt>
<trkpt lat="37.33662254" lon="-4.35110528">
<ele>1233</ele>
<time>2015-05-12T18:13:36Z</time>
</trkpt>
<trkpt lat="37.33668434" lon="-4.35080216">
<ele>1239</ele>
<time>2015-05-12T18:13:38Z</time>
</trkpt>
<trkpt lat="37.33676644" lon="-4.35062644">
<ele>1243</ele>
<time>2015-05-12T18:13:40Z</time>
</trkpt>
<trkpt lat="37.33695759" lon="-4.35049712">
<ele>1246</ele>
<time>2015-05-12T18:13:42Z</time>
</trkpt>
<trkpt lat="37.33713406" lon="-4.35041685">
<ele>1247</ele>
<time>2015-05-12T18:13:44Z</time>
</trkpt>
<trkpt lat="37.33733237" lon="-4.35040686">
<ele>1248</ele>
<time>2015-05-12T18:13:46Z</time>
</trkpt>
<trkpt lat="37.33743895" lon="-4.35047376">
<ele>1249</ele>
<time>2015-05-12T18:13:48Z</time>
</trkpt>
<trkpt lat="37.33743453" lon="-4.35060121">
<ele>1247</ele>
<time>2015-05-12T18:13:50Z</time>
</trkpt>
<trkpt lat="37.33729964" lon="-4.35072944">
<ele>1245</ele>
<time>2015-05-12T18:13:52Z</time>
</trkpt>
<trkpt lat="37.33712961" lon="-4.35072248">
<ele>1247</ele>
<time>2015-05-12T18:13:54Z</time>
</trkpt>
<trkpt lat="37.33695344" lon="-4.35067042">
<ele>1246</ele>
<time>2015-05-12T18:13:56Z</time>
</trkpt>
<trkpt lat="37.33676108" lon="-4.35059621">
<ele>1246</ele>
<time>2015-05-12T18:13:58Z</time>
</trkpt>
<trkpt lat="37.33658795" lon="-4.35056438">
<ele>1246</ele>
<time>2015-05-12T18:14:00Z</time>
</trkpt>
<trkpt lat="37.3364813" lon="-4.35064434">
<ele>1244</ele>
<time>2015-05-12T18:14:02Z</time>
</trkpt>
<trkpt lat="37.33650848" lon="-4.3507709">
<ele>1245</ele>
<time>2015-05-12T18:14:04Z</time>
</trkpt>
<trkpt lat="37.33661311" lon="-4.35077524">
<ele>1245</ele>
<time>2015-05-12T18:14:06Z</time>
</trkpt>
<trkpt lat="37.33675552" lon="-4.35061343">
<ele>1246</ele>
<time>2015-05-12T18:14:08Z</time>
</trkpt>
<trkpt lat="37.33687063" lon="-4.35034913">
<ele>1246</ele>
<time>2015-05-12T18:14:10Z</time>
</trkpt>
<trkpt lat="37.33701522" lon="-4.35011899">
<ele>1246</ele>
<time>2015-05-12T18:14:12Z</time>
</trkpt>
<trkpt lat="37.33716388" lon="-4.34993635">
<ele>1249</ele>
<time>2015-05-12T18:14:14Z</time>
</trkpt>
<trkpt lat="37.33733085" lon="-4.34977038">
<ele>1252</ele>
<time>2015-05-12T18:14:16Z</time>
</trkpt>
<trkpt lat="37.33745616" lon="-4.3496524">
<ele>1253</ele>
<time>2015-05-12T18:14:18Z</time>
</trkpt>
<trkpt lat="37.33758934" lon="-4.3496098">
<ele>1253</ele>
<time>2015-05-12T18:14:20Z</time>
</trkpt>
<trkpt lat="37.33765835" lon="-4.34976809">
<ele>1252</ele>
<time>2015-05-12T18:14:22Z</time>
</trkpt>
<trkpt lat="37.33762276" lon="-4.34991926">
<ele>1254</ele>
<time>2015-05-12T18:14:24Z</time>
</trkpt>
<trkpt lat="37.33753905" lon="-4.35000268">
<ele>1254</ele>
<time>2015-05-12T18:14:26Z</time>
</trkpt>
<trkpt lat="37.33740468" lon="-4.35005225">
<ele>1249</ele>
<time>2015-05-12T18:14:28Z</time>
</trkpt>
<trkpt lat="37.33722883" lon="-4.35008464">
<ele>1248</ele>
<time>2015-05-12T18:14:30Z</time>
</trkpt>
<trkpt lat="37.3370572" lon="-4.35012885">
<ele>1250</ele>
<time>2015-05-12T18:14:32Z</time>
</trkpt>
<trkpt lat="37.33693032" lon="-4.35017078">
<ele>1250</ele>
<time>2015-05-12T18:14:34Z</time>
</trkpt>
<trkpt lat="37.33679585" lon="-4.35023086">
<ele>1250</ele>
<time>2015-05-12T18:14:36Z</time>
</trkpt>
<trkpt lat="37.33667829" lon="-4.35029348">
<ele>1251</ele>
<time>2015-05-12T18:14:38Z</time>
</trkpt>
<trkpt lat="37.33654214" lon="-4.35033241">
<ele>1252</ele>
<time>2015-05-12T18:14:40Z</time>
</trkpt>
<trkpt lat="37.3363998" lon="-4.35035541">
<ele>1252</ele>
<time>2015-05-12T18:14:42Z</time>
</trkpt>
<trkpt lat="37.33623494" lon="-4.35035874">
<ele>1253</ele>
<time>2015-05-12T18:14:44Z</time>
</trkpt>
<trkpt lat="37.33607242" lon="-4.35036267">
<ele>1254</ele>
<time>2015-05-12T18:14:46Z</time>
</trkpt>
<trkpt lat="37.33592185" lon="-4.35037449">
<ele>1254</ele>
<time>2015-05-12T18:14:48Z</time>
</trkpt>
<trkpt lat="37.33588002" lon="-4.35048775">
<ele>1253</ele>
<time>2015-05-12T18:14:50Z</time>
</trkpt>
<trkpt lat="37.33589661" lon="-4.35060398">
<ele>1251</ele>
<time>2015-05-12T18:14:52Z</time>
</trkpt>
<trkpt lat="37.33599961" lon="-4.35063862">
<ele>1252</ele>
<time>2015-05-12T18:14:54Z</time>
</trkpt>
<trkpt lat="37.33614431" lon="-4.35049153">
<ele>1253</ele>
<time>2015-05-12T18:14:56Z</time>
</trkpt>
<trkpt lat="37.33624411" lon="-4.35023051">
<ele>1255</ele>
<time>2015-05-12T18:14:58Z</time>
</trkpt>
<trkpt lat="37.33632933" lon="-4.3499765">
<ele>1258</ele>
<time>2015-05-12T18:15:00Z</time>
</trkpt>
<trkpt lat="37.33642571" lon="-4.3497576">
<ele>1258</ele>
<time>2015-05-12T18:15:02Z</time>
</trkpt>
<trkpt lat="37.33655148" lon="-4.34950523">
<ele>1258</ele>
<time>2015-05-12T18:15:04Z</time>
</trkpt>
<trkpt lat="37.33669575" lon="-4.34926777">
<ele>1260</ele>
<time>2015-05-12T18:15:06Z</time>
</trkpt>
<trkpt lat="37.33684506" lon="-4.3491007">
<ele>1261</ele>
<time>2015-05-12T18:15:08Z</time>
</trkpt>
<trkpt lat="37.33698954" lon="-4.34901535">
<ele>1264</ele>
<time>2015-05-12T18:15:10Z</time>
</trkpt>
<trkpt lat="37.33711974" lon="-4.349045">
<ele>1264</ele>
<time>2015-05-12T18:15:12Z</time>
</trkpt>
<trkpt lat="37.33712135" lon="-4.34916826">
<ele>1263</ele>
<time>2015-05-12T18:15:14Z</time>
</trkpt>
<trkpt lat="37.33700559" lon="-4.34928553">
<ele>1263</ele>
<time>2015-05-12T18:15:16Z</time>
</trkpt>
<trkpt lat="37.33684497" lon="-4.34933269">
<ele>1262</ele>
<time>2015-05-12T18:15:18Z</time>
</trkpt>
<trkpt lat="37.33668413" lon="-4.34935251">
<ele>1266</ele>
<time>2015-05-12T18:15:20Z</time>
</trkpt>
<trkpt lat="37.33659569" lon="-4.34941226">
<ele>1267</ele>
<time>2015-05-12T18:15:22Z</time>
</trkpt>
<trkpt lat="37.33659051" lon="-4.34953632">
<ele>1268</ele>
<time>2015-05-12T18:15:24Z</time>
</trkpt>
<trkpt lat="37.33665176" lon="-4.34963177">
<ele>1271</ele>
<time>2015-05-12T18:15:26Z</time>
</trkpt>
<trkpt lat="37.33686347" lon="-4.34954627">
<ele>1277</ele>
<time>2015-05-12T18:15:28Z</time>
</trkpt>
<trkpt lat="37.3369661" lon="-4.34931635">
<ele>1280</ele>
<time>2015-05-12T18:15:30Z</time>
</trkpt>
<trkpt lat="37.33698038" lon="-4.34907319">
<ele>1280</ele>
<time>2015-05-12T18:15:32Z</time>
</trkpt>
<trkpt lat="37.33701226" lon="-4.3488112">
<ele>1279</ele>
<time>2015-05-12T18:15:34Z</time>
</trkpt>
<trkpt lat="37.33714371" lon="-4.3485907">
<ele>1279</ele>
<time>2015-05-12T18:15:36Z</time>
</trkpt>
<trkpt lat="37.33729842" lon="-4.34849726">
<ele>1281</ele>
<time>2015-05-12T18:15:38Z</time>
</trkpt>
<trkpt lat="37.33737978" lon="-4.34855182">
<ele>1280</ele>
<time>2015-05-12T18:15:40Z</time>
</trkpt>
<trkpt lat="37.33732948" lon="-4.34866849">
<ele>1280</ele>
<time>2015-05-12T18:15:42Z</time>
</trkpt>
<trkpt lat="37.3371758" lon="-4.34870243">
<ele>1283</ele>
<time>2015-05-12T18:15:44Z</time>
</trkpt>
<trkpt lat="37.33701696" lon="-4.34866008">
<ele>1286</ele>
<time>2015-05-12T18:15:46Z</time>
</trkpt>
<trkpt lat="37.33688407" lon="-4.34868976">
<ele>1287</ele>
<time>2015-05-12T18:15:48Z</time>
</trkpt>
<trkpt lat="37.33678131" lon="-4.34874768">
<ele>1290</ele>
<time>2015-05-12T18:15:50Z</time>
</trkpt>
<trkpt lat="37.33674807" lon="-4.34884581">
<ele>1291</ele>
<time>2015-05-12T18:15:52Z</time>
</trkpt>
<trkpt lat="37.3368599" lon="-4.34889958">
<ele>1289</ele>
<time>2015-05-12T18:15:54Z</time>
</trkpt>
<trkpt lat="37.33699649" lon="-4.3485476">
<ele>1293</ele>
<time>2015-05-12T18:15:56Z</time>
</trkpt>
<trkpt lat="37.33706961" lon="-4.34822723">
<ele>1296</ele>
<time>2015-05-12T18:15:58Z</time>
</trkpt>
<trkpt lat="37.3372235" lon="-4.34805306">
<ele>1296</ele>
<time>2015-05-12T18:16:00Z</time>
</trkpt>
<trkpt lat="37.337375" lon="-4.34808652">
<ele>1299</ele>
<time>2015-05-12T18:16:02Z</time>
</trkpt>
<trkpt lat="37.33743555" lon="-4.34818316">
<ele>1303</ele>
<time>2015-05-12T18:16:04Z</time>
</trkpt>
<trkpt lat="37.33735213" lon="-4.34823857">
<ele>1304</ele>
<time>2015-05-12T18:16:06Z</time>
</trkpt>
<trkpt lat="37.33718809" lon="-4.34825265">
<ele>1304</ele>
<time>2015-05-12T18:16:08Z</time>
</trkpt>
<trkpt lat="37.33701854" lon="-4.3482328">
<ele>1305</ele>
<time>2015-05-12T18:16:10Z</time>
</trkpt>
<trkpt lat="37.33688867" lon="-4.34824783">
<ele>1304</ele>
<time>2015-05-12T18:16:12Z</time>
</trkpt>
<trkpt lat="37.33679122" lon="-4.34832505">
<ele>1306</ele>
<time>2015-05-12T18:16:14Z</time>
</trkpt>
<trkpt lat="37.33670935" lon="-4.34841852">
<ele>1303</ele>
<time>2015-05-12T18:16:16Z</time>
</trkpt>
<trkpt lat="37.3366568" lon="-4.34849927">
<ele>1302</ele>
<time>2015-05-12T18:16:18Z</time>
</trkpt>
<trkpt lat="37.33673912" lon="-4.34865616">
<ele>1302</ele>
<time>2015-05-12T18:16:20Z</time>
</trkpt>
<trkpt lat="37.33685161" lon="-4.34872608">
<ele>1301</ele>
<time>2015-05-12T18:16:22Z</time>
</trkpt>
<trkpt lat="37.33702736" lon="-4.34861953">
<ele>1303</ele>
<time>2015-05-12T18:16:24Z</time>
</trkpt>
<trkpt lat="37.33715402" lon="-4.34838569">
<ele>1305</ele>
<time>2015-05-12T18:16:26Z</time>
</trkpt>
<trkpt lat="37.33724768" lon="-4.34811937">
<ele>1305</ele>
<time>2015-05-12T18:16:28Z</time>
</trkpt>
<trkpt lat="37.33735479" lon="-4.34787689">
<ele>1303</ele>
<time>2015-05-12T18:16:30Z</time>
</trkpt>
<trkpt lat="37.33743629" lon="-4.34762428">
<ele>1301</ele>
<time>2015-05-12T18:16:32Z</time>
</trkpt>
<trkpt lat="37.33752281" lon="-4.34732394">
<ele>1299</ele>
<time>2015-05-12T18:16:34Z</time>
</trkpt>
<trkpt lat="37.3376722" lon="-4.34709929">
<ele>1299</ele>
<time>2015-05-12T18:16:36Z</time>
</trkpt>
<trkpt lat="37.33780158" lon="-4.34689365">
<ele>1302</ele>
<time>2015-05-12T18:16:38Z</time>
</trkpt>
<trkpt lat="37.33792615" lon="-4.34668306">
<ele>1303</ele>
<time>2015-05-12T18:16:40Z</time>
</trkpt>
<trkpt lat="37.33804514" lon="-4.3464378">
<ele>1303</ele>
<time>2015-05-12T18:16:42Z</time>
</trkpt>
<trkpt lat="37.33814918" lon="-4.34616339">
<ele>1305</ele>
<time>2015-05-12T18:16:44Z</time>
</trkpt>
<trkpt lat="37.3382831" lon="-4.34593587">
<ele>1305</ele>
<time>2015-05-12T18:16:46Z</time>
</trkpt>
<trkpt lat="37.33843691" lon="-4.34575813">
<ele>1305</ele>
<time>2015-05-12T18:16:48Z</time>
</trkpt>
<trkpt lat="37.3385814" lon="-4.3455538">
<ele>1305</ele>
<time>2015-05-12T18:16:50Z</time>
</trkpt>
<trkpt lat="37.33872535" lon="-4.34533003">
<ele>1306</ele>
<time>2015-05-12T18:16:52Z</time>
</trkpt>
<trkpt lat="37.33889272" lon="-4.3451668">
<ele>1307</ele>
<time>2015-05-12T18:16:54Z</time>
</trkpt>
<trkpt lat="37.33906079" lon="-4.34515758">
<ele>1308</ele>
<time>2015-05-12T18:16:56Z</time>
</trkpt>
<trkpt lat="37.33918935" lon="-4.34526738">
<ele>1307</ele>
<time>2015-05-12T18:16:58Z</time>
</trkpt>
<trkpt lat="37.33922841" lon="-4.34535657">
<ele>1310</ele>
<time>2015-05-12T18:17:00Z</time>
</trkpt>
<trkpt lat="37.33922373" lon="-4.34543795">
<ele>1309</ele>
<time>2015-05-12T18:17:02Z</time>
</trkpt>
<trkpt lat="37.33917869" lon="-4.34553678">
<ele>1306</ele>
<time>2015-05-12T18:17:04Z</time>
</trkpt>
<trkpt lat="37.3390571" lon="-4.34561822">
<ele>1305</ele>
<time>2015-05-12T18:17:06Z</time>
</trkpt>
<trkpt lat="37.33889033" lon="-4.34565934">
<ele>1306</ele>
<time>2015-05-12T18:17:08Z</time>
</trkpt>
<trkpt lat="37.33875886" lon="-4.34570266">
<ele>1307</ele>
<time>2015-05-12T18:17:10Z</time>
</trkpt>
<trkpt lat="37.3386249" lon="-4.34577003">
<ele>1307</ele>
<time>2015-05-12T18:17:12Z</time>
</trkpt>
<trkpt lat="37.33852749" lon="-4.34586818">
<ele>1307</ele>
<time>2015-05-12T18:17:14Z</time>
</trkpt>
<trkpt lat="37.33846931" lon="-4.34601055">
<ele>1311</ele>
<time>2015-05-12T18:17:16Z</time>
</trkpt>
<trkpt lat="37.33848828" lon="-4.34611376">
<ele>1311</ele>
<time>2015-05-12T18:17:18Z</time>
</trkpt>
<trkpt lat="37.3386671" lon="-4.34610035">
<ele>1306</ele>
<time>2015-05-12T18:17:20Z</time>
</trkpt>
<trkpt lat="37.33883025" lon="-4.34591526">
<ele>1303</ele>
<time>2015-05-12T18:17:22Z</time>
</trkpt>
<trkpt lat="37.33892262" lon="-4.3456454">
<ele>1303</ele>
<time>2015-05-12T18:17:24Z</time>
</trkpt>
<trkpt lat="37.33899203" lon="-4.34534924">
<ele>1300</ele>
<time>2015-05-12T18:17:26Z</time>
</trkpt>
<trkpt lat="37.33912838" lon="-4.34510933">
<ele>1298</ele>
<time>2015-05-12T18:17:28Z</time>
</trkpt>
<trkpt lat="37.33929279" lon="-4.3449452">
<ele>1296</ele>
<time>2015-05-12T18:17:30Z</time>
</trkpt>
<trkpt lat="37.33945856" lon="-4.34493473">
<ele>1293</ele>
<time>2015-05-12T18:17:32Z</time>
</trkpt>
<trkpt lat="37.3395683" lon="-4.34505947">
<ele>1292</ele>
<time>2015-05-12T18:17:34Z</time>
</trkpt>
<trkpt lat="37.33956273" lon="-4.34517734">
<ele>1292</ele>
<time>2015-05-12T18:17:36Z</time>
</trkpt>
<trkpt lat="37.33948884" lon="-4.34526705">
<ele>1291</ele>
<time>2015-05-12T18:17:38Z</time>
</trkpt>
<trkpt lat="37.33938042" lon="-4.34536112">
<ele>1290</ele>
<time>2015-05-12T18:17:40Z</time>
</trkpt>
<trkpt lat="37.33926674" lon="-4.34545478">
<ele>1289</ele>
<time>2015-05-12T18:17:42Z</time>
</trkpt>
<trkpt lat="37.33915371" lon="-4.34555207">
<ele>1288</ele>
<time>2015-05-12T18:17:44Z</time>
</trkpt>
<trkpt lat="37.33904354" lon="-4.34566229">
<ele>1287</ele>
<time>2015-05-12T18:17:46Z</time>
</trkpt>
<trkpt lat="37.33892849" lon="-4.34574606">
<ele>1287</ele>
<time>2015-05-12T18:17:48Z</time>
</trkpt>
<trkpt lat="37.33880818" lon="-4.34583945">
<ele>1286</ele>
<time>2015-05-12T18:17:50Z</time>
</trkpt>
<trkpt lat="37.33869311" lon="-4.34596114">
<ele>1286</ele>
<time>2015-05-12T18:17:52Z</time>
</trkpt>
<trkpt lat="37.33859662" lon="-4.34610521">
<ele>1286</ele>
<time>2015-05-12T18:17:54Z</time>
</trkpt>
<trkpt lat="37.3385365" lon="-4.34623443">
<ele>1287</ele>
<time>2015-05-12T18:17:56Z</time>
</trkpt>
<trkpt lat="37.33846517" lon="-4.3463615">
<ele>1289</ele>
<time>2015-05-12T18:17:58Z</time>
</trkpt>
<trkpt lat="37.33841495" lon="-4.34650874">
<ele>1291</ele>
<time>2015-05-12T18:18:00Z</time>
</trkpt>
<trkpt lat="37.33839088" lon="-4.34660896">
<ele>1295</ele>
<time>2015-05-12T18:18:02Z</time>
</trkpt>
<trkpt lat="37.33836388" lon="-4.34667852">
<ele>1297</ele>
<time>2015-05-12T18:18:04Z</time>
</trkpt>
<trkpt lat="37.33834307" lon="-4.34674933">
<ele>1298</ele>
<time>2015-05-12T18:18:06Z</time>
</trkpt>
<trkpt lat="37.33835584" lon="-4.34683261">
<ele>1297</ele>
<time>2015-05-12T18:18:08Z</time>
</trkpt>
<trkpt lat="37.3383653" lon="-4.34691423">
<ele>1297</ele>
<time>2015-05-12T18:18:10Z</time>
</trkpt>
<trkpt lat="37.33835924" lon="-4.34703589">
<ele>1297</ele>
<time>2015-05-12T18:18:12Z</time>
</trkpt>
<trkpt lat="37.33831729" lon="-4.34714979">
<ele>1295</ele>
<time>2015-05-12T18:18:14Z</time>
</trkpt>
<trkpt lat="37.33822627" lon="-4.34723894">
<ele>1296</ele>
<time>2015-05-12T18:18:16Z</time>
</trkpt>
<trkpt lat="37.33813849" lon="-4.34731648">
<ele>1292</ele>
<time>2015-05-12T18:18:18Z</time>
</trkpt>
<trkpt lat="37.33804673" lon="-4.34741918">
<ele>1287</ele>
<time>2015-05-12T18:18:20Z</time>
</trkpt>
<trkpt lat="37.33795682" lon="-4.34755393">
<ele>1290</ele>
<time>2015-05-12T18:18:22Z</time>
</trkpt>
<trkpt lat="37.33789838" lon="-4.3476465">
<ele>1289</ele>
<time>2015-05-12T18:18:24Z</time>
</trkpt>
<trkpt lat="37.33782144" lon="-4.34773357">
<ele>1287</ele>
<time>2015-05-12T18:18:26Z</time>
</trkpt>
<trkpt lat="37.3376936" lon="-4.34783794">
<ele>1287</ele>
<time>2015-05-12T18:18:28Z</time>
</trkpt>
<trkpt lat="37.33758935" lon="-4.34792517">
<ele>1288</ele>
<time>2015-05-12T18:18:30Z</time>
</trkpt>
<trkpt lat="37.33745797" lon="-4.34797015">
<ele>1288</ele>
<time>2015-05-12T18:18:32Z</time>
</trkpt>
<trkpt lat="37.33733689" lon="-4.3479921">
<ele>1290</ele>
<time>2015-05-12T18:18:34Z</time>
</trkpt>
<trkpt lat="37.33721365" lon="-4.34803261">
<ele>1291</ele>
<time>2015-05-12T18:18:36Z</time>
</trkpt>
<trkpt lat="37.33708219" lon="-4.34809805">
<ele>1291</ele>
<time>2015-05-12T18:18:38Z</time>
</trkpt>
<trkpt lat="37.33695183" lon="-4.34815915">
<ele>1292</ele>
<time>2015-05-12T18:18:40Z</time>
</trkpt>
<trkpt lat="37.33681986" lon="-4.34820647">
<ele>1295</ele>
<time>2015-05-12T18:18:42Z</time>
</trkpt>
<trkpt lat="37.33671176" lon="-4.3482568">
<ele>1296</ele>
<time>2015-05-12T18:18:44Z</time>
</trkpt>
<trkpt lat="37.33662471" lon="-4.34832529">
<ele>1300</ele>
<time>2015-05-12T18:18:46Z</time>
</trkpt>
<trkpt lat="37.33656883" lon="-4.34839384">
<ele>1302</ele>
<time>2015-05-12T18:18:48Z</time>
</trkpt>
<trkpt lat="37.33653803" lon="-4.34845924">
<ele>1305</ele>
<time>2015-05-12T18:18:50Z</time>
</trkpt>
<trkpt lat="37.33654801" lon="-4.34852716">
<ele>1306</ele>
<time>2015-05-12T18:18:52Z</time>
</trkpt>
<trkpt lat="37.33663377" lon="-4.34857175">
<ele>1304</ele>
<time>2015-05-12T18:18:54Z</time>
</trkpt>
<trkpt lat="37.3367785" lon="-4.34857167">
<ele>1303</ele>
<time>2015-05-12T18:18:56Z</time>
</trkpt>
<trkpt lat="37.33691137" lon="-4.34860146">
<ele>1303</ele>
<time>2015-05-12T18:18:58Z</time>
</trkpt>
<trkpt lat="37.33689112" lon="-4.34868428">
<ele>1301</ele>
<time>2015-05-12T18:19:00Z</time>
</trkpt>
<trkpt lat="37.33677814" lon="-4.34871356">
<ele>1299</ele>
<time>2015-05-12T18:19:02Z</time>
</trkpt>
<trkpt lat="37.33665369" lon="-4.34865872">
<ele>1301</ele>
<time>2015-05-12T18:19:04Z</time>
</trkpt>
<trkpt lat="37.33647032" lon="-4.34857595">
<ele>1301</ele>
<time>2015-05-12T18:19:06Z</time>
</trkpt>
<trkpt lat="37.33632917" lon="-4.34857546">
<ele>1299</ele>
<time>2015-05-12T18:19:08Z</time>
</trkpt>
<trkpt lat="37.33621738" lon="-4.34864639">
<ele>1298</ele>
<time>2015-05-12T18:19:10Z</time>
</trkpt>
<trkpt lat="37.33621285" lon="-4.34871578">
<ele>1295</ele>
<time>2015-05-12T18:19:12Z</time>
</trkpt>
<trkpt lat="37.33637811" lon="-4.34868957">
<ele>1291</ele>
<time>2015-05-12T18:19:14Z</time>
</trkpt>
<trkpt lat="37.33653345" lon="-4.3485302">
<ele>1289</ele>
<time>2015-05-12T18:19:16Z</time>
</trkpt>
<trkpt lat="37.33668597" lon="-4.34835723">
<ele>1288</ele>
<time>2015-05-12T18:19:18Z</time>
</trkpt>
<trkpt lat="37.33686405" lon="-4.34822358">
<ele>1284</ele>
<time>2015-05-12T18:19:20Z</time>
</trkpt>
<trkpt lat="37.33703899" lon="-4.34811039">
<ele>1284</ele>
<time>2015-05-12T18:19:22Z</time>
</trkpt>
<trkpt lat="37.33720503" lon="-4.34800533">
<ele>1282</ele>
<time>2015-05-12T18:19:24Z</time>
</trkpt>
<trkpt lat="37.33730658" lon="-4.3480538">
<ele>1278</ele>
<time>2015-05-12T18:19:26Z</time>
</trkpt>
<trkpt lat="37.33731215" lon="-4.34819342">
<ele>1276</ele>
<time>2015-05-12T18:19:28Z</time>
</trkpt>
<trkpt lat="37.33723045" lon="-4.34830386">
<ele>1273</ele>
<time>2015-05-12T18:19:30Z</time>
</trkpt>
<trkpt lat="37.33713003" lon="-4.34838688">
<ele>1271</ele>
<time>2015-05-12T18:19:32Z</time>
</trkpt>
<trkpt lat="37.33698815" lon="-4.34848121">
<ele>1270</ele>
<time>2015-05-12T18:19:34Z</time>
</trkpt>
<trkpt lat="37.33686481" lon="-4.34857142">
<ele>1271</ele>
<time>2015-05-12T18:19:36Z</time>
</trkpt>
<trkpt lat="37.33676482" lon="-4.34866714">
<ele>1273</ele>
<time>2015-05-12T18:19:38Z</time>
</trkpt>
<trkpt lat="37.33664572" lon="-4.34873962">
<ele>1275</ele>
<time>2015-05-12T18:19:40Z</time>
</trkpt>
<trkpt lat="37.33652788" lon="-4.34878531">
<ele>1278</ele>
<time>2015-05-12T18:19:42Z</time>
</trkpt>
<trkpt lat="37.33647471" lon="-4.3488578">
<ele>1279</ele>
<time>2015-05-12T18:19:44Z</time>
</trkpt>
<trkpt lat="37.3365814" lon="-4.34892949">
<ele>1283</ele>
<time>2015-05-12T18:19:46Z</time>
</trkpt>
<trkpt lat="37.33663544" lon="-4.34900878">
<ele>1282</ele>
<time>2015-05-12T18:19:48Z</time>
</trkpt>
<trkpt lat="37.33663822" lon="-4.34914944">
<ele>1282</ele>
<time>2015-05-12T18:19:50Z</time>
</trkpt>
<trkpt lat="37.33660995" lon="-4.34931494">
<ele>1282</ele>
<time>2015-05-12T18:19:52Z</time>
</trkpt>
<trkpt lat="37.33663809" lon="-4.34946305">
<ele>1282</ele>
<time>2015-05-12T18:19:54Z</time>
</trkpt>
<trkpt lat="37.33667743" lon="-4.34957462">
<ele>1284</ele>
<time>2015-05-12T18:19:56Z</time>
</trkpt>
<trkpt lat="37.33677305" lon="-4.34963501">
<ele>1288</ele>
<time>2015-05-12T18:19:58Z</time>
</trkpt>
<trkpt lat="37.33690794" lon="-4.34968645">
<ele>1289</ele>
<time>2015-05-12T18:20:00Z</time>
</trkpt>
<trkpt lat="37.33705497" lon="-4.34974365">
<ele>1291</ele>
<time>2015-05-12T18:20:02Z</time>
</trkpt>
<trkpt lat="37.33719813" lon="-4.34979892">
<ele>1292</ele>
<time>2015-05-12T18:20:04Z</time>
</trkpt>
<trkpt lat="37.33730364" lon="-4.34989679">
<ele>1293</ele>
<time>2015-05-12T18:20:06Z</time>
</trkpt>
<trkpt lat="37.33733047" lon="-4.3500431">
<ele>1294</ele>
<time>2015-05-12T18:20:08Z</time>
</trkpt>
<trkpt lat="37.33724138" lon="-4.35010653">
<ele>1295</ele>
<time>2015-05-12T18:20:10Z</time>
</trkpt>
<trkpt lat="37.33711457" lon="-4.35008559">
<ele>1297</ele>
<time>2015-05-12T18:20:12Z</time>
</trkpt>
<trkpt lat="37.33693958" lon="-4.34994238">
<ele>1301</ele>
<time>2015-05-12T18:20:14Z</time>
</trkpt>
<trkpt lat="37.33680356" lon="-4.34969074">
<ele>1304</ele>
<time>2015-05-12T18:20:16Z</time>
</trkpt>
<trkpt lat="37.33675333" lon="-4.34936059">
<ele>1306</ele>
<time>2015-05-12T18:20:18Z</time>
</trkpt>
<trkpt lat="37.3368507" lon="-4.34904491">
<ele>1308</ele>
<time>2015-05-12T18:20:20Z</time>
</trkpt>
<trkpt lat="37.3370002" lon="-4.34879552">
<ele>1311</ele>
<time>2015-05-12T18:20:22Z</time>
</trkpt>
<trkpt lat="37.33721254" lon="-4.34866381">
<ele>1312</ele>
<time>2015-05-12T18:20:24Z</time>
</trkpt>
<trkpt lat="37.33741689" lon="-4.34861139">
<ele>1314</ele>
<time>2015-05-12T18:20:26Z</time>
</trkpt>
<trkpt lat="37.33760857" lon="-4.34864541">
<ele>1316</ele>
<time>2015-05-12T18:20:28Z</time>
</trkpt>
<trkpt lat="37.33769157" lon="-4.34865438">
<ele>1318</ele>
<time>2015-05-12T18:20:30Z</time>
</trkpt>
<trkpt lat="37.3377206" lon="-4.34873372">
<ele>1317</ele>
<time>2015-05-12T18:20:32Z</time>
</trkpt>
<trkpt lat="37.33763428" lon="-4.34881666">
<ele>1315</ele>
<time>2015-05-12T18:20:34Z</time>
</trkpt>
<trkpt lat="37.33752089" lon="-4.34887616">
<ele>1317</ele>
<time>2015-05-12T18:20:36Z</time>
</trkpt>
<trkpt lat="37.3373842" lon="-4.34886535">
<ele>1320</ele>
<time>2015-05-12T18:20:38Z</time>
</trkpt>
<trkpt lat="37.33726879" lon="-4.34881567">
<ele>1323</ele>
<time>2015-05-12T18:20:40Z</time>
</trkpt>
<trkpt lat="37.33713689" lon="-4.3486321">
<ele>1324</ele>
<time>2015-05-12T18:20:42Z</time>
</trkpt>
<trkpt lat="37.33702502" lon="-4.34838229">
<ele>1325</ele>
<time>2015-05-12T18:20:44Z</time>
</trkpt>
<trkpt lat="37.33696132" lon="-4.3480801">
<ele>1329</ele>
<time>2015-05-12T18:20:46Z</time>
</trkpt>
<trkpt lat="37.33697541" lon="-4.34776168">
<ele>1332</ele>
<time>2015-05-12T18:20:48Z</time>
</trkpt>
<trkpt lat="37.33710592" lon="-4.34753162">
<ele>1334</ele>
<time>2015-05-12T18:20:50Z</time>
</trkpt>
<trkpt lat="37.33727424" lon="-4.34738603">
<ele>1337</ele>
<time>2015-05-12T18:20:52Z</time>
</trkpt>
<trkpt lat="37.3374411" lon="-4.3473368">
<ele>1341</ele>
<time>2015-05-12T18:20:54Z</time>
</trkpt>
<trkpt lat="37.33755966" lon="-4.34736269">
<ele>1346</ele>
<time>2015-05-12T18:20:56Z</time>
</trkpt>
<trkpt lat="37.33759125" lon="-4.34743345">
<ele>1345</ele>
<time>2015-05-12T18:20:58Z</time>
</trkpt>
<trkpt lat="37.33754077" lon="-4.34754801">
<ele>1346</ele>
<time>2015-05-12T18:21:00Z</time>
</trkpt>
<trkpt lat="37.33744539" lon="-4.34762537">
<ele>1349</ele>
<time>2015-05-12T18:21:02Z</time>
</trkpt>
<trkpt lat="37.33728782" lon="-4.34761681">
<ele>1352</ele>
<time>2015-05-12T18:21:04Z</time>
</trkpt>
<trkpt lat="37.33713095" lon="-4.34749146">
<ele>1355</ele>
<time>2015-05-12T18:21:06Z</time>
</trkpt>
<trkpt lat="37.33701525" lon="-4.34721122">
<ele>1355</ele>
<time>2015-05-12T18:21:08Z</time>
</trkpt>
<trkpt lat="37.33702391" lon="-4.34686654">
<ele>1357</ele>
<time>2015-05-12T18:21:10Z</time>
</trkpt>
<trkpt lat="37.33715635" lon="-4.34658609">
<ele>1359</ele>
<time>2015-05-12T18:21:12Z</time>
</trkpt>
<trkpt lat="37.33732602" lon="-4.34646467">
<ele>1363</ele>
<time>2015-05-12T18:21:14Z</time>
</trkpt>
<trkpt lat="37.33743577" lon="-4.34650037">
<ele>1370</ele>
<time>2015-05-12T18:21:16Z</time>
</trkpt>
<trkpt lat="37.33753281" lon="-4.34658019">
<ele>1372</ele>
<time>2015-05-12T18:21:18Z</time>
</trkpt>
<trkpt lat="37.33758483" lon="-4.34666279">
<ele>1375</ele>
<time>2015-05-12T18:21:20Z</time>
</trkpt>
<trkpt lat="37.33759686" lon="-4.346783">
<ele>1378</ele>
<time>2015-05-12T18:21:22Z</time>
</trkpt>
<trkpt lat="37.33757467" lon="-4.34689215">
<ele>1380</ele>
<time>2015-05-12T18:21:24Z</time>
</trkpt>
<trkpt lat="37.33753054" lon="-4.34697869">
<ele>1380</ele>
<time>2015-05-12T18:21:26Z</time>
</trkpt>
<trkpt lat="37.33738798" lon="-4.34703316">
<ele>1383</ele>
<time>2015-05-12T18:21:28Z</time>
</trkpt>
<trkpt lat="37.33723394" lon="-4.3468938">
<ele>1382</ele>
<time>2015-05-12T18:21:30Z</time>
</trkpt>
<trkpt lat="37.3371162" lon="-4.34660854">
<ele>1383</ele>
<time>2015-05-12T18:21:32Z</time>
</trkpt>
<trkpt lat="37.33711838" lon="-4.3462487">
<ele>1383</ele>
<time>2015-05-12T18:21:34Z</time>
</trkpt>
<trkpt lat="37.33723412" lon="-4.34595732">
<ele>1386</ele>
<time>2015-05-12T18:21:36Z</time>
</trkpt>
<trkpt lat="37.33740783" lon="-4.34579466">
<ele>1389</ele>
<time>2015-05-12T18:21:38Z</time>
</trkpt>
<trkpt lat="37.33756005" lon="-4.34574093">
<ele>1389</ele>
<time>2015-05-12T18:21:40Z</time>
</trkpt>
<trkpt lat="37.33769286" lon="-4.34578889">
<ele>1390</ele>
<time>2015-05-12T18:21:42Z</time>
</trkpt>
<trkpt lat="37.33776247" lon="-4.3458885">
<ele>1393</ele>
<time>2015-05-12T18:21:44Z</time>
</trkpt>
<trkpt lat="37.33780714" lon="-4.34598575">
<ele>1394</ele>
<time>2015-05-12T18:21:46Z</time>
</trkpt>
<trkpt lat="37.3378539" lon="-4.34607752">
<ele>1394</ele>
<time>2015-05-12T18:21:48Z</time>
</trkpt>
<trkpt lat="37.33783042" lon="-4.34620802">
<ele>1394</ele>
<time>2015-05-12T18:21:50Z</time>
</trkpt>
<trkpt lat="37.3377662" lon="-4.34633677">
<ele>1398</ele>
<time>2015-05-12T18:21:52Z</time>
</trkpt>
<trkpt lat="37.33771077" lon="-4.34642071">
<ele>1401</ele>
<time>2015-05-12T18:21:54Z</time>
</trkpt>
<trkpt lat="37.33767054" lon="-4.34648834">
<ele>1401</ele>
<time>2015-05-12T18:21:56Z</time>
</trkpt>
<trkpt lat="37.33763026" lon="-4.34657153">
<ele>1398</ele>
<time>2015-05-12T18:21:58Z</time>
</trkpt>
<trkpt lat="37.3374878" lon="-4.34666187">
<ele>1395</ele>
<time>2015-05-12T18:22:00Z</time>
</trkpt>
<trkpt lat="37.33732895" lon="-4.34673796">
<ele>1392</ele>
<time>2015-05-12T18:22:02Z</time>
</trkpt>
<trkpt lat="37.33725021" lon="-4.34680204">
<ele>1391</ele>
<time>2015-05-12T18:22:04Z</time>
</trkpt>
<trkpt lat="37.33718973" lon="-4.34686841">
<ele>1388</ele>
<time>2015-05-12T18:22:06Z</time>
</trkpt>
<trkpt lat="37.33724348" lon="-4.34698419">
<ele>1386</ele>
<time>2015-05-12T18:22:08Z</time>
</trkpt>
<trkpt lat="37.33735274" lon="-4.34705745">
<ele>1381</ele>
<time>2015-05-12T18:22:10Z</time>
</trkpt>
<trkpt lat="37.33752995" lon="-4.34687458">
<ele>1380</ele>
<time>2015-05-12T18:22:12Z</time>
</trkpt>
<trkpt lat="37.33765148" lon="-4.3466315">
<ele>1376</ele>
<time>2015-05-12T18:22:14Z</time>
</trkpt>
<trkpt lat="37.33780629" lon="-4.34640372">
<ele>1374</ele>
<time>2015-05-12T18:22:16Z</time>
</trkpt>
<trkpt lat="37.33797755" lon="-4.34617368">
<ele>1374</ele>
<time>2015-05-12T18:22:18Z</time>
</trkpt>
<trkpt lat="37.33808822" lon="-4.34595496">
<ele>1377</ele>
<time>2015-05-12T18:22:20Z</time>
</trkpt>
<trkpt lat="37.33820772" lon="-4.34572571">
<ele>1377</ele>
<time>2015-05-12T18:22:22Z</time>
</trkpt>
<trkpt lat="37.3383076" lon="-4.34546449">
<ele>1377</ele>
<time>2015-05-12T18:22:24Z</time>
</trkpt>
<trkpt lat="37.33840912" lon="-4.34518248">
<ele>1377</ele>
<time>2015-05-12T18:22:26Z</time>
</trkpt>
<trkpt lat="37.33851684" lon="-4.34491944">
<ele>1377</ele>
<time>2015-05-12T18:22:28Z</time>
</trkpt>
<trkpt lat="37.33865039" lon="-4.34469198">
<ele>1378</ele>
<time>2015-05-12T18:22:30Z</time>
</trkpt>
<trkpt lat="37.3387968" lon="-4.3445209">
<ele>1378</ele>
<time>2015-05-12T18:22:32Z</time>
</trkpt>
<trkpt lat="37.33896579" lon="-4.34441387">
<ele>1378</ele>
<time>2015-05-12T18:22:34Z</time>
</trkpt>
<trkpt lat="37.33913334" lon="-4.34440444">
<ele>1379</ele>
<time>2015-05-12T18:22:36Z</time>
</trkpt>
<trkpt lat="37.33926574" lon="-4.34441667">
<ele>1379</ele>
<time>2015-05-12T18:22:38Z</time>
</trkpt>
<trkpt lat="37.33937245" lon="-4.34448228">
<ele>1378</ele>
<time>2015-05-12T18:22:40Z</time>
</trkpt>
<trkpt lat="37.33936648" lon="-4.34458512">
<ele>1376</ele>
<time>2015-05-12T18:22:42Z</time>
</trkpt>
<trkpt lat="37.33930444" lon="-4.34469857">
<ele>1375</ele>
<time>2015-05-12T18:22:44Z</time>
</trkpt>
<trkpt lat="37.33920592" lon="-4.34479354">
<ele>1375</ele>
<time>2015-05-12T18:22:46Z</time>
</trkpt>
<trkpt lat="37.33912008" lon="-4.34480607">
<ele>1376</ele>
<time>2015-05-12T18:22:48Z</time>
</trkpt>
<trkpt lat="37.33898639" lon="-4.34482745">
<ele>1375</ele>
<time>2015-05-12T18:22:50Z</time>
</trkpt>
<trkpt lat="37.33885746" lon="-4.34483922">
<ele>1374</ele>
<time>2015-05-12T18:22:52Z</time>
</trkpt>
<trkpt lat="37.33879191" lon="-4.34489738">
<ele>1373</ele>
<time>2015-05-12T18:22:54Z</time>
</trkpt>
<trkpt lat="37.3387959" lon="-4.34502201">
<ele>1376</ele>
<time>2015-05-12T18:22:56Z</time>
</trkpt>
<trkpt lat="37.33884089" lon="-4.34512956">
<ele>1375</ele>
<time>2015-05-12T18:22:58Z</time>
</trkpt>
<trkpt lat="37.33890682" lon="-4.34523094">
<ele>1376</ele>
<time>2015-05-12T18:23:00Z</time>
</trkpt>
<trkpt lat="37.33893382" lon="-4.3453038">
<ele>1377</ele>
<time>2015-05-12T18:23:02Z</time>
</trkpt>
<trkpt lat="37.33897304" lon="-4.34539892">
<ele>1375</ele>
<time>2015-05-12T18:23:04Z</time>
</trkpt>
<trkpt lat="37.33898956" lon="-4.34549526">
<ele>1370</ele>
<time>2015-05-12T18:23:06Z</time>
</trkpt>
<trkpt lat="37.33897911" lon="-4.34559668">
<ele>1370</ele>
<time>2015-05-12T18:23:08Z</time>
</trkpt>
<trkpt lat="37.33898516" lon="-4.34572844">
<ele>1369</ele>
<time>2015-05-12T18:23:10Z</time>
</trkpt>
<trkpt lat="37.33895987" lon="-4.34583466">
<ele>1368</ele>
<time>2015-05-12T18:23:12Z</time>
</trkpt>
<trkpt lat="37.33891378" lon="-4.34594579">
<ele>1366</ele>
<time>2015-05-12T18:23:14Z</time>
</trkpt>
<trkpt lat="37.33883153" lon="-4.34604311">
<ele>1365</ele>
<time>2015-05-12T18:23:16Z</time>
</trkpt>
<trkpt lat="37.33875808" lon="-4.3461417">
<ele>1364</ele>
<time>2015-05-12T18:23:18Z</time>
</trkpt>
<trkpt lat="37.33867417" lon="-4.34625416">
<ele>1363</ele>
<time>2015-05-12T18:23:20Z</time>
</trkpt>
<trkpt lat="37.33857163" lon="-4.34637537">
<ele>1362</ele>
<time>2015-05-12T18:23:22Z</time>
</trkpt>
<trkpt lat="37.33846508" lon="-4.3464955">
<ele>1362</ele>
<time>2015-05-12T18:23:24Z</time>
</trkpt>
<trkpt lat="37.33834621" lon="-4.34661325">
<ele>1362</ele>
<time>2015-05-12T18:23:26Z</time>
</trkpt>
<trkpt lat="37.33822198" lon="-4.34672966">
<ele>1361</ele>
<time>2015-05-12T18:23:28Z</time>
</trkpt>
<trkpt lat="37.3381224" lon="-4.3468217">
<ele>1358</ele>
<time>2015-05-12T18:23:30Z</time>
</trkpt>
<trkpt lat="37.33799828" lon="-4.34692242">
<ele>1355</ele>
<time>2015-05-12T18:23:32Z</time>
</trkpt>
<trkpt lat="37.33787501" lon="-4.34703987">
<ele>1352</ele>
<time>2015-05-12T18:23:34Z</time>
</trkpt>
<trkpt lat="37.33775286" lon="-4.34713684">
<ele>1350</ele>
<time>2015-05-12T18:23:36Z</time>
</trkpt>
<trkpt lat="37.33761725" lon="-4.34721726">
<ele>1349</ele>
<time>2015-05-12T18:23:38Z</time>
</trkpt>
<trkpt lat="37.33747315" lon="-4.34729133">
<ele>1347</ele>
<time>2015-05-12T18:23:40Z</time>
</trkpt>
<trkpt lat="37.33734345" lon="-4.34736603">
<ele>1344</ele>
<time>2015-05-12T18:23:42Z</time>
</trkpt>
<trkpt lat="37.33721031" lon="-4.34742346">
<ele>1341</ele>
<time>2015-05-12T18:23:44Z</time>
</trkpt>
<trkpt lat="37.33703344" lon="-4.34748871">
<ele>1340</ele>
<time>2015-05-12T18:23:46Z</time>
</trkpt>
<trkpt lat="37.33690754" lon="-4.34756585">
<ele>1338</ele>
<time>2015-05-12T18:23:48Z</time>
</trkpt>
<trkpt lat="37.33680159" lon="-4.34764104">
<ele>1336</ele>
<time>2015-05-12T18:23:50Z</time>
</trkpt>
<trkpt lat="37.33669714" lon="-4.34774738">
<ele>1334</ele>
<time>2015-05-12T18:23:52Z</time>
</trkpt>
<trkpt lat="37.33660853" lon="-4.34786254">
<ele>1332</ele>
<time>2015-05-12T18:23:54Z</time>
</trkpt>
<trkpt lat="37.33652993" lon="-4.34798405">
<ele>1329</ele>
<time>2015-05-12T18:23:56Z</time>
</trkpt>
<trkpt lat="37.33647588" lon="-4.34811556">
<ele>1328</ele>
<time>2015-05-12T18:23:58Z</time>
</trkpt>
<trkpt lat="37.33647244" lon="-4.3482366">
<ele>1326</ele>
<time>2015-05-12T18:24:00Z</time>
</trkpt>
<trkpt lat="37.33659289" lon="-4.34831555">
<ele>1324</ele>
<time>2015-05-12T18:24:02Z</time>
</trkpt>
<trkpt lat="37.33676063" lon="-4.34825241">
<ele>1321</ele>
<time>2015-05-12T18:24:04Z</time>
</trkpt>
<trkpt lat="37.33698187" lon="-4.348097">
<ele>1319</ele>
<time>2015-05-12T18:24:06Z</time>
</trkpt>
<trkpt lat="37.33709293" lon="-4.34787185">
<ele>1321</ele>
<time>2015-05-12T18:24:08Z</time>
</trkpt>
<trkpt lat="37.33718456" lon="-4.34760268">
<ele>1318</ele>
<time>2015-05-12T18:24:10Z</time>
</trkpt>
<trkpt lat="37.3373082" lon="-4.34732781">
<ele>1316</ele>
<time>2015-05-12T18:24:12Z</time>
</trkpt>
<trkpt lat="37.33745041" lon="-4.34713691">
<ele>1313</ele>
<time>2015-05-12T18:24:14Z</time>
</trkpt>
<trkpt lat="37.33759319" lon="-4.34691389">
<ele>1311</ele>
<time>2015-05-12T18:24:16Z</time>
</trkpt>
<trkpt lat="37.33773849" lon="-4.34665785">
<ele>1310</ele>
<time>2015-05-12T18:24:18Z</time>
</trkpt>
<trkpt lat="37.33787646" lon="-4.34641208">
<ele>1309</ele>
<time>2015-05-12T18:24:20Z</time>
</trkpt>
<trkpt lat="37.33801038" lon="-4.34617047">
<ele>1307</ele>
<time>2015-05-12T18:24:22Z</time>
</trkpt>
<trkpt lat="37.33817425" lon="-4.34592046">
<ele>1304</ele>
<time>2015-05-12T18:24:24Z</time>
</trkpt>
<trkpt lat="37.33836247" lon="-4.34568284">
<ele>1302</ele>
<time>2015-05-12T18:24:26Z</time>
</trkpt>
<trkpt lat="37.33854969" lon="-4.34546129">
<ele>1301</ele>
<time>2015-05-12T18:24:28Z</time>
</trkpt>
<trkpt lat="37.33873458" lon="-4.34525472">
<ele>1301</ele>
<time>2015-05-12T18:24:30Z</time>
</trkpt>
<trkpt lat="37.33892268" lon="-4.34516599">
<ele>1298</ele>
<time>2015-05-12T18:24:32Z</time>
</trkpt>
<trkpt lat="37.3390799" lon="-4.34523816">
<ele>1297</ele>
<time>2015-05-12T18:24:34Z</time>
</trkpt>
<trkpt lat="37.33914347" lon="-4.34539475">
<ele>1298</ele>
<time>2015-05-12T18:24:36Z</time>
</trkpt>
<trkpt lat="37.33917722" lon="-4.3455339">
<ele>1301</ele>
<time>2015-05-12T18:24:38Z</time>
</trkpt>
<trkpt lat="37.33916268" lon="-4.34567875">
<ele>1304</ele>
<time>2015-05-12T18:24:40Z</time>
</trkpt>
<trkpt lat="37.3391564" lon="-4.34580142">
<ele>1306</ele>
<time>2015-05-12T18:24:42Z</time>
</trkpt>
<trkpt lat="37.33915485" lon="-4.34592943">
<ele>1307</ele>
<time>2015-05-12T18:24:44Z</time>
</trkpt>
<trkpt lat="37.33915016" lon="-4.34600999">
<ele>1304</ele>
<time>2015-05-12T18:24:46Z</time>
</trkpt>
<trkpt lat="37.33915226" lon="-4.34612715">
<ele>1300</ele>
<time>2015-05-12T18:24:48Z</time>
</trkpt>
<trkpt lat="37.33916208" lon="-4.34628339">
<ele>1298</ele>
<time>2015-05-12T18:24:50Z</time>
</trkpt>
<trkpt lat="37.33916929" lon="-4.34644864">
<ele>1295</ele>
<time>2015-05-12T18:24:52Z</time>
</trkpt>
<trkpt lat="37.33916949" lon="-4.34658439">
<ele>1293</ele>
<time>2015-05-12T18:24:54Z</time>
</trkpt>
<trkpt lat="37.33917699" lon="-4.34671714">
<ele>1291</ele>
<time>2015-05-12T18:24:56Z</time>
</trkpt>
<trkpt lat="37.3391505" lon="-4.34686154">
<ele>1287</ele>
<time>2015-05-12T18:24:58Z</time>
</trkpt>
<trkpt lat="37.33909831" lon="-4.34702261">
<ele>1284</ele>
<time>2015-05-12T18:25:00Z</time>
</trkpt>
<trkpt lat="37.33904545" lon="-4.34714443">
<ele>1280</ele>
<time>2015-05-12T18:25:02Z</time>
</trkpt>
<trkpt lat="37.33896938" lon="-4.34730849">
<ele>1278</ele>
<time>2015-05-12T18:25:04Z</time>
</trkpt>
<trkpt lat="37.33887326" lon="-4.34744925">
<ele>1277</ele>
<time>2015-05-12T18:25:06Z</time>
</trkpt>
<trkpt lat="37.33877034" lon="-4.34755335">
<ele>1275</ele>
<time>2015-05-12T18:25:08Z</time>
</trkpt>
<trkpt lat="37.33864911" lon="-4.34765703">
<ele>1273</ele>
<time>2015-05-12T18:25:10Z</time>
</trkpt>
<trkpt lat="37.33851491" lon="-4.34776292">
<ele>1272</ele>
<time>2015-05-12T18:25:12Z</time>
</trkpt>
<trkpt lat="37.33837452" lon="-4.34784517">
<ele>1267</ele>
<time>2015-05-12T18:25:14Z</time>
</trkpt>
<trkpt lat="37.33824312" lon="-4.34794831">
<ele>1264</ele>
<time>2015-05-12T18:25:16Z</time>
</trkpt>
<trkpt lat="37.33810097" lon="-4.34805493">
<ele>1264</ele>
<time>2015-05-12T18:25:18Z</time>
</trkpt>
<trkpt lat="37.33797047" lon="-4.3481424">
<ele>1261</ele>
<time>2015-05-12T18:25:20Z</time>
</trkpt>
<trkpt lat="37.33782957" lon="-4.3482427">
<ele>1260</ele>
<time>2015-05-12T18:25:22Z</time>
</trkpt>
<trkpt lat="37.33770143" lon="-4.34834314">
<ele>1259</ele>
<time>2015-05-12T18:25:24Z</time>
</trkpt>
<trkpt lat="37.33758679" lon="-4.3484425">
<ele>1262</ele>
<time>2015-05-12T18:25:26Z</time>
</trkpt>
<trkpt lat="37.3375143" lon="-4.34850541">
<ele>1266</ele>
<time>2015-05-12T18:25:28Z</time>
</trkpt>
<trkpt lat="37.33749103" lon="-4.34858483">
<ele>1267</ele>
<time>2015-05-12T18:25:30Z</time>
</trkpt>
<trkpt lat="37.33750989" lon="-4.34870478">
<ele>1267</ele>
<time>2015-05-12T18:25:32Z</time>
</trkpt>
<trkpt lat="37.33750137" lon="-4.34884185">
<ele>1267</ele>
<time>2015-05-12T18:25:34Z</time>
</trkpt>
<trkpt lat="37.33744445" lon="-4.3489701">
<ele>1267</ele>
<time>2015-05-12T18:25:36Z</time>
</trkpt>
<trkpt lat="37.33732813" lon="-4.34903224">
<ele>1268</ele>
<time>2015-05-12T18:25:38Z</time>
</trkpt>
<trkpt lat="37.33721737" lon="-4.34906515">
<ele>1269</ele>
<time>2015-05-12T18:25:40Z</time>
</trkpt>
<trkpt lat="37.33713655" lon="-4.3491534">
<ele>1268</ele>
<time>2015-05-12T18:25:42Z</time>
</trkpt>
<trkpt lat="37.3371362" lon="-4.34928866">
<ele>1266</ele>
<time>2015-05-12T18:25:44Z</time>
</trkpt>
<trkpt lat="37.33719611" lon="-4.34940423">
<ele>1266</ele>
<time>2015-05-12T18:25:46Z</time>
</trkpt>
<trkpt lat="37.33722562" lon="-4.34948056">
<ele>1264</ele>
<time>2015-05-12T18:25:48Z</time>
</trkpt>
<trkpt lat="37.33716225" lon="-4.34959323">
<ele>1260</ele>
<time>2015-05-12T18:25:50Z</time>
</trkpt>
<trkpt lat="37.33703701" lon="-4.34965722">
<ele>1260</ele>
<time>2015-05-12T18:25:52Z</time>
</trkpt>
<trkpt lat="37.3369235" lon="-4.34970143">
<ele>1259</ele>
<time>2015-05-12T18:25:54Z</time>
</trkpt>
<trkpt lat="37.33681698" lon="-4.34975551">
<ele>1254</ele>
<time>2015-05-12T18:25:56Z</time>
</trkpt>
<trkpt lat="37.3366643" lon="-4.3497965">
<ele>1249</ele>
<time>2015-05-12T18:25:58Z</time>
</trkpt>
<trkpt lat="37.33648179" lon="-4.34984526">
<ele>1246</ele>
<time>2015-05-12T18:26:00Z</time>
</trkpt>
<trkpt lat="37.33628791" lon="-4.34992819">
<ele>1245</ele>
<time>2015-05-12T18:26:02Z</time>
</trkpt>
<trkpt lat="37.33612132" lon="-4.35001411">
<ele>1247</ele>
<time>2015-05-12T18:26:04Z</time>
</trkpt>
<trkpt lat="37.33597822" lon="-4.35007683">
<ele>1248</ele>
<time>2015-05-12T18:26:06Z</time>
</trkpt>
<trkpt lat="37.33586044" lon="-4.35015313">
<ele>1250</ele>
<time>2015-05-12T18:26:08Z</time>
</trkpt>
<trkpt lat="37.33575473" lon="-4.35023073">
<ele>1252</ele>
<time>2015-05-12T18:26:10Z</time>
</trkpt>
<trkpt lat="37.33567541" lon="-4.35028828">
<ele>1251</ele>
<time>2015-05-12T18:26:12Z</time>
</trkpt>
<trkpt lat="37.33558494" lon="-4.35038608">
<ele>1255</ele>
<time>2015-05-12T18:26:14Z</time>
</trkpt>
<trkpt lat="37.33554017" lon="-4.35049122">
<ele>1257</ele>
<time>2015-05-12T18:26:16Z</time>
</trkpt>
<trkpt lat="37.33566833" lon="-4.35056435">
<ele>1262</ele>
<time>2015-05-12T18:26:18Z</time>
</trkpt>
<trkpt lat="37.33584112" lon="-4.35043474">
<ele>1263</ele>
<time>2015-05-12T18:26:20Z</time>
</trkpt>
<trkpt lat="37.33592518" lon="-4.35016194">
<ele>1265</ele>
<time>2015-05-12T18:26:22Z</time>
</trkpt>
<trkpt lat="37.33583469" lon="-4.34985542">
<ele>1264</ele>
<time>2015-05-12T18:26:24Z</time>
</trkpt>
<trkpt lat="37.33561971" lon="-4.34979874">
<ele>1265</ele>
<time>2015-05-12T18:26:26Z</time>
</trkpt>
<trkpt lat="37.33545734" lon="-4.34984298">
<ele>1265</ele>
<time>2015-05-12T18:26:28Z</time>
</trkpt>
<trkpt lat="37.33565283" lon="-4.35004476">
<ele>1272</ele>
<time>2015-05-12T18:26:30Z</time>
</trkpt>
<trkpt lat="37.33572932" lon="-4.35005519">
<ele>1274</ele>
<time>2015-05-12T18:26:32Z</time>
</trkpt>
<trkpt lat="37.33587031" lon="-4.34998439">
<ele>1274</ele>
<time>2015-05-12T18:26:34Z</time>
</trkpt>
<trkpt lat="37.33599858" lon="-4.34976979">
<ele>1276</ele>
<time>2015-05-12T18:26:36Z</time>
</trkpt>
<trkpt lat="37.33598894" lon="-4.34948433">
<ele>1276</ele>
<time>2015-05-12T18:26:38Z</time>
</trkpt>
<trkpt lat="37.33581043" lon="-4.34925632">
<ele>1277</ele>
<time>2015-05-12T18:26:40Z</time>
</trkpt>
<trkpt lat="37.33561093" lon="-4.34931854">
<ele>1275</ele>
<time>2015-05-12T18:26:42Z</time>
</trkpt>
<trkpt lat="37.33564229" lon="-4.34950853">
<ele>1280</ele>
<time>2015-05-12T18:26:44Z</time>
</trkpt>
<trkpt lat="37.33564634" lon="-4.3495857">
<ele>1281</ele>
<time>2015-05-12T18:26:46Z</time>
</trkpt>
<trkpt lat="37.33563931" lon="-4.34964741">
<ele>1282</ele>
<time>2015-05-12T18:26:48Z</time>
</trkpt>
<trkpt lat="37.3357129" lon="-4.34976871">
<ele>1283</ele>
<time>2015-05-12T18:26:50Z</time>
</trkpt>
<trkpt lat="37.3358215" lon="-4.34984415">
<ele>1287</ele>
<time>2015-05-12T18:26:52Z</time>
</trkpt>
<trkpt lat="37.33591023" lon="-4.34982062">
<ele>1294</ele>
<time>2015-05-12T18:26:54Z</time>
</trkpt>
<trkpt lat="37.33606672" lon="-4.34972382">
<ele>1295</ele>
<time>2015-05-12T18:26:56Z</time>
</trkpt>
<trkpt lat="37.33622871" lon="-4.34959629">
<ele>1296</ele>
<time>2015-05-12T18:26:58Z</time>
</trkpt>
<trkpt lat="37.33640408" lon="-4.34954464">
<ele>1301</ele>
<time>2015-05-12T18:27:00Z</time>
</trkpt>
<trkpt lat="37.33651588" lon="-4.34963259">
<ele>1306</ele>
<time>2015-05-12T18:27:02Z</time>
</trkpt>
<trkpt lat="37.33655743" lon="-4.34976243">
<ele>1312</ele>
<time>2015-05-12T18:27:04Z</time>
</trkpt>
<trkpt lat="37.3365215" lon="-4.34984379">
<ele>1314</ele>
<time>2015-05-12T18:27:06Z</time>
</trkpt>
<trkpt lat="37.33637513" lon="-4.3499058">
<ele>1311</ele>
<time>2015-05-12T18:27:08Z</time>
</trkpt>
<trkpt lat="37.336157" lon="-4.34990587">
<ele>1310</ele>
<time>2015-05-12T18:27:10Z</time>
</trkpt>
<trkpt lat="37.33595202" lon="-4.34989644">
<ele>1312</ele>
<time>2015-05-12T18:27:12Z</time>
</trkpt>
<trkpt lat="37.33582311" lon="-4.35001939">
<ele>1314</ele>
<time>2015-05-12T18:27:14Z</time>
</trkpt>
<trkpt lat="37.33580202" lon="-4.35016724">
<ele>1314</ele>
<time>2015-05-12T18:27:16Z</time>
</trkpt>
<trkpt lat="37.33583032" lon="-4.35031494">
<ele>1318</ele>
<time>2015-05-12T18:27:18Z</time>
</trkpt>
<trkpt lat="37.33589307" lon="-4.35041006">
<ele>1320</ele>
<time>2015-05-12T18:27:20Z</time>
</trkpt>
<trkpt lat="37.33601804" lon="-4.35044056">
<ele>1317</ele>
<time>2015-05-12T18:27:22Z</time>
</trkpt>
<trkpt lat="37.33617832" lon="-4.35038817">
<ele>1317</ele>
<time>2015-05-12T18:27:24Z</time>
</trkpt>
<trkpt lat="37.33633937" lon="-4.35022301">
<ele>1320</ele>
<time>2015-05-12T18:27:26Z</time>
</trkpt>
<trkpt lat="37.33646973" lon="-4.35000044">
<ele>1322</ele>
<time>2015-05-12T18:27:28Z</time>
</trkpt>
<trkpt lat="37.33657571" lon="-4.34979463">
<ele>1321</ele>
<time>2015-05-12T18:27:30Z</time>
</trkpt>
<trkpt lat="37.33670437" lon="-4.34962446">
<ele>1319</ele>
<time>2015-05-12T18:27:32Z</time>
</trkpt>
<trkpt lat="37.33688858" lon="-4.34955706">
<ele>1317</ele>
<time>2015-05-12T18:27:34Z</time>
</trkpt>
<trkpt lat="37.33708961" lon="-4.34955662">
<ele>1318</ele>
<time>2015-05-12T18:27:36Z</time>
</trkpt>
<trkpt lat="37.33721414" lon="-4.34959829">
<ele>1323</ele>
<time>2015-05-12T18:27:38Z</time>
</trkpt>
<trkpt lat="37.33732123" lon="-4.3496871">
<ele>1325</ele>
<time>2015-05-12T18:27:40Z</time>
</trkpt>
<trkpt lat="37.33735483" lon="-4.3498156">
<ele>1328</ele>
<time>2015-05-12T18:27:42Z</time>
</trkpt>
<trkpt lat="37.33733845" lon="-4.34993711">
<ele>1330</ele>
<time>2015-05-12T18:27:44Z</time>
</trkpt>
<trkpt lat="37.33726045" lon="-4.35004076">
<ele>1335</ele>
<time>2015-05-12T18:27:46Z</time>
</trkpt>
<trkpt lat="37.33715025" lon="-4.35003996">
<ele>1336</ele>
<time>2015-05-12T18:27:48Z</time>
</trkpt>
<trkpt lat="37.33701998" lon="-4.34986817">
<ele>1333</ele>
<time>2015-05-12T18:27:50Z</time>
</trkpt>
<trkpt lat="37.33700155" lon="-4.3495465">
<ele>1334</ele>
<time>2015-05-12T18:27:52Z</time>
</trkpt>
<trkpt lat="37.33708625" lon="-4.34923688">
<ele>1334</ele>
<time>2015-05-12T18:27:54Z</time>
</trkpt>
<trkpt lat="37.33725208" lon="-4.34904155">
<ele>1340</ele>
<time>2015-05-12T18:27:56Z</time>
</trkpt>
<trkpt lat="37.33742393" lon="-4.34893969">
<ele>1343</ele>
<time>2015-05-12T18:27:58Z</time>
</trkpt>
<trkpt lat="37.33757335" lon="-4.34897007">
<ele>1346</ele>
<time>2015-05-12T18:28:00Z</time>
</trkpt>
<trkpt lat="37.33764968" lon="-4.34905802">
<ele>1351</ele>
<time>2015-05-12T18:28:02Z</time>
</trkpt>
<trkpt lat="37.33768621" lon="-4.34917333">
<ele>1353</ele>
<time>2015-05-12T18:28:04Z</time>
</trkpt>
<trkpt lat="37.3376641" lon="-4.34927216">
<ele>1357</ele>
<time>2015-05-12T18:28:06Z</time>
</trkpt>
<trkpt lat="37.33758435" lon="-4.349347">
<ele>1358</ele>
<time>2015-05-12T18:28:08Z</time>
</trkpt>
<trkpt lat="37.33741249" lon="-4.34920173">
<ele>1362</ele>
<time>2015-05-12T18:28:10Z</time>
</trkpt>
<trkpt lat="37.33732653" lon="-4.3489802">
<ele>1366</ele>
<time>2015-05-12T18:28:12Z</time>
</trkpt>
<trkpt lat="37.33732849" lon="-4.3487254">
<ele>1369</ele>
<time>2015-05-12T18:28:14Z</time>
</trkpt>
<trkpt lat="37.33741612" lon="-4.34848103">
<ele>1370</ele>
<time>2015-05-12T18:28:16Z</time>
</trkpt>
<trkpt lat="37.33757799" lon="-4.34828584">
<ele>1371</ele>
<time>2015-05-12T18:28:18Z</time>
</trkpt>
<trkpt lat="37.33773735" lon="-4.34820841">
<ele>1374</ele>
<time>2015-05-12T18:28:20Z</time>
</trkpt>
<trkpt lat="37.33784114" lon="-4.34827189">
<ele>1378</ele>
<time>2015-05-12T18:28:22Z</time>
</trkpt>
<trkpt lat="37.33789387" lon="-4.34839263">
<ele>1380</ele>
<time>2015-05-12T18:28:24Z</time>
</trkpt>
<trkpt lat="37.33789989" lon="-4.348505">
<ele>1383</ele>
<time>2015-05-12T18:28:26Z</time>
</trkpt>
<trkpt lat="37.33788382" lon="-4.34856982">
<ele>1386</ele>
<time>2015-05-12T18:28:28Z</time>
</trkpt>
<trkpt lat="37.33784629" lon="-4.34864556">
<ele>1387</ele>
<time>2015-05-12T18:28:30Z</time>
</trkpt>
<trkpt lat="37.33769239" lon="-4.3486195">
<ele>1387</ele>
<time>2015-05-12T18:28:32Z</time>
</trkpt>
<trkpt lat="37.33753847" lon="-4.3483955">
<ele>1389</ele>
<time>2015-05-12T18:28:34Z</time>
</trkpt>
<trkpt lat="37.33751178" lon="-4.3480696">
<ele>1393</ele>
<time>2015-05-12T18:28:36Z</time>
</trkpt>
<trkpt lat="37.33759722" lon="-4.34781136">
<ele>1395</ele>
<time>2015-05-12T18:28:38Z</time>
</trkpt>
<trkpt lat="37.33774572" lon="-4.34764953">
<ele>1398</ele>
<time>2015-05-12T18:28:40Z</time>
</trkpt>
<trkpt lat="37.33787674" lon="-4.34764882">
<ele>1402</ele>
<time>2015-05-12T18:28:42Z</time>
</trkpt>
<trkpt lat="37.3379768" lon="-4.34776517">
<ele>1404</ele>
<time>2015-05-12T18:28:44Z</time>
</trkpt>
<trkpt lat="37.33798981" lon="-4.34789874">
<ele>1406</ele>
<time>2015-05-12T18:28:46Z</time>
</trkpt>
<trkpt lat="37.33798932" lon="-4.34798926">
<ele>1409</ele>
<time>2015-05-12T18:28:48Z</time>
</trkpt>
<trkpt lat="37.33793208" lon="-4.34805715">
<ele>1411</ele>
<time>2015-05-12T18:28:50Z</time>
</trkpt>
<trkpt lat="37.33782137" lon="-4.34812699">
<ele>1411</ele>
<time>2015-05-12T18:28:52Z</time>
</trkpt>
<trkpt lat="37.33764254" lon="-4.34806923">
<ele>1413</ele>
<time>2015-05-12T18:28:54Z</time>
</trkpt>
<trkpt lat="37.33749435" lon="-4.34786001">
<ele>1416</ele>
<time>2015-05-12T18:28:56Z</time>
</trkpt>
<trkpt lat="37.33744124" lon="-4.34759522">
<ele>1416</ele>
<time>2015-05-12T18:28:58Z</time>
</trkpt>
<trkpt lat="37.33747678" lon="-4.34739196">
<ele>1418</ele>
<time>2015-05-12T18:29:00Z</time>
</trkpt>
<trkpt lat="37.33766416" lon="-4.34717075">
<ele>1419</ele>
<time>2015-05-12T18:29:02Z</time>
</trkpt>
<trkpt lat="37.33780137" lon="-4.34708604">
<ele>1421</ele>
<time>2015-05-12T18:29:04Z</time>
</trkpt>
<trkpt lat="37.33797339" lon="-4.34708825">
<ele>1426</ele>
<time>2015-05-12T18:29:06Z</time>
</trkpt>
<trkpt lat="37.33813679" lon="-4.34712661">
<ele>1430</ele>
<time>2015-05-12T18:29:08Z</time>
</trkpt>
<trkpt lat="37.33824669" lon="-4.34722117">
<ele>1437</ele>
<time>2015-05-12T18:29:10Z</time>
</trkpt>
<trkpt lat="37.3383428" lon="-4.34731983">
<ele>1442</ele>
<time>2015-05-12T18:29:12Z</time>
</trkpt>
<trkpt lat="37.33834678" lon="-4.34743175">
<ele>1447</ele>
<time>2015-05-12T18:29:14Z</time>
</trkpt>
<trkpt lat="37.33830211" lon="-4.34756216">
<ele>1453</ele>
<time>2015-05-12T18:29:16Z</time>
</trkpt>
<trkpt lat="37.33820216" lon="-4.34760432">
<ele>1454</ele>
<time>2015-05-12T18:29:18Z</time>
</trkpt>
<trkpt lat="37.33806031" lon="-4.34759197">
<ele>1456</ele>
<time>2015-05-12T18:29:20Z</time>
</trkpt>
<trkpt lat="37.33790742" lon="-4.3474777">
<ele>1463</ele>
<time>2015-05-12T18:29:22Z</time>
</trkpt>
<trkpt lat="37.33781077" lon="-4.3472412">
<ele>1461</ele>
<time>2015-05-12T18:29:24Z</time>
</trkpt>
<trkpt lat="37.33775552" lon="-4.34695907">
<ele>1463</ele>
<time>2015-05-12T18:29:26Z</time>
</trkpt>
<trkpt lat="37.33776466" lon="-4.34666968">
<ele>1464</ele>
<time>2015-05-12T18:29:28Z</time>
</trkpt>
<trkpt lat="37.33782287" lon="-4.34640139">
<ele>1467</ele>
<time>2015-05-12T18:29:30Z</time>
</trkpt>
<trkpt lat="37.33798227" lon="-4.34617079">
<ele>1466</ele>
<time>2015-05-12T18:29:32Z</time>
</trkpt>
<trkpt lat="37.3382132" lon="-4.34608717">
<ele>1469</ele>
<time>2015-05-12T18:29:34Z</time>
</trkpt>
<trkpt lat="37.338416" lon="-4.34608816">
<ele>1475</ele>
<time>2015-05-12T18:29:36Z</time>
</trkpt>
<trkpt lat="37.33854687" lon="-4.34611405">
<ele>1478</ele>
<time>2015-05-12T18:29:38Z</time>
</trkpt>
<trkpt lat="37.3387019" lon="-4.34615062">
<ele>1482</ele>
<time>2015-05-12T18:29:40Z</time>
</trkpt>
<trkpt lat="37.33884249" lon="-4.34623698">
<ele>1485</ele>
<time>2015-05-12T18:29:42Z</time>
</trkpt>
<trkpt lat="37.33886417" lon="-4.34638024">
<ele>1493</ele>
<time>2015-05-12T18:29:44Z</time>
</trkpt>
<trkpt lat="37.33884014" lon="-4.34649838">
<ele>1497</ele>
<time>2015-05-12T18:29:46Z</time>
</trkpt>
<trkpt lat="37.33873401" lon="-4.34654749">
<ele>1498</ele>
<time>2015-05-12T18:29:48Z</time>
</trkpt>
<trkpt lat="37.33854845" lon="-4.34646488">
<ele>1498</ele>
<time>2015-05-12T18:29:50Z</time>
</trkpt>
<trkpt lat="37.33841303" lon="-4.34623141">
<ele>1500</ele>
<time>2015-05-12T18:29:52Z</time>
</trkpt>
<trkpt lat="37.33836189" lon="-4.3459152">
<ele>1503</ele>
<time>2015-05-12T18:29:54Z</time>
</trkpt>
<trkpt lat="37.33837366" lon="-4.34561813">
<ele>1508</ele>
<time>2015-05-12T18:29:56Z</time>
</trkpt>
<trkpt lat="37.3384781" lon="-4.34531918">
<ele>1508</ele>
<time>2015-05-12T18:29:58Z</time>
</trkpt>
<trkpt lat="37.33863268" lon="-4.34513054">
<ele>1514</ele>
<time>2015-05-12T18:30:00Z</time>
</trkpt>
<trkpt lat="37.33880368" lon="-4.34509434">
<ele>1517</ele>
<time>2015-05-12T18:30:02Z</time>
</trkpt>
<trkpt lat="37.33893672" lon="-4.34514864">
<ele>1519</ele>
<time>2015-05-12T18:30:04Z</time>
</trkpt>
<trkpt lat="37.33897488" lon="-4.34524254">
<ele>1520</ele>
<time>2015-05-12T18:30:06Z</time>
</trkpt>
<trkpt lat="37.33901618" lon="-4.34537891">
<ele>1521</ele>
<time>2015-05-12T18:30:08Z</time>
</trkpt>
<trkpt lat="37.33899418" lon="-4.34550637">
<ele>1522</ele>
<time>2015-05-12T18:30:10Z</time>
</trkpt>
<trkpt lat="37.33898763" lon="-4.34563956">
<ele>1524</ele>
<time>2015-05-12T18:30:12Z</time>
</trkpt>
<trkpt lat="37.3389908" lon="-4.34576663">
<ele>1525</ele>
<time>2015-05-12T18:30:14Z</time>
</trkpt>
<trkpt lat="37.33895193" lon="-4.34589327">
<ele>1527</ele>
<time>2015-05-12T18:30:16Z</time>
</trkpt>
<trkpt lat="37.33891059" lon="-4.34601575">
<ele>1529</ele>
<time>2015-05-12T18:30:18Z</time>
</trkpt>
<trkpt lat="37.33885053" lon="-4.34612614">
<ele>1529</ele>
<time>2015-05-12T18:30:20Z</time>
</trkpt>
<trkpt lat="37.33874976" lon="-4.34623374">
<ele>1527</ele>
<time>2015-05-12T18:30:22Z</time>
</trkpt>
<trkpt lat="37.33860229" lon="-4.34629241">
<ele>1527</ele>
<time>2015-05-12T18:30:24Z</time>
</trkpt>
<trkpt lat="37.33840476" lon="-4.34624237">
<ele>1530</ele>
<time>2015-05-12T18:30:26Z</time>
</trkpt>
<trkpt lat="37.33823859" lon="-4.34607617">
<ele>1534</ele>
<time>2015-05-12T18:30:28Z</time>
</trkpt>
<trkpt lat="37.33815319" lon="-4.34577233">
<ele>1534</ele>
<time>2015-05-12T18:30:30Z</time>
</trkpt>
<trkpt lat="37.33817498" lon="-4.34544065">
<ele>1536</ele>
<time>2015-05-12T18:30:32Z</time>
</trkpt>
<trkpt lat="37.33822518" lon="-4.34516775">
<ele>1537</ele>
<time>2015-05-12T18:30:34Z</time>
</trkpt>
<trkpt lat="37.33830302" lon="-4.34491213">
<ele>1537</ele>
<time>2015-05-12T18:30:36Z</time>
</trkpt>
<trkpt lat="37.33846509" lon="-4.34469925">
<ele>1536</ele>
<time>2015-05-12T18:30:38Z</time>
</trkpt>
<trkpt lat="37.33860645" lon="-4.34455249">
<ele>1537</ele>
<time>2015-05-12T18:30:40Z</time>
</trkpt>
<trkpt lat="37.33876163" lon="-4.3444181">
<ele>1537</ele>
<time>2015-05-12T18:30:42Z</time>
</trkpt>
<trkpt lat="37.33889691" lon="-4.34435184">
<ele>1538</ele>
<time>2015-05-12T18:30:44Z</time>
</trkpt>
<trkpt lat="37.33903715" lon="-4.34436618">
<ele>1541</ele>
<time>2015-05-12T18:30:46Z</time>
</trkpt>
<trkpt lat="37.33914611" lon="-4.34444897">
<ele>1542</ele>
<time>2015-05-12T18:30:48Z</time>
</trkpt>
<trkpt lat="37.33920575" lon="-4.344568">
<ele>1542</ele>
<time>2015-05-12T18:30:50Z</time>
</trkpt>
<trkpt lat="37.33916625" lon="-4.34471275">
<ele>1543</ele>
<time>2015-05-12T18:30:52Z</time>
</trkpt>
<trkpt lat="37.33911913" lon="-4.34483212">
<ele>1543</ele>
<time>2015-05-12T18:30:54Z</time>
</trkpt>
<trkpt lat="37.3390035" lon="-4.34494771">
<ele>1541</ele>
<time>2015-05-12T18:30:56Z</time>
</trkpt>
<trkpt lat="37.33885015" lon="-4.34505094">
<ele>1539</ele>
<time>2015-05-12T18:30:58Z</time>
</trkpt>
<trkpt lat="37.33870903" lon="-4.34513416">
<ele>1538</ele>
<time>2015-05-12T18:31:00Z</time>
</trkpt>
<trkpt lat="37.33857581" lon="-4.34524013">
<ele>1537</ele>
<time>2015-05-12T18:31:02Z</time>
</trkpt>
<trkpt lat="37.33848519" lon="-4.34531907">
<ele>1532</ele>
<time>2015-05-12T18:31:04Z</time>
</trkpt>
<trkpt lat="37.33843416" lon="-4.34541603">
<ele>1532</ele>
<time>2015-05-12T18:31:06Z</time>
</trkpt>
<trkpt lat="37.33841387" lon="-4.34555765">
<ele>1531</ele>
<time>2015-05-12T18:31:08Z</time>
</trkpt>
<trkpt lat="37.33845788" lon="-4.34570943">
<ele>1531</ele>
<time>2015-05-12T18:31:10Z</time>
</trkpt>
<trkpt lat="37.33848982" lon="-4.34584119">
<ele>1529</ele>
<time>2015-05-12T18:31:12Z</time>
</trkpt>
<trkpt lat="37.33854108" lon="-4.34599072">
<ele>1524</ele>
<time>2015-05-12T18:31:14Z</time>
</trkpt>
<trkpt lat="37.33861583" lon="-4.34616489">
<ele>1519</ele>
<time>2015-05-12T18:31:16Z</time>
</trkpt>
<trkpt lat="37.33868923" lon="-4.34636255">
<ele>1515</ele>
<time>2015-05-12T18:31:18Z</time>
</trkpt>
<trkpt lat="37.33875394" lon="-4.34657197">
<ele>1512</ele>
<time>2015-05-12T18:31:20Z</time>
</trkpt>
<trkpt lat="37.33886011" lon="-4.3467567">
<ele>1509</ele>
<time>2015-05-12T18:31:22Z</time>
</trkpt>
<trkpt lat="37.33896591" lon="-4.34694114">
<ele>1502</ele>
<time>2015-05-12T18:31:24Z</time>
</trkpt>
<trkpt lat="37.33908448" lon="-4.34711919">
<ele>1497</ele>
<time>2015-05-12T18:31:26Z</time>
</trkpt>
<trkpt lat="37.33923225" lon="-4.34728808">
<ele>1491</ele>
<time>2015-05-12T18:31:28Z</time>
</trkpt>
<trkpt lat="37.33937808" lon="-4.34745424">
<ele>1489</ele>
<time>2015-05-12T18:31:30Z</time>
</trkpt>
<trkpt lat="37.33948097" lon="-4.34760966">
<ele>1488</ele>
<time>2015-05-12T18:31:32Z</time>
</trkpt>
<trkpt lat="37.33960949" lon="-4.34779109">
<ele>1487</ele>
<time>2015-05-12T18:31:34Z</time>
</trkpt>
<trkpt lat="37.33973334" lon="-4.34795856">
<ele>1484</ele>
<time>2015-05-12T18:31:36Z</time>
</trkpt>
<trkpt lat="37.33984358" lon="-4.34812191">
<ele>1481</ele>
<time>2015-05-12T18:31:38Z</time>
</trkpt>
<trkpt lat="37.33995488" lon="-4.34831048">
<ele>1474</ele>
<time>2015-05-12T18:31:40Z</time>
</trkpt>
<trkpt lat="37.34007491" lon="-4.3485099">
<ele>1469</ele>
<time>2015-05-12T18:31:42Z</time>
</trkpt>
<trkpt lat="37.34016629" lon="-4.34869818">
<ele>1468</ele>
<time>2015-05-12T18:31:44Z</time>
</trkpt>
<trkpt lat="37.3402313" lon="-4.3488513">
<ele>1465</ele>
<time>2015-05-12T18:31:46Z</time>
</trkpt>
<trkpt lat="37.34029798" lon="-4.34901234">
<ele>1462</ele>
<time>2015-05-12T18:31:48Z</time>
</trkpt>
<trkpt lat="37.34040656" lon="-4.34922784">
<ele>1456</ele>
<time>2015-05-12T18:31:50Z</time>
</trkpt>
<trkpt lat="37.34050696" lon="-4.34941034">
<ele>1455</ele>
<time>2015-05-12T18:31:52Z</time>
</trkpt>
<trkpt lat="37.34059799" lon="-4.3495109">
<ele>1452</ele>
<time>2015-05-12T18:31:54Z</time>
</trkpt>
<trkpt lat="37.34069321" lon="-4.34966394">
<ele>1446</ele>
<time>2015-05-12T18:31:56Z</time>
</trkpt>
<trkpt lat="37.34077751" lon="-4.34984553">
<ele>1444</ele>
<time>2015-05-12T18:31:58Z</time>
</trkpt>
<trkpt lat="37.34085445" lon="-4.35003955">
<ele>1441</ele>
<time>2015-05-12T18:32:00Z</time>
</trkpt>
<trkpt lat="37.34095381" lon="-4.35020855">
<ele>1438</ele>
<time>2015-05-12T18:32:02Z</time>
</trkpt>
<trkpt lat="37.34105786" lon="-4.3503596">
<ele>1437</ele>
<time>2015-05-12T18:32:04Z</time>
</trkpt>
<trkpt lat="37.34113741" lon="-4.35046812">
<ele>1437</ele>
<time>2015-05-12T18:32:06Z</time>
</trkpt>
<trkpt lat="37.34126154" lon="-4.35058186">
<ele>1433</ele>
<time>2015-05-12T18:32:08Z</time>
</trkpt>
<trkpt lat="37.34139972" lon="-4.35069225">
<ele>1430</ele>
<time>2015-05-12T18:32:10Z</time>
</trkpt>
<trkpt lat="37.34152945" lon="-4.35083689">
<ele>1431</ele>
<time>2015-05-12T18:32:12Z</time>
</trkpt>
<trkpt lat="37.34164734" lon="-4.35096584">
<ele>1430</ele>
<time>2015-05-12T18:32:14Z</time>
</trkpt>
<trkpt lat="37.3417633" lon="-4.35108231">
<ele>1424</ele>
<time>2015-05-12T18:32:16Z</time>
</trkpt>
<trkpt lat="37.34187893" lon="-4.35121105">
<ele>1422</ele>
<time>2015-05-12T18:32:18Z</time>
</trkpt>
<trkpt lat="37.34204082" lon="-4.35135306">
<ele>1420</ele>
<time>2015-05-12T18:32:20Z</time>
</trkpt>
<trkpt lat="37.34216499" lon="-4.35146565">
<ele>1418</ele>
<time>2015-05-12T18:32:22Z</time>
</trkpt>
<trkpt lat="37.34222574" lon="-4.35159261">
<ele>1417</ele>
<time>2015-05-12T18:32:24Z</time>
</trkpt>
<trkpt lat="37.34229148" lon="-4.35176891">
<ele>1412</ele>
<time>2015-05-12T18:32:26Z</time>
</trkpt>
<trkpt lat="37.34236494" lon="-4.35196348">
<ele>1409</ele>
<time>2015-05-12T18:32:28Z</time>
</trkpt>
<trkpt lat="37.34240991" lon="-4.3521357">
<ele>1408</ele>
<time>2015-05-12T18:32:30Z</time>
</trkpt>
<trkpt lat="37.34246665" lon="-4.35224783">
<ele>1407</ele>
<time>2015-05-12T18:32:32Z</time>
</trkpt>
<trkpt lat="37.3425574" lon="-4.35236644">
<ele>1405</ele>
<time>2015-05-12T18:32:34Z</time>
</trkpt>
<trkpt lat="37.34273774" lon="-4.35252254">
<ele>1400</ele>
<time>2015-05-12T18:32:36Z</time>
</trkpt>
<trkpt lat="37.3428899" lon="-4.35263363">
<ele>1397</ele>
<time>2015-05-12T18:32:38Z</time>
</trkpt>
<trkpt lat="37.3430633" lon="-4.35274079">
<ele>1393</ele>
<time>2015-05-12T18:32:40Z</time>
</trkpt>
<trkpt lat="37.34325723" lon="-4.35286903">
<ele>1392</ele>
<time>2015-05-12T18:32:42Z</time>
</trkpt>
<trkpt lat="37.34340516" lon="-4.35298253">
<ele>1390</ele>
<time>2015-05-12T18:32:44Z</time>
</trkpt>
<trkpt lat="37.34354893" lon="-4.35307484">
<ele>1387</ele>
<time>2015-05-12T18:32:46Z</time>
</trkpt>
<trkpt lat="37.34369855" lon="-4.35315878">
<ele>1384</ele>
<time>2015-05-12T18:32:48Z</time>
</trkpt>
<trkpt lat="37.34385429" lon="-4.35329558">
<ele>1378</ele>
<time>2015-05-12T18:32:50Z</time>
</trkpt>
<trkpt lat="37.34400355" lon="-4.35343001">
<ele>1375</ele>
<time>2015-05-12T18:32:52Z</time>
</trkpt>
<trkpt lat="37.34413961" lon="-4.35355011">
<ele>1374</ele>
<time>2015-05-12T18:32:54Z</time>
</trkpt>
<trkpt lat="37.34425481" lon="-4.35367889">
<ele>1370</ele>
<time>2015-05-12T18:32:56Z</time>
</trkpt>
<trkpt lat="37.3443934" lon="-4.35382014">
<ele>1368</ele>
<time>2015-05-12T18:32:58Z</time>
</trkpt>
<trkpt lat="37.34452049" lon="-4.35392961">
<ele>1366</ele>
<time>2015-05-12T18:33:00Z</time>
</trkpt>
<trkpt lat="37.34464736" lon="-4.35402847">
<ele>1361</ele>
<time>2015-05-12T18:33:02Z</time>
</trkpt>
<trkpt lat="37.34480553" lon="-4.35411883">
<ele>1356</ele>
<time>2015-05-12T18:33:04Z</time>
</trkpt>
<trkpt lat="37.34494434" lon="-4.3542472">
<ele>1356</ele>
<time>2015-05-12T18:33:06Z</time>
</trkpt>
<trkpt lat="37.34506644" lon="-4.35436231">
<ele>1355</ele>
<time>2015-05-12T18:33:08Z</time>
</trkpt>
<trkpt lat="37.34518744" lon="-4.35449283">
<ele>1352</ele>
<time>2015-05-12T18:33:10Z</time>
</trkpt>
<trkpt lat="37.34531443" lon="-4.3546313">
<ele>1350</ele>
<time>2015-05-12T18:33:12Z</time>
</trkpt>
<trkpt lat="37.34545607" lon="-4.35474691">
<ele>1348</ele>
<time>2015-05-12T18:33:14Z</time>
</trkpt>
<trkpt lat="37.34560574" lon="-4.35486898">
<ele>1345</ele>
<time>2015-05-12T18:33:16Z</time>
</trkpt>
<trkpt lat="37.34575325" lon="-4.35497626">
<ele>1344</ele>
<time>2015-05-12T18:33:18Z</time>
</trkpt>
<trkpt lat="37.34591415" lon="-4.35506084">
<ele>1341</ele>
<time>2015-05-12T18:33:20Z</time>
</trkpt>
<trkpt lat="37.34607047" lon="-4.35515489">
<ele>1341</ele>
<time>2015-05-12T18:33:22Z</time>
</trkpt>
<trkpt lat="37.34624353" lon="-4.35521726">
<ele>1338</ele>
<time>2015-05-12T18:33:24Z</time>
</trkpt>
<trkpt lat="37.34645577" lon="-4.35524134">
<ele>1337</ele>
<time>2015-05-12T18:33:26Z</time>
</trkpt>
<trkpt lat="37.34663982" lon="-4.35526977">
<ele>1335</ele>
<time>2015-05-12T18:33:28Z</time>
</trkpt>
<trkpt lat="37.34681878" lon="-4.35531384">
<ele>1330</ele>
<time>2015-05-12T18:33:30Z</time>
</trkpt>
<trkpt lat="37.34702318" lon="-4.35536439">
<ele>1327</ele>
<time>2015-05-12T18:33:32Z</time>
</trkpt>
<trkpt lat="37.34718321" lon="-4.35542345">
<ele>1324</ele>
<time>2015-05-12T18:33:34Z</time>
</trkpt>
<trkpt lat="37.34730871" lon="-4.355527">
<ele>1321</ele>
<time>2015-05-12T18:33:36Z</time>
</trkpt>
<trkpt lat="37.34744824" lon="-4.35563204">
<ele>1318</ele>
<time>2015-05-12T18:33:38Z</time>
</trkpt>
<trkpt lat="37.34761918" lon="-4.35573313">
<ele>1314</ele>
<time>2015-05-12T18:33:40Z</time>
</trkpt>
<trkpt lat="37.34777704" lon="-4.35580812">
<ele>1310</ele>
<time>2015-05-12T18:33:42Z</time>
</trkpt>
<trkpt lat="37.34796034" lon="-4.35580236">
<ele>1307</ele>
<time>2015-05-12T18:33:44Z</time>
</trkpt>
<trkpt lat="37.34812922" lon="-4.35565697">
<ele>1301</ele>
<time>2015-05-12T18:33:46Z</time>
</trkpt>
<trkpt lat="37.34822505" lon="-4.35538868">
<ele>1296</ele>
<time>2015-05-12T18:33:48Z</time>
</trkpt>
<trkpt lat="37.34819612" lon="-4.35510192">
<ele>1293</ele>
<time>2015-05-12T18:33:50Z</time>
</trkpt>
<trkpt lat="37.34807979" lon="-4.35489155">
<ele>1290</ele>
<time>2015-05-12T18:33:52Z</time>
</trkpt>
<trkpt lat="37.34794094" lon="-4.35477467">
<ele>1288</ele>
<time>2015-05-12T18:33:54Z</time>
</trkpt>
<trkpt lat="37.34777113" lon="-4.3547126">
<ele>1282</ele>
<time>2015-05-12T18:33:56Z</time>
</trkpt>
<trkpt lat="37.34758683" lon="-4.35461718">
<ele>1278</ele>
<time>2015-05-12T18:33:58Z</time>
</trkpt>
<trkpt lat="37.34740577" lon="-4.35454761">
<ele>1275</ele>
<time>2015-05-12T18:34:00Z</time>
</trkpt>
<trkpt lat="37.34722569" lon="-4.35450511">
<ele>1271</ele>
<time>2015-05-12T18:34:02Z</time>
</trkpt>
<trkpt lat="37.3470337" lon="-4.35444518">
<ele>1267</ele>
<time>2015-05-12T18:34:04Z</time>
</trkpt>
<trkpt lat="37.34683595" lon="-4.35439401">
<ele>1263</ele>
<time>2015-05-12T18:34:06Z</time>
</trkpt>
<trkpt lat="37.3466283" lon="-4.35433446">
<ele>1261</ele>
<time>2015-05-12T18:34:08Z</time>
</trkpt>
<trkpt lat="37.34641416" lon="-4.35427894">
<ele>1256</ele>
<time>2015-05-12T18:34:10Z</time>
</trkpt>
<trkpt lat="37.34619426" lon="-4.35425206">
<ele>1254</ele>
<time>2015-05-12T18:34:12Z</time>
</trkpt>
<trkpt lat="37.34597697" lon="-4.35415573">
<ele>1254</ele>
<time>2015-05-12T18:34:14Z</time>
</trkpt>
<trkpt lat="37.34579619" lon="-4.35409233">
<ele>1247</ele>
<time>2015-05-12T18:34:16Z</time>
</trkpt>
<trkpt lat="37.34559002" lon="-4.35403299">
<ele>1241</ele>
<time>2015-05-12T18:34:18Z</time>
</trkpt>
<trkpt lat="37.34537986" lon="-4.35400927">
<ele>1238</ele>
<time>2015-05-12T18:34:20Z</time>
</trkpt>
<trkpt lat="37.34518213" lon="-4.35400589">
<ele>1236</ele>
<time>2015-05-12T18:34:22Z</time>
</trkpt>
<trkpt lat="37.34498881" lon="-4.35394997">
<ele>1231</ele>
<time>2015-05-12T18:34:24Z</time>
</trkpt>
<trkpt lat="37.34475311" lon="-4.35386762">
<ele>1229</ele>
<time>2015-05-12T18:34:26Z</time>
</trkpt>
<trkpt lat="37.34452244" lon="-4.35383374">
<ele>1226</ele>
<time>2015-05-12T18:34:28Z</time>
</trkpt>
<trkpt lat="37.34433694" lon="-4.35379149">
<ele>1224</ele>
<time>2015-05-12T18:34:30Z</time>
</trkpt>
<trkpt lat="37.34417611" lon="-4.35367187">
<ele>1221</ele>
<time>2015-05-12T18:34:32Z</time>
</trkpt>
<trkpt lat="37.34402528" lon="-4.35355395">
<ele>1217</ele>
<time>2015-05-12T18:34:34Z</time>
</trkpt>
<trkpt lat="37.34385728" lon="-4.35345771">
<ele>1210</ele>
<time>2015-05-12T18:34:36Z</time>
</trkpt>
<trkpt lat="37.34365851" lon="-4.35331941">
<ele>1203</ele>
<time>2015-05-12T18:34:38Z</time>
</trkpt>
<trkpt lat="37.34342998" lon="-4.35321228">
<ele>1197</ele>
<time>2015-05-12T18:34:40Z</time>
</trkpt>
<trkpt lat="37.34321139" lon="-4.35313307">
<ele>1193</ele>
<time>2015-05-12T18:34:42Z</time>
</trkpt>
<trkpt lat="37.34299842" lon="-4.35299971">
<ele>1189</ele>
<time>2015-05-12T18:34:44Z</time>
</trkpt>
<trkpt lat="37.34280666" lon="-4.35289334">
<ele>1189</ele>
<time>2015-05-12T18:34:46Z</time>
</trkpt>
<trkpt lat="37.34261635" lon="-4.3527853">
<ele>1186</ele>
<time>2015-05-12T18:34:48Z</time>
</trkpt>
<trkpt lat="37.34240505" lon="-4.35265961">
<ele>1182</ele>
<time>2015-05-12T18:34:50Z</time>
</trkpt>
<trkpt lat="37.34217817" lon="-4.35252877">
<ele>1179</ele>
<time>2015-05-12T18:34:52Z</time>
</trkpt>
<trkpt lat="37.34196746" lon="-4.35241142">
<ele>1177</ele>
<time>2015-05-12T18:34:54Z</time>
</trkpt>
<trkpt lat="37.34178278" lon="-4.35229626">
<ele>1175</ele>
<time>2015-05-12T18:34:56Z</time>
</trkpt>
<trkpt lat="37.34156219" lon="-4.35214107">
<ele>1166</ele>
<time>2015-05-12T18:34:58Z</time>
</trkpt>
<trkpt lat="37.34132189" lon="-4.35202757">
<ele>1164</ele>
<time>2015-05-12T18:35:00Z</time>
</trkpt>
<trkpt lat="37.34110366" lon="-4.3518957">
<ele>1163</ele>
<time>2015-05-12T18:35:02Z</time>
</trkpt>
<trkpt lat="37.34091208" lon="-4.35179931">
<ele>1160</ele>
<time>2015-05-12T18:35:04Z</time>
</trkpt>
<trkpt lat="37.34070807" lon="-4.35175253">
<ele>1160</ele>
<time>2015-05-12T18:35:06Z</time>
</trkpt>
<trkpt lat="37.34051934" lon="-4.3517208">
<ele>1160</ele>
<time>2015-05-12T18:35:08Z</time>
</trkpt>
<trkpt lat="37.34032992" lon="-4.35166581">
<ele>1156</ele>
<time>2015-05-12T18:35:10Z</time>
</trkpt>
<trkpt lat="37.34017169" lon="-4.35161548">
<ele>1155</ele>
<time>2015-05-12T18:35:12Z</time>
</trkpt>
<trkpt lat="37.34000452" lon="-4.35157028">
<ele>1154</ele>
<time>2015-05-12T18:35:14Z</time>
</trkpt>
<trkpt lat="37.33984128" lon="-4.35152598">
<ele>1151</ele>
<time>2015-05-12T18:35:16Z</time>
</trkpt>
<trkpt lat="37.33966838" lon="-4.35149433">
<ele>1149</ele>
<time>2015-05-12T18:35:18Z</time>
</trkpt>
<trkpt lat="37.33949874" lon="-4.35147948">
<ele>1149</ele>
<time>2015-05-12T18:35:20Z</time>
</trkpt>
<trkpt lat="37.33934337" lon="-4.35143361">
<ele>1147</ele>
<time>2015-05-12T18:35:22Z</time>
</trkpt>
<trkpt lat="37.33916822" lon="-4.35137283">
<ele>1145</ele>
<time>2015-05-12T18:35:24Z</time>
</trkpt>
<trkpt lat="37.33899231" lon="-4.35132913">
<ele>1147</ele>
<time>2015-05-12T18:35:26Z</time>
</trkpt>
<trkpt lat="37.33885083" lon="-4.35128814">
<ele>1151</ele>
<time>2015-05-12T18:35:28Z</time>
</trkpt>
<trkpt lat="37.33876467" lon="-4.35128435">
<ele>1154</ele>
<time>2015-05-12T18:35:30Z</time>
</trkpt>
<trkpt lat="37.33868039" lon="-4.35130274">
<ele>1153</ele>
<time>2015-05-12T18:35:32Z</time>
</trkpt>
<trkpt lat="37.33855149" lon="-4.35129378">
<ele>1152</ele>
<time>2015-05-12T18:35:34Z</time>
</trkpt>
<trkpt lat="37.33836962" lon="-4.35132107">
<ele>1151</ele>
<time>2015-05-12T18:35:36Z</time>
</trkpt>
<trkpt lat="37.3382265" lon="-4.35135366">
<ele>1150</ele>
<time>2015-05-12T18:35:38Z</time>
</trkpt>
<trkpt lat="37.33808435" lon="-4.35138828">
<ele>1148</ele>
<time>2015-05-12T18:35:40Z</time>
</trkpt>
<trkpt lat="37.33797103" lon="-4.35140594">
<ele>1147</ele>
<time>2015-05-12T18:35:42Z</time>
</trkpt>
<trkpt lat="37.33785703" lon="-4.35144954">
<ele>1146</ele>
<time>2015-05-12T18:35:44Z</time>
</trkpt>
<trkpt lat="37.33772382" lon="-4.35148598">
<ele>1146</ele>
<time>2015-05-12T18:35:46Z</time>
</trkpt>
<trkpt lat="37.33758752" lon="-4.35151466">
<ele>1144</ele>
<time>2015-05-12T18:35:48Z</time>
</trkpt>
<trkpt lat="37.33744173" lon="-4.35154007">
<ele>1142</ele>
<time>2015-05-12T18:35:50Z</time>
</trkpt>
<trkpt lat="37.3372855" lon="-4.35158407">
<ele>1143</ele>
<time>2015-05-12T18:35:52Z</time>
</trkpt>
<trkpt lat="37.33718582" lon="-4.35163221">
<ele>1147</ele>
<time>2015-05-12T18:35:54Z</time>
</trkpt>
<trkpt lat="37.33711168" lon="-4.35169075">
<ele>1149</ele>
<time>2015-05-12T18:35:56Z</time>
</trkpt>
<trkpt lat="37.33702203" lon="-4.35171997">
<ele>1150</ele>
<time>2015-05-12T18:35:58Z</time>
</trkpt>
<trkpt lat="37.33687687" lon="-4.35171087">
<ele>1150</ele>
<time>2015-05-12T18:36:00Z</time>
</trkpt>
<trkpt lat="37.33672976" lon="-4.35168402">
<ele>1152</ele>
<time>2015-05-12T18:36:02Z</time>
</trkpt>
<trkpt lat="37.33660586" lon="-4.35169421">
<ele>1155</ele>
<time>2015-05-12T18:36:04Z</time>
</trkpt>
<trkpt lat="37.33650839" lon="-4.3517486">
<ele>1156</ele>
<time>2015-05-12T18:36:06Z</time>
</trkpt>
<trkpt lat="37.33647367" lon="-4.35185153">
<ele>1156</ele>
<time>2015-05-12T18:36:08Z</time>
</trkpt>
<trkpt lat="37.33660922" lon="-4.35193674">
<ele>1162</ele>
<time>2015-05-12T18:36:10Z</time>
</trkpt>
<trkpt lat="37.33678001" lon="-4.35184869">
<ele>1164</ele>
<time>2015-05-12T18:36:12Z</time>
</trkpt>
<trkpt lat="37.33688991" lon="-4.35163324">
<ele>1165</ele>
<time>2015-05-12T18:36:14Z</time>
</trkpt>
<trkpt lat="37.336952" lon="-4.35136506">
<ele>1166</ele>
<time>2015-05-12T18:36:16Z</time>
</trkpt>
<trkpt lat="37.33702607" lon="-4.35109285">
<ele>1168</ele>
<time>2015-05-12T18:36:18Z</time>
</trkpt>
<trkpt lat="37.3371508" lon="-4.3508689">
<ele>1170</ele>
<time>2015-05-12T18:36:20Z</time>
</trkpt>
<trkpt lat="37.33731718" lon="-4.35074292">
<ele>1171</ele>
<time>2015-05-12T18:36:22Z</time>
</trkpt>
<trkpt lat="37.33746705" lon="-4.35074209">
<ele>1172</ele>
<time>2015-05-12T18:36:24Z</time>
</trkpt>
<trkpt lat="37.33756036" lon="-4.3508509">
<ele>1174</ele>
<time>2015-05-12T18:36:26Z</time>
</trkpt>
<trkpt lat="37.33757461" lon="-4.35097413">
<ele>1177</ele>
<time>2015-05-12T18:36:28Z</time>
</trkpt>
<trkpt lat="37.33758726" lon="-4.35108014">
<ele>1179</ele>
<time>2015-05-12T18:36:30Z</time>
</trkpt>
<trkpt lat="37.33759253" lon="-4.35117584">
<ele>1180</ele>
<time>2015-05-12T18:36:32Z</time>
</trkpt>
<trkpt lat="37.33754871" lon="-4.35126098">
<ele>1181</ele>
<time>2015-05-12T18:36:34Z</time>
</trkpt>
<trkpt lat="37.33741738" lon="-4.3512792">
<ele>1180</ele>
<time>2015-05-12T18:36:36Z</time>
</trkpt>
<trkpt lat="37.3372459" lon="-4.35114683">
<ele>1180</ele>
<time>2015-05-12T18:36:38Z</time>
</trkpt>
<trkpt lat="37.33715836" lon="-4.35084928">
<ele>1180</ele>
<time>2015-05-12T18:36:40Z</time>
</trkpt>
<trkpt lat="37.33724018" lon="-4.35057537">
<ele>1183</ele>
<time>2015-05-12T18:36:42Z</time>
</trkpt>
<trkpt lat="37.33740601" lon="-4.35039565">
<ele>1183</ele>
<time>2015-05-12T18:36:44Z</time>
</trkpt>
<trkpt lat="37.33756773" lon="-4.35038066">
<ele>1181</ele>
<time>2015-05-12T18:36:46Z</time>
</trkpt>
<trkpt lat="37.3376395" lon="-4.35046778">
<ele>1181</ele>
<time>2015-05-12T18:36:48Z</time>
</trkpt>
<trkpt lat="37.33761497" lon="-4.35058887">
<ele>1181</ele>
<time>2015-05-12T18:36:50Z</time>
</trkpt>
<trkpt lat="37.33751652" lon="-4.3506589">
<ele>1183</ele>
<time>2015-05-12T18:36:52Z</time>
</trkpt>
<trkpt lat="37.33738721" lon="-4.35069528">
<ele>1184</ele>
<time>2015-05-12T18:36:54Z</time>
</trkpt>
<trkpt lat="37.33725447" lon="-4.35070993">
<ele>1184</ele>
<time>2015-05-12T18:36:56Z</time>
</trkpt>
<trkpt lat="37.33710408" lon="-4.35075739">
<ele>1184</ele>
<time>2015-05-12T18:36:58Z</time>
</trkpt>
<trkpt lat="37.33695327" lon="-4.35083951">
<ele>1185</ele>
<time>2015-05-12T18:37:00Z</time>
</trkpt>
<trkpt lat="37.33683308" lon="-4.35089793">
<ele>1187</ele>
<time>2015-05-12T18:37:02Z</time>
</trkpt>
<trkpt lat="37.33672831" lon="-4.35091847">
<ele>1190</ele>
<time>2015-05-12T18:37:04Z</time>
</trkpt>
<trkpt lat="37.33659844" lon="-4.35091594">
<ele>1190</ele>
<time>2015-05-12T18:37:06Z</time>
</trkpt>
<trkpt lat="37.33643861" lon="-4.35093215">
<ele>1190</ele>
<time>2015-05-12T18:37:08Z</time>
</trkpt>
<trkpt lat="37.33630683" lon="-4.35098378">
<ele>1189</ele>
<time>2015-05-12T18:37:10Z</time>
</trkpt>
<trkpt lat="37.33625779" lon="-4.35109073">
<ele>1190</ele>
<time>2015-05-12T18:37:12Z</time>
</trkpt>
<trkpt lat="37.33623991" lon="-4.35119377">
<ele>1192</ele>
<time>2015-05-12T18:37:14Z</time>
</trkpt>
<trkpt lat="37.33621475" lon="-4.35128172">
<ele>1195</ele>
<time>2015-05-12T18:37:16Z</time>
</trkpt>
<trkpt lat="37.33613615" lon="-4.35134977">
<ele>1198</ele>
<time>2015-05-12T18:37:18Z</time>
</trkpt>
<trkpt lat="37.33600167" lon="-4.35136264">
<ele>1199</ele>
<time>2015-05-12T18:37:20Z</time>
</trkpt>
<trkpt lat="37.33582829" lon="-4.35130554">
<ele>1201</ele>
<time>2015-05-12T18:37:22Z</time>
</trkpt>
<trkpt lat="37.33566429" lon="-4.35124468">
<ele>1202</ele>
<time>2015-05-12T18:37:24Z</time>
</trkpt>
<trkpt lat="37.3355005" lon="-4.35123777">
<ele>1203</ele>
<time>2015-05-12T18:37:26Z</time>
</trkpt>
<trkpt lat="37.3353758" lon="-4.3512946">
<ele>1205</ele>
<time>2015-05-12T18:37:28Z</time>
</trkpt>
<trkpt lat="37.33528459" lon="-4.35142805">
<ele>1209</ele>
<time>2015-05-12T18:37:30Z</time>
</trkpt>
<trkpt lat="37.33537539" lon="-4.35151633">
<ele>1208</ele>
<time>2015-05-12T18:37:32Z</time>
</trkpt>
<trkpt lat="37.33553923" lon="-4.35142924">
<ele>1209</ele>
<time>2015-05-12T18:37:34Z</time>
</trkpt>
<trkpt lat="37.3356606" lon="-4.3511967">
<ele>1211</ele>
<time>2015-05-12T18:37:36Z</time>
</trkpt>
<trkpt lat="37.33575099" lon="-4.35100042">
<ele>1217</ele>
<time>2015-05-12T18:37:38Z</time>
</trkpt>
<trkpt lat="37.33588095" lon="-4.35088187">
<ele>1217</ele>
<time>2015-05-12T18:37:40Z</time>
</trkpt>
<trkpt lat="37.33601448" lon="-4.35089117">
<ele>1218</ele>
<time>2015-05-12T18:37:42Z</time>
</trkpt>
<trkpt lat="37.33614187" lon="-4.35097368">
<ele>1220</ele>
<time>2015-05-12T18:37:44Z</time>
</trkpt>
<trkpt lat="37.33621785" lon="-4.35111362">
<ele>1223</ele>
<time>2015-05-12T18:37:46Z</time>
</trkpt>
<trkpt lat="37.33622972" lon="-4.35124634">
<ele>1226</ele>
<time>2015-05-12T18:37:48Z</time>
</trkpt>
<trkpt lat="37.33613746" lon="-4.35132698">
<ele>1226</ele>
<time>2015-05-12T18:37:50Z</time>
</trkpt>
<trkpt lat="37.33597782" lon="-4.35130844">
<ele>1224</ele>
<time>2015-05-12T18:37:52Z</time>
</trkpt>
<trkpt lat="37.33578165" lon="-4.35121575">
<ele>1221</ele>
<time>2015-05-12T18:37:54Z</time>
</trkpt>
<trkpt lat="37.33560328" lon="-4.35114835">
<ele>1220</ele>
<time>2015-05-12T18:37:56Z</time>
</trkpt>
<trkpt lat="37.33544808" lon="-4.35118106">
<ele>1219</ele>
<time>2015-05-12T18:37:58Z</time>
</trkpt>
<trkpt lat="37.33537866" lon="-4.35129529">
<ele>1216</ele>
<time>2015-05-12T18:38:00Z</time>
</trkpt>
<trkpt lat="37.33545642" lon="-4.35141376">
<ele>1215</ele>
<time>2015-05-12T18:38:02Z</time>
</trkpt>
<trkpt lat="37.33560046" lon="-4.35145339">
<ele>1215</ele>
<time>2015-05-12T18:38:04Z</time>
</trkpt>
<trkpt lat="37.33574001" lon="-4.35142503">
<ele>1216</ele>
<time>2015-05-12T18:38:06Z</time>
</trkpt>
<trkpt lat="37.33590407" lon="-4.35131274">
<ele>1214</ele>
<time>2015-05-12T18:38:08Z</time>
</trkpt>
<trkpt lat="37.33603746" lon="-4.35113562">
<ele>1212</ele>
<time>2015-05-12T18:38:10Z</time>
</trkpt>
<trkpt lat="37.33617342" lon="-4.35096624">
<ele>1211</ele>
<time>2015-05-12T18:38:12Z</time>
</trkpt>
<trkpt lat="37.33633365" lon="-4.35082661">
<ele>1210</ele>
<time>2015-05-12T18:38:14Z</time>
</trkpt>
<trkpt lat="37.33650681" lon="-4.35067775">
<ele>1209</ele>
<time>2015-05-12T18:38:16Z</time>
</trkpt>
<trkpt lat="37.33668721" lon="-4.35050575">
<ele>1211</ele>
<time>2015-05-12T18:38:18Z</time>
</trkpt>
<trkpt lat="37.33685117" lon="-4.35039413">
<ele>1210</ele>
<time>2015-05-12T18:38:20Z</time>
</trkpt>
<trkpt lat="37.33701107" lon="-4.3503412">
<ele>1210</ele>
<time>2015-05-12T18:38:22Z</time>
</trkpt>
<trkpt lat="37.33714313" lon="-4.35035272">
<ele>1209</ele>
<time>2015-05-12T18:38:24Z</time>
</trkpt>
<trkpt lat="37.33720591" lon="-4.35049949">
<ele>1209</ele>
<time>2015-05-12T18:38:26Z</time>
</trkpt>
<trkpt lat="37.3371207" lon="-4.350617">
<ele>1206</ele>
<time>2015-05-12T18:38:28Z</time>
</trkpt>
<trkpt lat="37.33696964" lon="-4.35063481">
<ele>1207</ele>
<time>2015-05-12T18:38:30Z</time>
</trkpt>
<trkpt lat="37.33681955" lon="-4.35057766">
<ele>1209</ele>
<time>2015-05-12T18:38:32Z</time>
</trkpt>
<trkpt lat="37.33665695" lon="-4.35052758">
<ele>1207</ele>
<time>2015-05-12T18:38:34Z</time>
</trkpt>
<trkpt lat="37.33651266" lon="-4.35049913">
<ele>1206</ele>
<time>2015-05-12T18:38:36Z</time>
</trkpt>
<trkpt lat="37.33635169" lon="-4.35059986">
<ele>1204</ele>
<time>2015-05-12T18:38:38Z</time>
</trkpt>
<trkpt lat="37.33617658" lon="-4.35070479">
<ele>1204</ele>
<time>2015-05-12T18:38:40Z</time>
</trkpt>
<trkpt lat="37.33604116" lon="-4.35072352">
<ele>1203</ele>
<time>2015-05-12T18:38:42Z</time>
</trkpt>
<trkpt lat="37.33589357" lon="-4.35074762">
<ele>1204</ele>
<time>2015-05-12T18:38:44Z</time>
</trkpt>
<trkpt lat="37.33574444" lon="-4.35078297">
<ele>1206</ele>
<time>2015-05-12T18:38:46Z</time>
</trkpt>
<trkpt lat="37.33559936" lon="-4.35082104">
<ele>1207</ele>
<time>2015-05-12T18:38:48Z</time>
</trkpt>
<trkpt lat="37.33546194" lon="-4.35083855">
<ele>1208</ele>
<time>2015-05-12T18:38:50Z</time>
</trkpt>
<trkpt lat="37.33533305" lon="-4.35092586">
<ele>1208</ele>
<time>2015-05-12T18:38:52Z</time>
</trkpt>
<trkpt lat="37.33526093" lon="-4.35105386">
<ele>1210</ele>
<time>2015-05-12T18:38:54Z</time>
</trkpt>
<trkpt lat="37.33524589" lon="-4.35114336">
<ele>1209</ele>
<time>2015-05-12T18:38:56Z</time>
</trkpt>
<trkpt lat="37.33535826" lon="-4.35125637">
<ele>1210</ele>
<time>2015-05-12T18:38:58Z</time>
</trkpt>
<trkpt lat="37.33546115" lon="-4.35135633">
<ele>1210</ele>
<time>2015-05-12T18:39:00Z</time>
</trkpt>
<trkpt lat="37.33553495" lon="-4.3515037">
<ele>1212</ele>
<time>2015-05-12T18:39:02Z</time>
</trkpt>
<trkpt lat="37.33561579" lon="-4.35161258">
<ele>1213</ele>
<time>2015-05-12T18:39:04Z</time>
</trkpt>
<trkpt lat="37.33571678" lon="-4.35167994">
<ele>1215</ele>
<time>2015-05-12T18:39:06Z</time>
</trkpt>
<trkpt lat="37.33585743" lon="-4.35171795">
<ele>1213</ele>
<time>2015-05-12T18:39:08Z</time>
</trkpt>
<trkpt lat="37.3359874" lon="-4.35179122">
<ele>1214</ele>
<time>2015-05-12T18:39:10Z</time>
</trkpt>
<trkpt lat="37.33607206" lon="-4.35192559">
<ele>1215</ele>
<time>2015-05-12T18:39:12Z</time>
</trkpt>
<trkpt lat="37.33610866" lon="-4.35208503">
<ele>1216</ele>
<time>2015-05-12T18:39:14Z</time>
</trkpt>
<trkpt lat="37.33608679" lon="-4.35223827">
<ele>1217</ele>
<time>2015-05-12T18:39:16Z</time>
</trkpt>
<trkpt lat="37.33601575" lon="-4.35238463">
<ele>1217</ele>
<time>2015-05-12T18:39:18Z</time>
</trkpt>
<trkpt lat="37.33591662" lon="-4.35250032">
<ele>1218</ele>
<time>2015-05-12T18:39:20Z</time>
</trkpt>
<trkpt lat="37.33576557" lon="-4.35252516">
<ele>1217</ele>
<time>2015-05-12T18:39:22Z</time>
</trkpt>
<trkpt lat="37.33559493" lon="-4.35240985">
<ele>1216</ele>
<time>2015-05-12T18:39:24Z</time>
</trkpt>
<trkpt lat="37.33552574" lon="-4.35210607">
<ele>1214</ele>
<time>2015-05-12T18:39:26Z</time>
</trkpt>
<trkpt lat="37.33559771" lon="-4.35181127">
<ele>1215</ele>
<time>2015-05-12T18:39:28Z</time>
</trkpt>
<trkpt lat="37.33572015" lon="-4.35164249">
<ele>1216</ele>
<time>2015-05-12T18:39:30Z</time>
</trkpt>
<trkpt lat="37.33586469" lon="-4.35151962">
<ele>1215</ele>
<time>2015-05-12T18:39:32Z</time>
</trkpt>
<trkpt lat="37.33604366" lon="-4.3514258">
<ele>1214</ele>
<time>2015-05-12T18:39:34Z</time>
</trkpt>
<trkpt lat="37.33621742" lon="-4.35136451">
<ele>1215</ele>
<time>2015-05-12T18:39:36Z</time>
</trkpt>
<trkpt lat="37.33636029" lon="-4.35134493">
<ele>1216</ele>
<time>2015-05-12T18:39:38Z</time>
</trkpt>
<trkpt lat="37.33649524" lon="-4.35138231">
<ele>1217</ele>
<time>2015-05-12T18:39:40Z</time>
</trkpt>
<trkpt lat="37.3366259" lon="-4.35148515">
<ele>1218</ele>
<time>2015-05-12T18:39:42Z</time>
</trkpt>
<trkpt lat="37.3366909" lon="-4.35164105">
<ele>1219</ele>
<time>2015-05-12T18:39:44Z</time>
</trkpt>
<trkpt lat="37.33670516" lon="-4.35179718">
<ele>1219</ele>
<time>2015-05-12T18:39:46Z</time>
</trkpt>
<trkpt lat="37.3366729" lon="-4.35195835">
<ele>1219</ele>
<time>2015-05-12T18:39:48Z</time>
</trkpt>
<trkpt lat="37.3365503" lon="-4.35206499">
<ele>1220</ele>
<time>2015-05-12T18:39:50Z</time>
</trkpt>
<trkpt lat="37.33640901" lon="-4.35207131">
<ele>1222</ele>
<time>2015-05-12T18:39:52Z</time>
</trkpt>
<trkpt lat="37.33622978" lon="-4.35201694">
<ele>1225</ele>
<time>2015-05-12T18:39:54Z</time>
</trkpt>
<trkpt lat="37.33610826" lon="-4.35189104">
<ele>1228</ele>
<time>2015-05-12T18:39:56Z</time>
</trkpt>
<trkpt lat="37.33607017" lon="-4.35163473">
<ele>1229</ele>
<time>2015-05-12T18:39:58Z</time>
</trkpt>
<trkpt lat="37.33614473" lon="-4.35141082">
<ele>1230</ele>
<time>2015-05-12T18:40:00Z</time>
</trkpt>
<trkpt lat="37.33629033" lon="-4.35135413">
<ele>1230</ele>
<time>2015-05-12T18:40:02Z</time>
</trkpt>
<trkpt lat="37.33644711" lon="-4.35143047">
<ele>1230</ele>
<time>2015-05-12T18:40:04Z</time>
</trkpt>
<trkpt lat="37.33658836" lon="-4.3515799">
<ele>1230</ele>
<time>2015-05-12T18:40:06Z</time>
</trkpt>
<trkpt lat="37.33660897" lon="-4.3517467">
<ele>1234</ele>
<time>2015-05-12T18:40:08Z</time>
</trkpt>
<trkpt lat="37.33654366" lon="-4.35186077">
<ele>1235</ele>
<time>2015-05-12T18:40:10Z</time>
</trkpt>
<trkpt lat="37.33642202" lon="-4.35192676">
<ele>1237</ele>
<time>2015-05-12T18:40:12Z</time>
</trkpt>
<trkpt lat="37.33624909" lon="-4.35188335">
<ele>1238</ele>
<time>2015-05-12T18:40:14Z</time>
</trkpt>
<trkpt lat="37.33609194" lon="-4.35173103">
<ele>1238</ele>
<time>2015-05-12T18:40:16Z</time>
</trkpt>
<trkpt lat="37.33597193" lon="-4.35151731">
<ele>1239</ele>
<time>2015-05-12T18:40:18Z</time>
</trkpt>
<trkpt lat="37.33595136" lon="-4.35120991">
<ele>1242</ele>
<time>2015-05-12T18:40:20Z</time>
</trkpt>
<trkpt lat="37.336026" lon="-4.35100624">
<ele>1249</ele>
<time>2015-05-12T18:40:22Z</time>
</trkpt>
<trkpt lat="37.33616809" lon="-4.35091952">
<ele>1253</ele>
<time>2015-05-12T18:40:24Z</time>
</trkpt>
<trkpt lat="37.33634171" lon="-4.35096911">
<ele>1253</ele>
<time>2015-05-12T18:40:26Z</time>
</trkpt>
<trkpt lat="37.3364866" lon="-4.35105987">
<ele>1255</ele>
<time>2015-05-12T18:40:28Z</time>
</trkpt>
<trkpt lat="37.33658259" lon="-4.35116398">
<ele>1258</ele>
<time>2015-05-12T18:40:30Z</time>
</trkpt>
<trkpt lat="37.33662199" lon="-4.35129147">
<ele>1260</ele>
<time>2015-05-12T18:40:32Z</time>
</trkpt>
<trkpt lat="37.33658038" lon="-4.35141886">
<ele>1262</ele>
<time>2015-05-12T18:40:34Z</time>
</trkpt>
<trkpt lat="37.33648005" lon="-4.35149763">
<ele>1265</ele>
<time>2015-05-12T18:40:36Z</time>
</trkpt>
<trkpt lat="37.33633379" lon="-4.35148672">
<ele>1268</ele>
<time>2015-05-12T18:40:38Z</time>
</trkpt>
<trkpt lat="37.33619128" lon="-4.35136466">
<ele>1270</ele>
<time>2015-05-12T18:40:40Z</time>
</trkpt>
<trkpt lat="37.33610529" lon="-4.35116593">
<ele>1271</ele>
<time>2015-05-12T18:40:42Z</time>
</trkpt>
<trkpt lat="37.33606719" lon="-4.3508962">
<ele>1273</ele>
<time>2015-05-12T18:40:44Z</time>
</trkpt>
<trkpt lat="37.33621075" lon="-4.3506658">
<ele>1280</ele>
<time>2015-05-12T18:40:46Z</time>
</trkpt>
<trkpt lat="37.3363698" lon="-4.35057822">
<ele>1285</ele>
<time>2015-05-12T18:40:48Z</time>
</trkpt>
<trkpt lat="37.33653616" lon="-4.35058342">
<ele>1287</ele>
<time>2015-05-12T18:40:50Z</time>
</trkpt>
<trkpt lat="37.33669443" lon="-4.35063101">
<ele>1291</ele>
<time>2015-05-12T18:40:52Z</time>
</trkpt>
<trkpt lat="37.33681325" lon="-4.35070639">
<ele>1291</ele>
<time>2015-05-12T18:40:54Z</time>
</trkpt>
<trkpt lat="37.33690524" lon="-4.35081743">
<ele>1292</ele>
<time>2015-05-12T18:40:56Z</time>
</trkpt>
<trkpt lat="37.33697053" lon="-4.35097955">
<ele>1293</ele>
<time>2015-05-12T18:40:58Z</time>
</trkpt>
<trkpt lat="37.33694159" lon="-4.35111453">
<ele>1295</ele>
<time>2015-05-12T18:41:00Z</time>
</trkpt>
<trkpt lat="37.33686437" lon="-4.35122858">
<ele>1295</ele>
<time>2015-05-12T18:41:02Z</time>
</trkpt>
<trkpt lat="37.33674063" lon="-4.35131224">
<ele>1294</ele>
<time>2015-05-12T18:41:04Z</time>
</trkpt>
<trkpt lat="37.33657846" lon="-4.35133876">
<ele>1292</ele>
<time>2015-05-12T18:41:06Z</time>
</trkpt>
<trkpt lat="37.33641694" lon="-4.35126088">
<ele>1293</ele>
<time>2015-05-12T18:41:08Z</time>
</trkpt>
<trkpt lat="37.33630818" lon="-4.3510375">
<ele>1291</ele>
<time>2015-05-12T18:41:10Z</time>
</trkpt>
<trkpt lat="37.33627779" lon="-4.35073481">
<ele>1293</ele>
<time>2015-05-12T18:41:12Z</time>
</trkpt>
<trkpt lat="37.33630963" lon="-4.35046702">
<ele>1296</ele>
<time>2015-05-12T18:41:14Z</time>
</trkpt>
<trkpt lat="37.33637047" lon="-4.35022462">
<ele>1298</ele>
<time>2015-05-12T18:41:16Z</time>
</trkpt>
<trkpt lat="37.33649937" lon="-4.35002309">
<ele>1297</ele>
<time>2015-05-12T18:41:18Z</time>
</trkpt>
<trkpt lat="37.33664411" lon="-4.34984556">
<ele>1297</ele>
<time>2015-05-12T18:41:20Z</time>
</trkpt>
<trkpt lat="37.33681895" lon="-4.34973302">
<ele>1299</ele>
<time>2015-05-12T18:41:22Z</time>
</trkpt>
<trkpt lat="37.33698077" lon="-4.34968984">
<ele>1301</ele>
<time>2015-05-12T18:41:24Z</time>
</trkpt>
<trkpt lat="37.33714565" lon="-4.34971869">
<ele>1303</ele>
<time>2015-05-12T18:41:26Z</time>
</trkpt>
<trkpt lat="37.33726519" lon="-4.34980024">
<ele>1307</ele>
<time>2015-05-12T18:41:28Z</time>
</trkpt>
<trkpt lat="37.33738463" lon="-4.349883">
<ele>1306</ele>
<time>2015-05-12T18:41:30Z</time>
</trkpt>
<trkpt lat="37.33745243" lon="-4.35000132">
<ele>1307</ele>
<time>2015-05-12T18:41:32Z</time>
</trkpt>
<trkpt lat="37.33744687" lon="-4.35014952">
<ele>1307</ele>
<time>2015-05-12T18:41:34Z</time>
</trkpt>
<trkpt lat="37.33736177" lon="-4.35024406">
<ele>1307</ele>
<time>2015-05-12T18:41:36Z</time>
</trkpt>
<trkpt lat="37.33722791" lon="-4.35021355">
<ele>1306</ele>
<time>2015-05-12T18:41:38Z</time>
</trkpt>
<trkpt lat="37.33708596" lon="-4.35007263">
<ele>1305</ele>
<time>2015-05-12T18:41:40Z</time>
</trkpt>
<trkpt lat="37.33699909" lon="-4.34980421">
<ele>1304</ele>
<time>2015-05-12T18:41:42Z</time>
</trkpt>
<trkpt lat="37.33701447" lon="-4.34951694">
<ele>1305</ele>
<time>2015-05-12T18:41:44Z</time>
</trkpt>
<trkpt lat="37.33713082" lon="-4.34926232">
<ele>1304</ele>
<time>2015-05-12T18:41:46Z</time>
</trkpt>
<trkpt lat="37.33727887" lon="-4.34906731">
<ele>1304</ele>
<time>2015-05-12T18:41:48Z</time>
</trkpt>
<trkpt lat="37.33746188" lon="-4.34897961">
<ele>1303</ele>
<time>2015-05-12T18:41:50Z</time>
</trkpt>
<trkpt lat="37.33761275" lon="-4.34904325">
<ele>1304</ele>
<time>2015-05-12T18:41:52Z</time>
</trkpt>
<trkpt lat="37.33770143" lon="-4.34914497">
<ele>1307</ele>
<time>2015-05-12T18:41:54Z</time>
</trkpt>
<trkpt lat="37.33771536" lon="-4.34925488">
<ele>1307</ele>
<time>2015-05-12T18:41:56Z</time>
</trkpt>
<trkpt lat="37.33765284" lon="-4.34936511">
<ele>1306</ele>
<time>2015-05-12T18:41:58Z</time>
</trkpt>
<trkpt lat="37.33754004" lon="-4.34942228">
<ele>1306</ele>
<time>2015-05-12T18:42:00Z</time>
</trkpt>
<trkpt lat="37.33739946" lon="-4.3494178">
<ele>1306</ele>
<time>2015-05-12T18:42:02Z</time>
</trkpt>
<trkpt lat="37.33726224" lon="-4.34938297">
<ele>1307</ele>
<time>2015-05-12T18:42:04Z</time>
</trkpt>
<trkpt lat="37.33710728" lon="-4.34933534">
<ele>1307</ele>
<time>2015-05-12T18:42:06Z</time>
</trkpt>
<trkpt lat="37.33696644" lon="-4.34930099">
<ele>1309</ele>
<time>2015-05-12T18:42:08Z</time>
</trkpt>
<trkpt lat="37.33681595" lon="-4.34928182">
<ele>1309</ele>
<time>2015-05-12T18:42:10Z</time>
</trkpt>
<trkpt lat="37.33668222" lon="-4.34928832">
<ele>1309</ele>
<time>2015-05-12T18:42:12Z</time>
</trkpt>
<trkpt lat="37.33656657" lon="-4.34934281">
<ele>1309</ele>
<time>2015-05-12T18:42:14Z</time>
</trkpt>
<trkpt lat="37.33650131" lon="-4.34942502">
<ele>1306</ele>
<time>2015-05-12T18:42:16Z</time>
</trkpt>
<trkpt lat="37.33646895" lon="-4.3495723">
<ele>1309</ele>
<time>2015-05-12T18:42:18Z</time>
</trkpt>
<trkpt lat="37.3364739" lon="-4.34971462">
<ele>1309</ele>
<time>2015-05-12T18:42:20Z</time>
</trkpt>
<trkpt lat="37.33651024" lon="-4.34987516">
<ele>1308</ele>
<time>2015-05-12T18:42:22Z</time>
</trkpt>
<trkpt lat="37.3365077" lon="-4.35002511">
<ele>1308</ele>
<time>2015-05-12T18:42:24Z</time>
</trkpt>
<trkpt lat="37.33646278" lon="-4.35015054">
<ele>1309</ele>
<time>2015-05-12T18:42:26Z</time>
</trkpt>
<trkpt lat="37.33637954" lon="-4.35024859">
<ele>1310</ele>
<time>2015-05-12T18:42:28Z</time>
</trkpt>
<trkpt lat="37.33624185" lon="-4.35031921">
<ele>1309</ele>
<time>2015-05-12T18:42:30Z</time>
</trkpt>
<trkpt lat="37.33609323" lon="-4.35035326">
<ele>1310</ele>
<time>2015-05-12T18:42:32Z</time>
</trkpt>
<trkpt lat="37.33594616" lon="-4.35039129">
<ele>1311</ele>
<time>2015-05-12T18:42:34Z</time>
</trkpt>
<trkpt lat="37.33583453" lon="-4.35045703">
<ele>1311</ele>
<time>2015-05-12T18:42:36Z</time>
</trkpt>
<trkpt lat="37.33575177" lon="-4.35055466">
<ele>1312</ele>
<time>2015-05-12T18:42:38Z</time>
</trkpt>
<trkpt lat="37.33573695" lon="-4.35067083">
<ele>1310</ele>
<time>2015-05-12T18:42:40Z</time>
</trkpt>
<trkpt lat="37.33579652" lon="-4.35076888">
<ele>1308</ele>
<time>2015-05-12T18:42:42Z</time>
</trkpt>
<trkpt lat="37.33601575" lon="-4.35077306">
<ele>1307</ele>
<time>2015-05-12T18:42:44Z</time>
</trkpt>
<trkpt lat="37.33619945" lon="-4.35062199">
<ele>1307</ele>
<time>2015-05-12T18:42:46Z</time>
</trkpt>
<trkpt lat="37.33632454" lon="-4.35037481">
<ele>1306</ele>
<time>2015-05-12T18:42:48Z</time>
</trkpt>
<trkpt lat="37.33629951" lon="-4.35007255">
<ele>1307</ele>
<time>2015-05-12T18:42:50Z</time>
</trkpt>
<trkpt lat="37.33621016" lon="-4.34982625">
<ele>1307</ele>
<time>2015-05-12T18:42:52Z</time>
</trkpt>
<trkpt lat="37.33607819" lon="-4.34961866">
<ele>1311</ele>
<time>2015-05-12T18:42:54Z</time>
</trkpt>
<trkpt lat="37.33592069" lon="-4.34951709">
<ele>1313</ele>
<time>2015-05-12T18:42:56Z</time>
</trkpt>
<trkpt lat="37.33579547" lon="-4.34955025">
<ele>1313</ele>
<time>2015-05-12T18:42:58Z</time>
</trkpt>
<trkpt lat="37.33574254" lon="-4.34963932">
<ele>1311</ele>
<time>2015-05-12T18:43:00Z</time>
</trkpt>
<trkpt lat="37.3357683" lon="-4.34974687">
<ele>1310</ele>
<time>2015-05-12T18:43:02Z</time>
</trkpt>
<trkpt lat="37.33588104" lon="-4.3498479">
<ele>1309</ele>
<time>2015-05-12T18:43:04Z</time>
</trkpt>
<trkpt lat="37.33597506" lon="-4.34997563">
<ele>1309</ele>
<time>2015-05-12T18:43:06Z</time>
</trkpt>
<trkpt lat="37.33603368" lon="-4.35011699">
<ele>1309</ele>
<time>2015-05-12T18:43:08Z</time>
</trkpt>
<trkpt lat="37.33611222" lon="-4.35021872">
<ele>1310</ele>
<time>2015-05-12T18:43:10Z</time>
</trkpt>
<trkpt lat="37.33619425" lon="-4.35030241">
<ele>1310</ele>
<time>2015-05-12T18:43:12Z</time>
</trkpt>
<trkpt lat="37.33632982" lon="-4.35035788">
<ele>1308</ele>
<time>2015-05-12T18:43:14Z</time>
</trkpt>
<trkpt lat="37.33651066" lon="-4.35033681">
<ele>1309</ele>
<time>2015-05-12T18:43:16Z</time>
</trkpt>
<trkpt lat="37.33669256" lon="-4.35019727">
<ele>1307</ele>
<time>2015-05-12T18:43:18Z</time>
</trkpt>
<trkpt lat="37.33681341" lon="-4.34997686">
<ele>1306</ele>
<time>2015-05-12T18:43:20Z</time>
</trkpt>
<trkpt lat="37.3368765" lon="-4.34972026">
<ele>1304</ele>
<time>2015-05-12T18:43:22Z</time>
</trkpt>
<trkpt lat="37.33691918" lon="-4.34943168">
<ele>1302</ele>
<time>2015-05-12T18:43:24Z</time>
</trkpt>
<trkpt lat="37.33698381" lon="-4.34914632">
<ele>1299</ele>
<time>2015-05-12T18:43:26Z</time>
</trkpt>
<trkpt lat="37.33706767" lon="-4.3488508">
<ele>1298</ele>
<time>2015-05-12T18:43:28Z</time>
</trkpt>
<trkpt lat="37.3371528" lon="-4.34855418">
<ele>1297</ele>
<time>2015-05-12T18:43:30Z</time>
</trkpt>
<trkpt lat="37.33723866" lon="-4.34825457">
<ele>1297</ele>
<time>2015-05-12T18:43:32Z</time>
</trkpt>
<trkpt lat="37.33733888" lon="-4.34796885">
<ele>1296</ele>
<time>2015-05-12T18:43:34Z</time>
</trkpt>
<trkpt lat="37.33745526" lon="-4.34769883">
<ele>1295</ele>
<time>2015-05-12T18:43:36Z</time>
</trkpt>
<trkpt lat="37.33759472" lon="-4.34744179">
<ele>1292</ele>
<time>2015-05-12T18:43:38Z</time>
</trkpt>
<trkpt lat="37.33772317" lon="-4.34717003">
<ele>1291</ele>
<time>2015-05-12T18:43:40Z</time>
</trkpt>
<trkpt lat="37.33785028" lon="-4.34689306">
<ele>1292</ele>
<time>2015-05-12T18:43:42Z</time>
</trkpt>
<trkpt lat="37.33795189" lon="-4.34667602">
<ele>1296</ele>
<time>2015-05-12T18:43:44Z</time>
</trkpt>
<trkpt lat="37.33807116" lon="-4.34658134">
<ele>1294</ele>
<time>2015-05-12T18:43:46Z</time>
</trkpt>
<trkpt lat="37.33822681" lon="-4.34662014">
<ele>1294</ele>
<time>2015-05-12T18:43:48Z</time>
</trkpt>
<trkpt lat="37.33832779" lon="-4.34670998">
<ele>1298</ele>
<time>2015-05-12T18:43:50Z</time>
</trkpt>
<trkpt lat="37.33843726" lon="-4.34678529">
<ele>1299</ele>
<time>2015-05-12T18:43:52Z</time>
</trkpt>
<trkpt lat="37.33852287" lon="-4.34687329">
<ele>1298</ele>
<time>2015-05-12T18:43:54Z</time>
</trkpt>
<trkpt lat="37.33858503" lon="-4.34698514">
<ele>1297</ele>
<time>2015-05-12T18:43:56Z</time>
</trkpt>
<trkpt lat="37.3385679" lon="-4.34712299">
<ele>1296</ele>
<time>2015-05-12T18:43:58Z</time>
</trkpt>
<trkpt lat="37.33853471" lon="-4.34724934">
<ele>1297</ele>
<time>2015-05-12T18:44:00Z</time>
</trkpt>
<trkpt lat="37.33850905" lon="-4.34735899">
<ele>1297</ele>
<time>2015-05-12T18:44:02Z</time>
</trkpt>
<trkpt lat="37.33849744" lon="-4.34747224">
<ele>1294</ele>
<time>2015-05-12T18:44:04Z</time>
</trkpt>
<trkpt lat="37.33847358" lon="-4.34762488">
<ele>1291</ele>
<time>2015-05-12T18:44:06Z</time>
</trkpt>
<trkpt lat="37.33842136" lon="-4.34775086">
<ele>1290</ele>
<time>2015-05-12T18:44:08Z</time>
</trkpt>
<trkpt lat="37.33832889" lon="-4.34785561">
<ele>1292</ele>
<time>2015-05-12T18:44:10Z</time>
</trkpt>
<trkpt lat="37.3382408" lon="-4.3479435">
<ele>1292</ele>
<time>2015-05-12T18:44:12Z</time>
</trkpt>
<trkpt lat="37.33817597" lon="-4.34802876">
<ele>1292</ele>
<time>2015-05-12T18:44:14Z</time>
</trkpt>
<trkpt lat="37.33810319" lon="-4.34813607">
<ele>1291</ele>
<time>2015-05-12T18:44:16Z</time>
</trkpt>
<trkpt lat="37.33800541" lon="-4.34826073">
<ele>1292</ele>
<time>2015-05-12T18:44:18Z</time>
</trkpt>
<trkpt lat="37.33791129" lon="-4.34836295">
<ele>1291</ele>
<time>2015-05-12T18:44:20Z</time>
</trkpt>
<trkpt lat="37.33780123" lon="-4.34844099">
<ele>1290</ele>
<time>2015-05-12T18:44:22Z</time>
</trkpt>
<trkpt lat="37.33771096" lon="-4.34850704">
<ele>1289</ele>
<time>2015-05-12T18:44:24Z</time>
</trkpt>
<trkpt lat="37.33761323" lon="-4.34858965">
<ele>1290</ele>
<time>2015-05-12T18:44:26Z</time>
</trkpt>
<trkpt lat="37.33754443" lon="-4.34869374">
<ele>1296</ele>
<time>2015-05-12T18:44:28Z</time>
</trkpt>
<trkpt lat="37.33750908" lon="-4.34877536">
<ele>1299</ele>
<time>2015-05-12T18:44:30Z</time>
</trkpt>
<trkpt lat="37.3374926" lon="-4.34883573">
<ele>1300</ele>
<time>2015-05-12T18:44:32Z</time>
</trkpt>
<trkpt lat="37.33748065" lon="-4.34892184">
<ele>1299</ele>
<time>2015-05-12T18:44:34Z</time>
</trkpt>
<trkpt lat="37.33751414" lon="-4.34904044">
<ele>1298</ele>
<time>2015-05-12T18:44:36Z</time>
</trkpt>
<trkpt lat="37.3375428" lon="-4.34919084">
<ele>1300</ele>
<time>2015-05-12T18:44:38Z</time>
</trkpt>
<trkpt lat="37.33750529" lon="-4.34931353">
<ele>1300</ele>
<time>2015-05-12T18:44:40Z</time>
</trkpt>
<trkpt lat="37.33739644" lon="-4.3493548">
<ele>1300</ele>
<time>2015-05-12T18:44:42Z</time>
</trkpt>
<trkpt lat="37.33724471" lon="-4.34922179">
<ele>1297</ele>
<time>2015-05-12T18:44:44Z</time>
</trkpt>
<trkpt lat="37.33714619" lon="-4.3489845">
<ele>1298</ele>
<time>2015-05-12T18:44:46Z</time>
</trkpt>
<trkpt lat="37.33711958" lon="-4.34870069">
<ele>1300</ele>
<time>2015-05-12T18:44:48Z</time>
</trkpt>
<trkpt lat="37.33718649" lon="-4.34843069">
<ele>1302</ele>
<time>2015-05-12T18:44:50Z</time>
</trkpt>
<trkpt lat="37.33735163" lon="-4.34823117">
<ele>1300</ele>
<time>2015-05-12T18:44:52Z</time>
</trkpt>
<trkpt lat="37.33754406" lon="-4.34816777">
<ele>1302</ele>
<time>2015-05-12T18:44:54Z</time>
</trkpt>
<trkpt lat="37.33770594" lon="-4.34823459">
<ele>1307</ele>
<time>2015-05-12T18:44:56Z</time>
</trkpt>
<trkpt lat="37.33781407" lon="-4.34834506">
<ele>1309</ele>
<time>2015-05-12T18:44:58Z</time>
</trkpt>
<trkpt lat="37.33786416" lon="-4.34846721">
<ele>1310</ele>
<time>2015-05-12T18:45:00Z</time>
</trkpt>
<trkpt lat="37.33785597" lon="-4.34858224">
<ele>1310</ele>
<time>2015-05-12T18:45:02Z</time>
</trkpt>
<trkpt lat="37.33777215" lon="-4.34867149">
<ele>1308</ele>
<time>2015-05-12T18:45:04Z</time>
</trkpt>
<trkpt lat="37.33761381" lon="-4.34866564">
<ele>1308</ele>
<time>2015-05-12T18:45:06Z</time>
</trkpt>
<trkpt lat="37.33746136" lon="-4.34855003">
<ele>1308</ele>
<time>2015-05-12T18:45:08Z</time>
</trkpt>
<trkpt lat="37.33733883" lon="-4.34832431">
<ele>1308</ele>
<time>2015-05-12T18:45:10Z</time>
</trkpt>
<trkpt lat="37.33731246" lon="-4.34799794">
<ele>1308</ele>
<time>2015-05-12T18:45:12Z</time>
</trkpt>
<trkpt lat="37.33739199" lon="-4.34769328">
<ele>1309</ele>
<time>2015-05-12T18:45:14Z</time>
</trkpt>
<trkpt lat="37.33756375" lon="-4.34749001">
<ele>1309</ele>
<time>2015-05-12T18:45:16Z</time>
</trkpt>
<trkpt lat="37.33773475" lon="-4.34743634">
<ele>1312</ele>
<time>2015-05-12T18:45:18Z</time>
</trkpt>
<trkpt lat="37.3378669" lon="-4.34747363">
<ele>1315</ele>
<time>2015-05-12T18:45:20Z</time>
</trkpt>
<trkpt lat="37.33796578" lon="-4.34757588">
<ele>1316</ele>
<time>2015-05-12T18:45:22Z</time>
</trkpt>
<trkpt lat="37.33802458" lon="-4.34768242">
<ele>1317</ele>
<time>2015-05-12T18:45:24Z</time>
</trkpt>
<trkpt lat="37.33799931" lon="-4.3478027">
<ele>1318</ele>
<time>2015-05-12T18:45:26Z</time>
</trkpt>
<trkpt lat="37.33790793" lon="-4.34789085">
<ele>1318</ele>
<time>2015-05-12T18:45:28Z</time>
</trkpt>
<trkpt lat="37.33777577" lon="-4.34796956">
<ele>1318</ele>
<time>2015-05-12T18:45:30Z</time>
</trkpt>
<trkpt lat="37.33765724" lon="-4.34804362">
<ele>1317</ele>
<time>2015-05-12T18:45:32Z</time>
</trkpt>
<trkpt lat="37.33757802" lon="-4.34813332">
<ele>1316</ele>
<time>2015-05-12T18:45:34Z</time>
</trkpt>
<trkpt lat="37.33757993" lon="-4.34824774">
<ele>1316</ele>
<time>2015-05-12T18:45:36Z</time>
</trkpt>
<trkpt lat="37.33761803" lon="-4.34837762">
<ele>1315</ele>
<time>2015-05-12T18:45:38Z</time>
</trkpt>
<trkpt lat="37.33771419" lon="-4.34844137">
<ele>1313</ele>
<time>2015-05-12T18:45:40Z</time>
</trkpt>
<trkpt lat="37.33786701" lon="-4.34839552">
<ele>1313</ele>
<time>2015-05-12T18:45:42Z</time>
</trkpt>
<trkpt lat="37.3380352" lon="-4.34820016">
<ele>1311</ele>
<time>2015-05-12T18:45:44Z</time>
</trkpt>
<trkpt lat="37.33811159" lon="-4.34788995">
<ele>1311</ele>
<time>2015-05-12T18:45:46Z</time>
</trkpt>
<trkpt lat="37.33810226" lon="-4.3475709">
<ele>1309</ele>
<time>2015-05-12T18:45:48Z</time>
</trkpt>
<trkpt lat="37.33813255" lon="-4.34724402">
<ele>1308</ele>
<time>2015-05-12T18:45:50Z</time>
</trkpt>
<trkpt lat="37.33823186" lon="-4.34694638">
<ele>1308</ele>
<time>2015-05-12T18:45:52Z</time>
</trkpt>
<trkpt lat="37.33836803" lon="-4.34669782">
<ele>1306</ele>
<time>2015-05-12T18:45:54Z</time>
</trkpt>
<trkpt lat="37.33855205" lon="-4.34654295">
<ele>1304</ele>
<time>2015-05-12T18:45:56Z</time>
</trkpt>
<trkpt lat="37.33874176" lon="-4.34645328">
<ele>1304</ele>
<time>2015-05-12T18:45:58Z</time>
</trkpt>
<trkpt lat="37.33891057" lon="-4.3464235">
<ele>1302</ele>
<time>2015-05-12T18:46:00Z</time>
</trkpt>
<trkpt lat="37.33904636" lon="-4.34646107">
<ele>1299</ele>
<time>2015-05-12T18:46:02Z</time>
</trkpt>
<trkpt lat="37.3391203" lon="-4.34656288">
<ele>1298</ele>
<time>2015-05-12T18:46:04Z</time>
</trkpt>
<trkpt lat="37.33909967" lon="-4.34674219">
<ele>1297</ele>
<time>2015-05-12T18:46:06Z</time>
</trkpt>
<trkpt lat="37.33907499" lon="-4.34687569">
<ele>1297</ele>
<time>2015-05-12T18:46:08Z</time>
</trkpt>
<trkpt lat="37.33900235" lon="-4.34698451">
<ele>1296</ele>
<time>2015-05-12T18:46:10Z</time>
</trkpt>
<trkpt lat="37.33889826" lon="-4.34710054">
<ele>1292</ele>
<time>2015-05-12T18:46:12Z</time>
</trkpt>
<trkpt lat="37.33877774" lon="-4.34723809">
<ele>1292</ele>
<time>2015-05-12T18:46:14Z</time>
</trkpt>
<trkpt lat="37.33868746" lon="-4.34734961">
<ele>1289</ele>
<time>2015-05-12T18:46:16Z</time>
</trkpt>
<trkpt lat="37.33858941" lon="-4.34746303">
<ele>1288</ele>
<time>2015-05-12T18:46:18Z</time>
</trkpt>
<trkpt lat="37.33848484" lon="-4.34755162">
<ele>1286</ele>
<time>2015-05-12T18:46:20Z</time>
</trkpt>
<trkpt lat="37.33837029" lon="-4.34764009">
<ele>1284</ele>
<time>2015-05-12T18:46:22Z</time>
</trkpt>
<trkpt lat="37.33823738" lon="-4.34772068">
<ele>1282</ele>
<time>2015-05-12T18:46:24Z</time>
</trkpt>
<trkpt lat="37.33811572" lon="-4.34780174">
<ele>1281</ele>
<time>2015-05-12T18:46:26Z</time>
</trkpt>
<trkpt lat="37.33800854" lon="-4.34787018">
<ele>1280</ele>
<time>2015-05-12T18:46:28Z</time>
</trkpt>
<trkpt lat="37.33790765" lon="-4.34795421">
<ele>1279</ele>
<time>2015-05-12T18:46:30Z</time>
</trkpt>
<trkpt lat="37.33781918" lon="-4.34804034">
<ele>1274</ele>
<time>2015-05-12T18:46:32Z</time>
</trkpt>
<trkpt lat="37.3377102" lon="-4.3481196">
<ele>1275</ele>
<time>2015-05-12T18:46:34Z</time>
</trkpt>
<trkpt lat="37.33757807" lon="-4.34818553">
<ele>1274</ele>
<time>2015-05-12T18:46:36Z</time>
</trkpt>
<trkpt lat="37.33745804" lon="-4.34824513">
<ele>1274</ele>
<time>2015-05-12T18:46:38Z</time>
</trkpt>
<trkpt lat="37.33734834" lon="-4.34829992">
<ele>1274</ele>
<time>2015-05-12T18:46:40Z</time>
</trkpt>
<trkpt lat="37.33724195" lon="-4.34834861">
<ele>1273</ele>
<time>2015-05-12T18:46:42Z</time>
</trkpt>
<trkpt lat="37.33716352" lon="-4.34845889">
<ele>1271</ele>
<time>2015-05-12T18:46:44Z</time>
</trkpt>
<trkpt lat="37.33710359" lon="-4.34858337">
<ele>1271</ele>
<time>2015-05-12T18:46:46Z</time>
</trkpt>
<trkpt lat="37.33703253" lon="-4.3487084">
<ele>1271</ele>
<time>2015-05-12T18:46:48Z</time>
</trkpt>
<trkpt lat="37.33694733" lon="-4.34883992">
<ele>1273</ele>
<time>2015-05-12T18:46:50Z</time>
</trkpt>
<trkpt lat="37.33687484" lon="-4.34895126">
<ele>1275</ele>
<time>2015-05-12T18:46:52Z</time>
</trkpt>
<trkpt lat="37.33682407" lon="-4.34903472">
<ele>1278</ele>
<time>2015-05-12T18:46:54Z</time>
</trkpt>
<trkpt lat="37.33677626" lon="-4.34913352">
<ele>1277</ele>
<time>2015-05-12T18:46:56Z</time>
</trkpt>
<trkpt lat="37.33672175" lon="-4.34924877">
<ele>1279</ele>
<time>2015-05-12T18:46:58Z</time>
</trkpt>
<trkpt lat="37.33664789" lon="-4.34932816">
<ele>1280</ele>
<time>2015-05-12T18:47:00Z</time>
</trkpt>
<trkpt lat="37.33652293" lon="-4.34933757">
<ele>1283</ele>
<time>2015-05-12T18:47:02Z</time>
</trkpt>
<trkpt lat="37.33641491" lon="-4.3493272">
<ele>1283</ele>
<time>2015-05-12T18:47:04Z</time>
</trkpt>
<trkpt lat="37.33632626" lon="-4.34939078">
<ele>1285</ele>
<time>2015-05-12T18:47:06Z</time>
</trkpt>
<trkpt lat="37.33627223" lon="-4.34949029">
<ele>1287</ele>
<time>2015-05-12T18:47:08Z</time>
</trkpt>
<trkpt lat="37.33625838" lon="-4.34963137">
<ele>1287</ele>
<time>2015-05-12T18:47:10Z</time>
</trkpt>
<trkpt lat="37.33636201" lon="-4.34972542">
<ele>1287</ele>
<time>2015-05-12T18:47:12Z</time>
</trkpt>
<trkpt lat="37.33653193" lon="-4.34967681">
<ele>1285</ele>
<time>2015-05-12T18:47:14Z</time>
</trkpt>
<trkpt lat="37.33670493" lon="-4.34947513">
<ele>1285</ele>
<time>2015-05-12T18:47:16Z</time>
</trkpt>
<trkpt lat="37.33688834" lon="-4.34931019">
<ele>1287</ele>
<time>2015-05-12T18:47:18Z</time>
</trkpt>
<trkpt lat="37.33704442" lon="-4.34930655">
<ele>1286</ele>
<time>2015-05-12T18:47:20Z</time>
</trkpt>
<trkpt lat="37.33714117" lon="-4.34943518">
<ele>1286</ele>
<time>2015-05-12T18:47:22Z</time>
</trkpt>
<trkpt lat="37.33713963" lon="-4.34957509">
<ele>1287</ele>
<time>2015-05-12T18:47:24Z</time>
</trkpt>
<trkpt lat="37.33705884" lon="-4.34966574">
<ele>1285</ele>
<time>2015-05-12T18:47:26Z</time>
</trkpt>
<trkpt lat="37.33689777" lon="-4.34970964">
<ele>1282</ele>
<time>2015-05-12T18:47:28Z</time>
</trkpt>
<trkpt lat="37.33671624" lon="-4.34973127">
<ele>1283</ele>
<time>2015-05-12T18:47:30Z</time>
</trkpt>
<trkpt lat="37.33656263" lon="-4.34973173">
<ele>1286</ele>
<time>2015-05-12T18:47:32Z</time>
</trkpt>
<trkpt lat="37.33638442" lon="-4.34972612">
<ele>1286</ele>
<time>2015-05-12T18:47:34Z</time>
</trkpt>
<trkpt lat="37.33620624" lon="-4.34974106">
<ele>1285</ele>
<time>2015-05-12T18:47:36Z</time>
</trkpt>
<trkpt lat="37.33604413" lon="-4.34977029">
<ele>1286</ele>
<time>2015-05-12T18:47:38Z</time>
</trkpt>
<trkpt lat="37.33587534" lon="-4.3498117">
<ele>1285</ele>
<time>2015-05-12T18:47:40Z</time>
</trkpt>
<trkpt lat="37.33572801" lon="-4.34989077">
<ele>1284</ele>
<time>2015-05-12T18:47:42Z</time>
</trkpt>
<trkpt lat="37.33562561" lon="-4.34996972">
<ele>1285</ele>
<time>2015-05-12T18:47:44Z</time>
</trkpt>
<trkpt lat="37.33559236" lon="-4.35006773">
<ele>1284</ele>
<time>2015-05-12T18:47:46Z</time>
</trkpt>
<trkpt lat="37.33564982" lon="-4.35017578">
<ele>1281</ele>
<time>2015-05-12T18:47:48Z</time>
</trkpt>
<trkpt lat="37.3357902" lon="-4.35022009">
<ele>1282</ele>
<time>2015-05-12T18:47:50Z</time>
</trkpt>
<trkpt lat="37.33594643" lon="-4.35014162">
<ele>1282</ele>
<time>2015-05-12T18:47:52Z</time>
</trkpt>
<trkpt lat="37.33610215" lon="-4.34994184">
<ele>1283</ele>
<time>2015-05-12T18:47:54Z</time>
</trkpt>
<trkpt lat="37.33622668" lon="-4.34967603">
<ele>1284</ele>
<time>2015-05-12T18:47:56Z</time>
</trkpt>
<trkpt lat="37.33634502" lon="-4.34939828">
<ele>1284</ele>
<time>2015-05-12T18:47:58Z</time>
</trkpt>
<trkpt lat="37.33645666" lon="-4.34912894">
<ele>1284</ele>
<time>2015-05-12T18:48:00Z</time>
</trkpt>
<trkpt lat="37.33657399" lon="-4.34884861">
<ele>1286</ele>
<time>2015-05-12T18:48:02Z</time>
</trkpt>
<trkpt lat="37.33670715" lon="-4.34863469">
<ele>1288</ele>
<time>2015-05-12T18:48:04Z</time>
</trkpt>
<trkpt lat="37.33688335" lon="-4.34852652">
<ele>1288</ele>
<time>2015-05-12T18:48:06Z</time>
</trkpt>
<trkpt lat="37.33706069" lon="-4.34855095">
<ele>1290</ele>
<time>2015-05-12T18:48:08Z</time>
</trkpt>
<trkpt lat="37.33714078" lon="-4.34866471">
<ele>1291</ele>
<time>2015-05-12T18:48:10Z</time>
</trkpt>
<trkpt lat="37.33708725" lon="-4.34875696">
<ele>1291</ele>
<time>2015-05-12T18:48:12Z</time>
</trkpt>
<trkpt lat="37.33695346" lon="-4.34879911">
<ele>1289</ele>
<time>2015-05-12T18:48:14Z</time>
</trkpt>
<trkpt lat="37.33679036" lon="-4.34882013">
<ele>1289</ele>
<time>2015-05-12T18:48:16Z</time>
</trkpt>
<trkpt lat="37.3366414" lon="-4.34882886">
<ele>1289</ele>
<time>2015-05-12T18:48:18Z</time>
</trkpt>
<trkpt lat="37.33648527" lon="-4.34885638">
<ele>1288</ele>
<time>2015-05-12T18:48:20Z</time>
</trkpt>
<trkpt lat="37.3363606" lon="-4.34888481">
<ele>1289</ele>
<time>2015-05-12T18:48:22Z</time>
</trkpt>
<trkpt lat="37.33623499" lon="-4.34896074">
<ele>1288</ele>
<time>2015-05-12T18:48:24Z</time>
</trkpt>
<trkpt lat="37.33615427" lon="-4.34907307">
<ele>1289</ele>
<time>2015-05-12T18:48:26Z</time>
</trkpt>
<trkpt lat="37.33610099" lon="-4.34917847">
<ele>1290</ele>
<time>2015-05-12T18:48:28Z</time>
</trkpt>
<trkpt lat="37.33609673" lon="-4.34927108">
<ele>1291</ele>
<time>2015-05-12T18:48:30Z</time>
</trkpt>
<trkpt lat="37.3361419" lon="-4.34937444">
<ele>1293</ele>
<time>2015-05-12T18:48:32Z</time>
</trkpt>
<trkpt lat="37.33622555" lon="-4.34943743">
<ele>1292</ele>
<time>2015-05-12T18:48:34Z</time>
</trkpt>
<trkpt lat="37.33637512" lon="-4.34939528">
<ele>1293</ele>
<time>2015-05-12T18:48:36Z</time>
</trkpt>
<trkpt lat="37.33652987" lon="-4.34919144">
<ele>1291</ele>
<time>2015-05-12T18:48:38Z</time>
</trkpt>
<trkpt lat="37.33662141" lon="-4.34891217">
<ele>1293</ele>
<time>2015-05-12T18:48:40Z</time>
</trkpt>
<trkpt lat="37.33671796" lon="-4.34869474">
<ele>1296</ele>
<time>2015-05-12T18:48:42Z</time>
</trkpt>
<trkpt lat="37.33687159" lon="-4.34860672">
<ele>1294</ele>
<time>2015-05-12T18:48:44Z</time>
</trkpt>
<trkpt lat="37.33702765" lon="-4.3486102">
<ele>1293</ele>
<time>2015-05-12T18:48:46Z</time>
</trkpt>
<trkpt lat="37.33708486" lon="-4.34871748">
<ele>1293</ele>
<time>2015-05-12T18:48:48Z</time>
</trkpt>
<trkpt lat="37.33704315" lon="-4.34884777">
<ele>1294</ele>
<time>2015-05-12T18:48:50Z</time>
</trkpt>
<trkpt lat="37.33693723" lon="-4.34889124">
<ele>1295</ele>
<time>2015-05-12T18:48:52Z</time>
</trkpt>
<trkpt lat="37.3367659" lon="-4.34886308">
<ele>1294</ele>
<time>2015-05-12T18:48:54Z</time>
</trkpt>
<trkpt lat="37.3366099" lon="-4.34877455">
<ele>1294</ele>
<time>2015-05-12T18:48:56Z</time>
</trkpt>
<trkpt lat="37.3364406" lon="-4.34868909">
<ele>1294</ele>
<time>2015-05-12T18:48:58Z</time>
</trkpt>
<trkpt lat="37.33627873" lon="-4.34870795">
<ele>1292</ele>
<time>2015-05-12T18:49:00Z</time>
</trkpt>
<trkpt lat="37.33617926" lon="-4.34880387">
<ele>1293</ele>
<time>2015-05-12T18:49:02Z</time>
</trkpt>
<trkpt lat="37.33614082" lon="-4.34899232">
<ele>1292</ele>
<time>2015-05-12T18:49:04Z</time>
</trkpt>
<trkpt lat="37.33612076" lon="-4.3491792">
<ele>1290</ele>
<time>2015-05-12T18:49:06Z</time>
</trkpt>
<trkpt lat="37.33606773" lon="-4.34931544">
<ele>1290</ele>
<time>2015-05-12T18:49:08Z</time>
</trkpt>
<trkpt lat="37.3360438" lon="-4.34944117">
<ele>1292</ele>
<time>2015-05-12T18:49:10Z</time>
</trkpt>
<trkpt lat="37.33604286" lon="-4.34956985">
<ele>1289</ele>
<time>2015-05-12T18:49:12Z</time>
</trkpt>
<trkpt lat="37.33602103" lon="-4.34973261">
<ele>1289</ele>
<time>2015-05-12T18:49:14Z</time>
</trkpt>
<trkpt lat="37.33597109" lon="-4.34990243">
<ele>1291</ele>
<time>2015-05-12T18:49:16Z</time>
</trkpt>
<trkpt lat="37.33589859" lon="-4.35002205">
<ele>1297</ele>
<time>2015-05-12T18:49:18Z</time>
</trkpt>
<trkpt lat="37.335867" lon="-4.3501194">
<ele>1300</ele>
<time>2015-05-12T18:49:20Z</time>
</trkpt>
<trkpt lat="37.33588183" lon="-4.35019425">
<ele>1301</ele>
<time>2015-05-12T18:49:22Z</time>
</trkpt>
<trkpt lat="37.33593136" lon="-4.3502674">
<ele>1299</ele>
<time>2015-05-12T18:49:24Z</time>
</trkpt>
<trkpt lat="37.33599669" lon="-4.35040284">
<ele>1294</ele>
<time>2015-05-12T18:49:26Z</time>
</trkpt>
<trkpt lat="37.33597854" lon="-4.35054949">
<ele>1294</ele>
<time>2015-05-12T18:49:28Z</time>
</trkpt>
<trkpt lat="37.33592678" lon="-4.35067634">
<ele>1294</ele>
<time>2015-05-12T18:49:30Z</time>
</trkpt>
<trkpt lat="37.33586727" lon="-4.35076056">
<ele>1294</ele>
<time>2015-05-12T18:49:32Z</time>
</trkpt>
<trkpt lat="37.33578874" lon="-4.35092572">
<ele>1290</ele>
<time>2015-05-12T18:49:34Z</time>
</trkpt>
<trkpt lat="37.3356731" lon="-4.3510598">
<ele>1291</ele>
<time>2015-05-12T18:49:36Z</time>
</trkpt>
<trkpt lat="37.33559303" lon="-4.35116997">
<ele>1292</ele>
<time>2015-05-12T18:49:38Z</time>
</trkpt>
<trkpt lat="37.33550557" lon="-4.35129204">
<ele>1288</ele>
<time>2015-05-12T18:49:40Z</time>
</trkpt>
<trkpt lat="37.33538708" lon="-4.35143192">
<ele>1286</ele>
<time>2015-05-12T18:49:42Z</time>
</trkpt>
<trkpt lat="37.33530592" lon="-4.35153783">
<ele>1285</ele>
<time>2015-05-12T18:49:44Z</time>
</trkpt>
<trkpt lat="37.33519427" lon="-4.35163583">
<ele>1286</ele>
<time>2015-05-12T18:49:46Z</time>
</trkpt>
<trkpt lat="37.33509478" lon="-4.35175391">
<ele>1283</ele>
<time>2015-05-12T18:49:48Z</time>
</trkpt>
<trkpt lat="37.33498335" lon="-4.35185378">
<ele>1283</ele>
<time>2015-05-12T18:49:50Z</time>
</trkpt>
<trkpt lat="37.33488246" lon="-4.35196875">
<ele>1281</ele>
<time>2015-05-12T18:49:52Z</time>
</trkpt>
<trkpt lat="37.3347882" lon="-4.35209039">
<ele>1281</ele>
<time>2015-05-12T18:49:54Z</time>
</trkpt>
<trkpt lat="37.33470161" lon="-4.35219532">
<ele>1279</ele>
<time>2015-05-12T18:49:56Z</time>
</trkpt>
<trkpt lat="37.33461625" lon="-4.35232176">
<ele>1279</ele>
<time>2015-05-12T18:49:58Z</time>
</trkpt>
<trkpt lat="37.33453813" lon="-4.35243266">
<ele>1279</ele>
<time>2015-05-12T18:50:00Z</time>
</trkpt>
<trkpt lat="37.33445843" lon="-4.3525432">
<ele>1278</ele>
<time>2015-05-12T18:50:02Z</time>
</trkpt>
<trkpt lat="37.3343902" lon="-4.35266948">
<ele>1282</ele>
<time>2015-05-12T18:50:04Z</time>
</trkpt>
<trkpt lat="37.33433339" lon="-4.35278312">
<ele>1284</ele>
<time>2015-05-12T18:50:06Z</time>
</trkpt>
<trkpt lat="37.33428066" lon="-4.35288088">
<ele>1283</ele>
<time>2015-05-12T18:50:08Z</time>
</trkpt>
<trkpt lat="37.334216" lon="-4.35300265">
<ele>1281</ele>
<time>2015-05-12T18:50:10Z</time>
</trkpt>
<trkpt lat="37.3341644" lon="-4.35312947">
<ele>1280</ele>
<time>2015-05-12T18:50:12Z</time>
</trkpt>
<trkpt lat="37.33409656" lon="-4.35325888">
<ele>1277</ele>
<time>2015-05-12T18:50:14Z</time>
</trkpt>
<trkpt lat="37.33403846" lon="-4.35340682">
<ele>1275</ele>
<time>2015-05-12T18:50:16Z</time>
</trkpt>
<trkpt lat="37.33397963" lon="-4.35355196">
<ele>1277</ele>
<time>2015-05-12T18:50:18Z</time>
</trkpt>
<trkpt lat="37.33394455" lon="-4.35370441">
<ele>1279</ele>
<time>2015-05-12T18:50:20Z</time>
</trkpt>
<trkpt lat="37.33392026" lon="-4.35383508">
<ele>1279</ele>
<time>2015-05-12T18:50:22Z</time>
</trkpt>
<trkpt lat="37.33389123" lon="-4.35396459">
<ele>1278</ele>
<time>2015-05-12T18:50:24Z</time>
</trkpt>
<trkpt lat="37.33386236" lon="-4.35409558">
<ele>1278</ele>
<time>2015-05-12T18:50:26Z</time>
</trkpt>
<trkpt lat="37.33381389" lon="-4.35422088">
<ele>1278</ele>
<time>2015-05-12T18:50:28Z</time>
</trkpt>
<trkpt lat="37.33376104" lon="-4.35433366">
<ele>1277</ele>
<time>2015-05-12T18:50:30Z</time>
</trkpt>
<trkpt lat="37.33371574" lon="-4.3544605">
<ele>1275</ele>
<time>2015-05-12T18:50:32Z</time>
</trkpt>
<trkpt lat="37.33368044" lon="-4.35458659">
<ele>1273</ele>
<time>2015-05-12T18:50:34Z</time>
</trkpt>
<trkpt lat="37.33362855" lon="-4.35472475">
<ele>1274</ele>
<time>2015-05-12T18:50:36Z</time>
</trkpt>
<trkpt lat="37.33358592" lon="-4.35489209">
<ele>1274</ele>
<time>2015-05-12T18:50:38Z</time>
</trkpt>
<trkpt lat="37.33358205" lon="-4.35503878">
<ele>1277</ele>
<time>2015-05-12T18:50:40Z</time>
</trkpt>
<trkpt lat="37.33356249" lon="-4.35517796">
<ele>1281</ele>
<time>2015-05-12T18:50:42Z</time>
</trkpt>
<trkpt lat="37.33355582" lon="-4.35530759">
<ele>1284</ele>
<time>2015-05-12T18:50:44Z</time>
</trkpt>
<trkpt lat="37.33361393" lon="-4.35542519">
<ele>1285</ele>
<time>2015-05-12T18:50:46Z</time>
</trkpt>
<trkpt lat="37.33371414" lon="-4.35548561">
<ele>1286</ele>
<time>2015-05-12T18:50:48Z</time>
</trkpt>
<trkpt lat="37.33389958" lon="-4.35543425">
<ele>1288</ele>
<time>2015-05-12T18:50:50Z</time>
</trkpt>
<trkpt lat="37.33404052" lon="-4.35524338">
<ele>1291</ele>
<time>2015-05-12T18:50:52Z</time>
</trkpt>
<trkpt lat="37.33406409" lon="-4.35495133">
<ele>1293</ele>
<time>2015-05-12T18:50:54Z</time>
</trkpt>
<trkpt lat="37.33396115" lon="-4.35468899">
<ele>1293</ele>
<time>2015-05-12T18:50:56Z</time>
</trkpt>
<trkpt lat="37.33378682" lon="-4.35459002">
<ele>1292</ele>
<time>2015-05-12T18:50:58Z</time>
</trkpt>
<trkpt lat="37.33362583" lon="-4.354627">
<ele>1294</ele>
<time>2015-05-12T18:51:00Z</time>
</trkpt>
<trkpt lat="37.33352203" lon="-4.35473527">
<ele>1296</ele>
<time>2015-05-12T18:51:02Z</time>
</trkpt>
<trkpt lat="37.33349002" lon="-4.35486996">
<ele>1298</ele>
<time>2015-05-12T18:51:04Z</time>
</trkpt>
<trkpt lat="37.33347788" lon="-4.35502149">
<ele>1301</ele>
<time>2015-05-12T18:51:06Z</time>
</trkpt>
<trkpt lat="37.33349447" lon="-4.3551459">
<ele>1306</ele>
<time>2015-05-12T18:51:08Z</time>
</trkpt>
<trkpt lat="37.33355423" lon="-4.35524161">
<ele>1311</ele>
<time>2015-05-12T18:51:10Z</time>
</trkpt>
<trkpt lat="37.33364572" lon="-4.35533982">
<ele>1313</ele>
<time>2015-05-12T18:51:12Z</time>
</trkpt>
<trkpt lat="37.33376059" lon="-4.35542918">
<ele>1317</ele>
<time>2015-05-12T18:51:14Z</time>
</trkpt>
<trkpt lat="37.33389409" lon="-4.35545861">
<ele>1317</ele>
<time>2015-05-12T18:51:16Z</time>
</trkpt>
<trkpt lat="37.33403835" lon="-4.35542041">
<ele>1321</ele>
<time>2015-05-12T18:51:18Z</time>
</trkpt>
<trkpt lat="37.33416633" lon="-4.35529282">
<ele>1323</ele>
<time>2015-05-12T18:51:20Z</time>
</trkpt>
<trkpt lat="37.33425504" lon="-4.35508117">
<ele>1324</ele>
<time>2015-05-12T18:51:22Z</time>
</trkpt>
<trkpt lat="37.33427741" lon="-4.35482256">
<ele>1326</ele>
<time>2015-05-12T18:51:24Z</time>
</trkpt>
<trkpt lat="37.33419161" lon="-4.35458933">
<ele>1327</ele>
<time>2015-05-12T18:51:26Z</time>
</trkpt>
<trkpt lat="37.33404909" lon="-4.35443956">
<ele>1330</ele>
<time>2015-05-12T18:51:28Z</time>
</trkpt>
<trkpt lat="37.33390515" lon="-4.35437274">
<ele>1332</ele>
<time>2015-05-12T18:51:30Z</time>
</trkpt>
<trkpt lat="37.3337737" lon="-4.35436194">
<ele>1334</ele>
<time>2015-05-12T18:51:32Z</time>
</trkpt>
<trkpt lat="37.33368914" lon="-4.35444663">
<ele>1336</ele>
<time>2015-05-12T18:51:34Z</time>
</trkpt>
<trkpt lat="37.33366205" lon="-4.3545795">
<ele>1341</ele>
<time>2015-05-12T18:51:36Z</time>
</trkpt>
<trkpt lat="37.33367266" lon="-4.35470074">
<ele>1346</ele>
<time>2015-05-12T18:51:38Z</time>
</trkpt>
<trkpt lat="37.3337279" lon="-4.35482524">
<ele>1348</ele>
<time>2015-05-12T18:51:40Z</time>
</trkpt>
<trkpt lat="37.33383193" lon="-4.35492141">
<ele>1351</ele>
<time>2015-05-12T18:51:42Z</time>
</trkpt>
<trkpt lat="37.33398375" lon="-4.35496672">
<ele>1353</ele>
<time>2015-05-12T18:51:44Z</time>
</trkpt>
<trkpt lat="37.33414303" lon="-4.35494535">
<ele>1356</ele>
<time>2015-05-12T18:51:46Z</time>
</trkpt>
<trkpt lat="37.33428159" lon="-4.35487674">
<ele>1360</ele>
<time>2015-05-12T18:51:48Z</time>
</trkpt>
<trkpt lat="37.33439487" lon="-4.35471916">
<ele>1360</ele>
<time>2015-05-12T18:51:50Z</time>
</trkpt>
<trkpt lat="37.33446841" lon="-4.35447624">
<ele>1362</ele>
<time>2015-05-12T18:51:52Z</time>
</trkpt>
<trkpt lat="37.33445977" lon="-4.35422072">
<ele>1366</ele>
<time>2015-05-12T18:51:54Z</time>
</trkpt>
<trkpt lat="37.3343806" lon="-4.35400579">
<ele>1367</ele>
<time>2015-05-12T18:51:56Z</time>
</trkpt>
<trkpt lat="37.33425638" lon="-4.35384855">
<ele>1368</ele>
<time>2015-05-12T18:51:58Z</time>
</trkpt>
<trkpt lat="37.33407558" lon="-4.3537779">
<ele>1370</ele>
<time>2015-05-12T18:52:00Z</time>
</trkpt>
<trkpt lat="37.33391958" lon="-4.35383121">
<ele>1369</ele>
<time>2015-05-12T18:52:02Z</time>
</trkpt>
<trkpt lat="37.33382632" lon="-4.35395237">
<ele>1371</ele>
<time>2015-05-12T18:52:04Z</time>
</trkpt>
<trkpt lat="37.3337987" lon="-4.35411367">
<ele>1370</ele>
<time>2015-05-12T18:52:06Z</time>
</trkpt>
<trkpt lat="37.33377849" lon="-4.35427212">
<ele>1372</ele>
<time>2015-05-12T18:52:08Z</time>
</trkpt>
<trkpt lat="37.3338108" lon="-4.35441264">
<ele>1374</ele>
<time>2015-05-12T18:52:10Z</time>
</trkpt>
<trkpt lat="37.33389832" lon="-4.35453662">
<ele>1375</ele>
<time>2015-05-12T18:52:12Z</time>
</trkpt>
<trkpt lat="37.33398034" lon="-4.35466811">
<ele>1375</ele>
<time>2015-05-12T18:52:14Z</time>
</trkpt>
<trkpt lat="37.33405847" lon="-4.35480004">
<ele>1376</ele>
<time>2015-05-12T18:52:16Z</time>
</trkpt>
<trkpt lat="37.33414062" lon="-4.35494241">
<ele>1375</ele>
<time>2015-05-12T18:52:18Z</time>
</trkpt>
<trkpt lat="37.33421232" lon="-4.35507793">
<ele>1375</ele>
<time>2015-05-12T18:52:20Z</time>
</trkpt>
<trkpt lat="37.33432858" lon="-4.35520902">
<ele>1374</ele>
<time>2015-05-12T18:52:22Z</time>
</trkpt>
<trkpt lat="37.33448883" lon="-4.3552896">
<ele>1374</ele>
<time>2015-05-12T18:52:24Z</time>
</trkpt>
<trkpt lat="37.33464438" lon="-4.35530612">
<ele>1377</ele>
<time>2015-05-12T18:52:26Z</time>
</trkpt>
<trkpt lat="37.33477986" lon="-4.35532373">
<ele>1378</ele>
<time>2015-05-12T18:52:28Z</time>
</trkpt>
<trkpt lat="37.33490036" lon="-4.35540036">
<ele>1378</ele>
<time>2015-05-12T18:52:30Z</time>
</trkpt>
<trkpt lat="37.3350097" lon="-4.35553453">
<ele>1379</ele>
<time>2015-05-12T18:52:32Z</time>
</trkpt>
<trkpt lat="37.3350802" lon="-4.355692">
<ele>1379</ele>
<time>2015-05-12T18:52:34Z</time>
</trkpt>
<trkpt lat="37.33511879" lon="-4.35586655">
<ele>1379</ele>
<time>2015-05-12T18:52:36Z</time>
</trkpt>
<trkpt lat="37.33508736" lon="-4.35602834">
<ele>1380</ele>
<time>2015-05-12T18:52:38Z</time>
</trkpt>
<trkpt lat="37.33497372" lon="-4.35617045">
<ele>1379</ele>
<time>2015-05-12T18:52:40Z</time>
</trkpt>
<trkpt lat="37.33485963" lon="-4.35631916">
<ele>1380</ele>
<time>2015-05-12T18:52:42Z</time>
</trkpt>
<trkpt lat="37.33483282" lon="-4.35649397">
<ele>1380</ele>
<time>2015-05-12T18:52:44Z</time>
</trkpt>
<trkpt lat="37.33488555" lon="-4.3566214">
<ele>1380</ele>
<time>2015-05-12T18:52:46Z</time>
</trkpt>
<trkpt lat="37.33499986" lon="-4.35675771">
<ele>1379</ele>
<time>2015-05-12T18:52:48Z</time>
</trkpt>
<trkpt lat="37.33510497" lon="-4.35693375">
<ele>1381</ele>
<time>2015-05-12T18:52:50Z</time>
</trkpt>
<trkpt lat="37.33517533" lon="-4.35710372">
<ele>1383</ele>
<time>2015-05-12T18:52:52Z</time>
</trkpt>
<trkpt lat="37.33519592" lon="-4.35727454">
<ele>1381</ele>
<time>2015-05-12T18:52:54Z</time>
</trkpt>
<trkpt lat="37.33511964" lon="-4.35742677">
<ele>1378</ele>
<time>2015-05-12T18:52:56Z</time>
</trkpt>
<trkpt lat="37.33498641" lon="-4.35756915">
<ele>1375</ele>
<time>2015-05-12T18:52:58Z</time>
</trkpt>
<trkpt lat="37.33483306" lon="-4.35771771">
<ele>1372</ele>
<time>2015-05-12T18:53:00Z</time>
</trkpt>
<trkpt lat="37.33468249" lon="-4.35783969">
<ele>1374</ele>
<time>2015-05-12T18:53:02Z</time>
</trkpt>
<trkpt lat="37.33455088" lon="-4.35793208">
<ele>1372</ele>
<time>2015-05-12T18:53:04Z</time>
</trkpt>
<trkpt lat="37.33439679" lon="-4.35800402">
<ele>1372</ele>
<time>2015-05-12T18:53:06Z</time>
</trkpt>
<trkpt lat="37.33421092" lon="-4.35803293">
<ele>1372</ele>
<time>2015-05-12T18:53:08Z</time>
</trkpt>
<trkpt lat="37.33401862" lon="-4.35801664">
<ele>1372</ele>
<time>2015-05-12T18:53:10Z</time>
</trkpt>
<trkpt lat="37.33381486" lon="-4.35799876">
<ele>1369</ele>
<time>2015-05-12T18:53:12Z</time>
</trkpt>
<trkpt lat="37.33361139" lon="-4.35803509">
<ele>1368</ele>
<time>2015-05-12T18:53:14Z</time>
</trkpt>
<trkpt lat="37.33340047" lon="-4.35805097">
<ele>1367</ele>
<time>2015-05-12T18:53:16Z</time>
</trkpt>
<trkpt lat="37.33319786" lon="-4.35806542">
<ele>1365</ele>
<time>2015-05-12T18:53:18Z</time>
</trkpt>
<trkpt lat="37.33300516" lon="-4.35810067">
<ele>1364</ele>
<time>2015-05-12T18:53:20Z</time>
</trkpt>
<trkpt lat="37.33281542" lon="-4.35811767">
<ele>1364</ele>
<time>2015-05-12T18:53:22Z</time>
</trkpt>
<trkpt lat="37.33264976" lon="-4.35820356">
<ele>1364</ele>
<time>2015-05-12T18:53:24Z</time>
</trkpt>
<trkpt lat="37.33250966" lon="-4.35831331">
<ele>1363</ele>
<time>2015-05-12T18:53:26Z</time>
</trkpt>
<trkpt lat="37.33241069" lon="-4.35846809">
<ele>1361</ele>
<time>2015-05-12T18:53:28Z</time>
</trkpt>
<trkpt lat="37.33233313" lon="-4.35864048">
<ele>1359</ele>
<time>2015-05-12T18:53:30Z</time>
</trkpt>
<trkpt lat="37.33225426" lon="-4.35882476">
<ele>1356</ele>
<time>2015-05-12T18:53:32Z</time>
</trkpt>
<trkpt lat="37.33218076" lon="-4.35900151">
<ele>1354</ele>
<time>2015-05-12T18:53:34Z</time>
</trkpt>
<trkpt lat="37.33211607" lon="-4.35917484">
<ele>1351</ele>
<time>2015-05-12T18:53:36Z</time>
</trkpt>
<trkpt lat="37.33206657" lon="-4.35933773">
<ele>1351</ele>
<time>2015-05-12T18:53:38Z</time>
</trkpt>
<trkpt lat="37.33201949" lon="-4.35951289">
<ele>1349</ele>
<time>2015-05-12T18:53:40Z</time>
</trkpt>
<trkpt lat="37.33200348" lon="-4.359693">
<ele>1346</ele>
<time>2015-05-12T18:53:42Z</time>
</trkpt>
<trkpt lat="37.33201446" lon="-4.35986397">
<ele>1343</ele>
<time>2015-05-12T18:53:44Z</time>
</trkpt>
<trkpt lat="37.33199078" lon="-4.36005628">
<ele>1339</ele>
<time>2015-05-12T18:53:46Z</time>
</trkpt>
<trkpt lat="37.3319788" lon="-4.36023935">
<ele>1338</ele>
<time>2015-05-12T18:53:48Z</time>
</trkpt>
<trkpt lat="37.33197641" lon="-4.36041808">
<ele>1335</ele>
<time>2015-05-12T18:53:50Z</time>
</trkpt>
<trkpt lat="37.33196072" lon="-4.36060122">
<ele>1330</ele>
<time>2015-05-12T18:53:52Z</time>
</trkpt>
<trkpt lat="37.33191679" lon="-4.36080773">
<ele>1324</ele>
<time>2015-05-12T18:53:54Z</time>
</trkpt>
<trkpt lat="37.33185706" lon="-4.36099652">
<ele>1323</ele>
<time>2015-05-12T18:53:56Z</time>
</trkpt>
<trkpt lat="37.33180258" lon="-4.36118659">
<ele>1320</ele>
<time>2015-05-12T18:53:58Z</time>
</trkpt>
<trkpt lat="37.33174036" lon="-4.36136879">
<ele>1315</ele>
<time>2015-05-12T18:54:00Z</time>
</trkpt>
<trkpt lat="37.33167137" lon="-4.36156279">
<ele>1311</ele>
<time>2015-05-12T18:54:02Z</time>
</trkpt>
<trkpt lat="37.33160402" lon="-4.36173501">
<ele>1310</ele>
<time>2015-05-12T18:54:04Z</time>
</trkpt>
<trkpt lat="37.33152887" lon="-4.36190331">
<ele>1308</ele>
<time>2015-05-12T18:54:06Z</time>
</trkpt>
<trkpt lat="37.33146631" lon="-4.36208365">
<ele>1303</ele>
<time>2015-05-12T18:54:08Z</time>
</trkpt>
<trkpt lat="37.33138231" lon="-4.36226251">
<ele>1301</ele>
<time>2015-05-12T18:54:10Z</time>
</trkpt>
<trkpt lat="37.331295" lon="-4.36243991">
<ele>1300</ele>
<time>2015-05-12T18:54:12Z</time>
</trkpt>
<trkpt lat="37.33119935" lon="-4.36261119">
<ele>1296</ele>
<time>2015-05-12T18:54:14Z</time>
</trkpt>
<trkpt lat="37.33109995" lon="-4.36277308">
<ele>1292</ele>
<time>2015-05-12T18:54:16Z</time>
</trkpt>
<trkpt lat="37.33098219" lon="-4.36293686">
<ele>1288</ele>
<time>2015-05-12T18:54:18Z</time>
</trkpt>
<trkpt lat="37.33087593" lon="-4.36311964">
<ele>1284</ele>
<time>2015-05-12T18:54:20Z</time>
</trkpt>
<trkpt lat="37.33078837" lon="-4.36329481">
<ele>1283</ele>
<time>2015-05-12T18:54:22Z</time>
</trkpt>
<trkpt lat="37.33073714" lon="-4.36344619">
<ele>1283</ele>
<time>2015-05-12T18:54:24Z</time>
</trkpt>
<trkpt lat="37.33065839" lon="-4.36360919">
<ele>1280</ele>
<time>2015-05-12T18:54:26Z</time>
</trkpt>
<trkpt lat="37.33061349" lon="-4.3637845">
<ele>1277</ele>
<time>2015-05-12T18:54:28Z</time>
</trkpt>
<trkpt lat="37.33051397" lon="-4.36395923">
<ele>1276</ele>
<time>2015-05-12T18:54:30Z</time>
</trkpt>
<trkpt lat="37.3304146" lon="-4.3641398">
<ele>1275</ele>
<time>2015-05-12T18:54:32Z</time>
</trkpt>
<trkpt lat="37.33034504" lon="-4.36433118">
<ele>1272</ele>
<time>2015-05-12T18:54:34Z</time>
</trkpt>
<trkpt lat="37.3302569" lon="-4.36450263">
<ele>1268</ele>
<time>2015-05-12T18:54:36Z</time>
</trkpt>
<trkpt lat="37.33017068" lon="-4.36467835">
<ele>1263</ele>
<time>2015-05-12T18:54:38Z</time>
</trkpt>
<trkpt lat="37.33005618" lon="-4.3648385">
<ele>1260</ele>
<time>2015-05-12T18:54:40Z</time>
</trkpt>
<trkpt lat="37.32997793" lon="-4.36501912">
<ele>1257</ele>
<time>2015-05-12T18:54:42Z</time>
</trkpt>
<trkpt lat="37.32985378" lon="-4.36517559">
<ele>1253</ele>
<time>2015-05-12T18:54:44Z</time>
</trkpt>
<trkpt lat="37.32976009" lon="-4.36534102">
<ele>1251</ele>
<time>2015-05-12T18:54:46Z</time>
</trkpt>
<trkpt lat="37.32967932" lon="-4.36551058">
<ele>1248</ele>
<time>2015-05-12T18:54:48Z</time>
</trkpt>
<trkpt lat="37.32962732" lon="-4.36568536">
<ele>1249</ele>
<time>2015-05-12T18:54:50Z</time>
</trkpt>
<trkpt lat="37.32960086" lon="-4.36589834">
<ele>1248</ele>
<time>2015-05-12T18:54:52Z</time>
</trkpt>
<trkpt lat="37.32957583" lon="-4.36608833">
<ele>1249</ele>
<time>2015-05-12T18:54:54Z</time>
</trkpt>
<trkpt lat="37.32954967" lon="-4.36626312">
<ele>1247</ele>
<time>2015-05-12T18:54:56Z</time>
</trkpt>
<trkpt lat="37.32953819" lon="-4.36644054">
<ele>1243</ele>
<time>2015-05-12T18:54:58Z</time>
</trkpt>
<trkpt lat="37.32954654" lon="-4.36662092">
<ele>1242</ele>
<time>2015-05-12T18:55:00Z</time>
</trkpt>
<trkpt lat="37.32955484" lon="-4.36679437">
<ele>1239</ele>
<time>2015-05-12T18:55:02Z</time>
</trkpt>
<trkpt lat="37.32955979" lon="-4.36696215">
<ele>1236</ele>
<time>2015-05-12T18:55:04Z</time>
</trkpt>
<trkpt lat="37.32957804" lon="-4.36713557">
<ele>1232</ele>
<time>2015-05-12T18:55:06Z</time>
</trkpt>
<trkpt lat="37.32959587" lon="-4.36731823">
<ele>1230</ele>
<time>2015-05-12T18:55:08Z</time>
</trkpt>
<trkpt lat="37.32961697" lon="-4.36749723">
<ele>1228</ele>
<time>2015-05-12T18:55:10Z</time>
</trkpt>
<trkpt lat="37.32959526" lon="-4.36764939">
<ele>1227</ele>
<time>2015-05-12T18:55:12Z</time>
</trkpt>
<trkpt lat="37.3295344" lon="-4.36778105">
<ele>1226</ele>
<time>2015-05-12T18:55:14Z</time>
</trkpt>
<trkpt lat="37.32943628" lon="-4.36790081">
<ele>1224</ele>
<time>2015-05-12T18:55:16Z</time>
</trkpt>
<trkpt lat="37.32931958" lon="-4.36800534">
<ele>1221</ele>
<time>2015-05-12T18:55:18Z</time>
</trkpt>
<trkpt lat="37.32920886" lon="-4.36811263">
<ele>1219</ele>
<time>2015-05-12T18:55:20Z</time>
</trkpt>
<trkpt lat="37.3291013" lon="-4.3682144">
<ele>1216</ele>
<time>2015-05-12T18:55:22Z</time>
</trkpt>
<trkpt lat="37.32899876" lon="-4.36831647">
<ele>1215</ele>
<time>2015-05-12T18:55:24Z</time>
</trkpt>
<trkpt lat="37.32891286" lon="-4.36842851">
<ele>1213</ele>
<time>2015-05-12T18:55:26Z</time>
</trkpt>
<trkpt lat="37.32883524" lon="-4.36854265">
<ele>1212</ele>
<time>2015-05-12T18:55:28Z</time>
</trkpt>
<trkpt lat="37.32876323" lon="-4.3686802">
<ele>1208</ele>
<time>2015-05-12T18:55:30Z</time>
</trkpt>
<trkpt lat="37.32872341" lon="-4.36879259">
<ele>1207</ele>
<time>2015-05-12T18:55:32Z</time>
</trkpt>
<trkpt lat="37.32871867" lon="-4.36892355">
<ele>1207</ele>
<time>2015-05-12T18:55:34Z</time>
</trkpt>
<trkpt lat="37.32869381" lon="-4.3690722">
<ele>1204</ele>
<time>2015-05-12T18:55:36Z</time>
</trkpt>
<trkpt lat="37.32868122" lon="-4.36921452">
<ele>1203</ele>
<time>2015-05-12T18:55:38Z</time>
</trkpt>
<trkpt lat="37.32868715" lon="-4.36934552">
<ele>1202</ele>
<time>2015-05-12T18:55:40Z</time>
</trkpt>
<trkpt lat="37.32871574" lon="-4.36947497">
<ele>1199</ele>
<time>2015-05-12T18:55:42Z</time>
</trkpt>
<trkpt lat="37.32871447" lon="-4.36960722">
<ele>1195</ele>
<time>2015-05-12T18:55:44Z</time>
</trkpt>
<trkpt lat="37.32870715" lon="-4.36974024">
<ele>1192</ele>
<time>2015-05-12T18:55:46Z</time>
</trkpt>
<trkpt lat="37.32868455" lon="-4.36986071">
<ele>1189</ele>
<time>2015-05-12T18:55:48Z</time>
</trkpt>
<trkpt lat="37.32865333" lon="-4.36998729">
<ele>1185</ele>
<time>2015-05-12T18:55:50Z</time>
</trkpt>
<trkpt lat="37.32863223" lon="-4.37013452">
<ele>1184</ele>
<time>2015-05-12T18:55:52Z</time>
</trkpt>
<trkpt lat="37.32860404" lon="-4.37024958">
<ele>1185</ele>
<time>2015-05-12T18:55:54Z</time>
</trkpt>
<trkpt lat="37.32857715" lon="-4.37038219">
<ele>1181</ele>
<time>2015-05-12T18:55:56Z</time>
</trkpt>
<trkpt lat="37.32854694" lon="-4.37051679">
<ele>1178</ele>
<time>2015-05-12T18:55:58Z</time>
</trkpt>
<trkpt lat="37.32851365" lon="-4.37062992">
<ele>1176</ele>
<time>2015-05-12T18:56:00Z</time>
</trkpt>
<trkpt lat="37.32846614" lon="-4.37074178">
<ele>1173</ele>
<time>2015-05-12T18:56:02Z</time>
</trkpt>
<trkpt lat="37.32838656" lon="-4.3708506">
<ele>1174</ele>
<time>2015-05-12T18:56:04Z</time>
</trkpt>
<trkpt lat="37.32835986" lon="-4.3709508">
<ele>1174</ele>
<time>2015-05-12T18:56:06Z</time>
</trkpt>
<trkpt lat="37.32835015" lon="-4.37106821">
<ele>1172</ele>
<time>2015-05-12T18:56:08Z</time>
</trkpt>
<trkpt lat="37.32839155" lon="-4.37120999">
<ele>1171</ele>
<time>2015-05-12T18:56:10Z</time>
</trkpt>
<trkpt lat="37.32840752" lon="-4.37138988">
<ele>1171</ele>
<time>2015-05-12T18:56:12Z</time>
</trkpt>
<trkpt lat="37.32839557" lon="-4.37152429">
<ele>1173</ele>
<time>2015-05-12T18:56:14Z</time>
</trkpt>
<trkpt lat="37.32842383" lon="-4.37164677">
<ele>1171</ele>
<time>2015-05-12T18:56:16Z</time>
</trkpt>
<trkpt lat="37.32847351" lon="-4.37177532">
<ele>1175</ele>
<time>2015-05-12T18:56:18Z</time>
</trkpt>
<trkpt lat="37.32850977" lon="-4.37190371">
<ele>1176</ele>
<time>2015-05-12T18:56:20Z</time>
</trkpt>
<trkpt lat="37.32850794" lon="-4.3720366">
<ele>1177</ele>
<time>2015-05-12T18:56:22Z</time>
</trkpt>
<trkpt lat="37.3284982" lon="-4.37212503">
<ele>1176</ele>
<time>2015-05-12T18:56:24Z</time>
</trkpt>
<trkpt lat="37.32842879" lon="-4.37221087">
<ele>1172</ele>
<time>2015-05-12T18:56:26Z</time>
</trkpt>
<trkpt lat="37.32830791" lon="-4.37230371">
<ele>1171</ele>
<time>2015-05-12T18:56:28Z</time>
</trkpt>
<trkpt lat="37.328184" lon="-4.37237806">
<ele>1169</ele>
<time>2015-05-12T18:56:30Z</time>
</trkpt>
<trkpt lat="37.3280871" lon="-4.37246026">
<ele>1165</ele>
<time>2015-05-12T18:56:32Z</time>
</trkpt>
<trkpt lat="37.32800185" lon="-4.37255986">
<ele>1162</ele>
<time>2015-05-12T18:56:34Z</time>
</trkpt>
<trkpt lat="37.32795508" lon="-4.37268315">
<ele>1162</ele>
<time>2015-05-12T18:56:36Z</time>
</trkpt>
<trkpt lat="37.3279939" lon="-4.37282053">
<ele>1161</ele>
<time>2015-05-12T18:56:38Z</time>
</trkpt>
<trkpt lat="37.32806632" lon="-4.37295298">
<ele>1156</ele>
<time>2015-05-12T18:56:40Z</time>
</trkpt>
<trkpt lat="37.32818252" lon="-4.37310082">
<ele>1157</ele>
<time>2015-05-12T18:56:42Z</time>
</trkpt>
<trkpt lat="37.32830792" lon="-4.37323804">
<ele>1158</ele>
<time>2015-05-12T18:56:44Z</time>
</trkpt>
<trkpt lat="37.32842641" lon="-4.37333119">
<ele>1158</ele>
<time>2015-05-12T18:56:46Z</time>
</trkpt>
<trkpt lat="37.32852124" lon="-4.37342397">
<ele>1156</ele>
<time>2015-05-12T18:56:48Z</time>
</trkpt>
<trkpt lat="37.32861712" lon="-4.37356692">
<ele>1154</ele>
<time>2015-05-12T18:56:50Z</time>
</trkpt>
<trkpt lat="37.32872909" lon="-4.37372453">
<ele>1149</ele>
<time>2015-05-12T18:56:52Z</time>
</trkpt>
<trkpt lat="37.32881888" lon="-4.37386226">
<ele>1145</ele>
<time>2015-05-12T18:56:54Z</time>
</trkpt>
<trkpt lat="37.32890985" lon="-4.37400963">
<ele>1140</ele>
<time>2015-05-12T18:56:56Z</time>
</trkpt>
<trkpt lat="37.32901934" lon="-4.37416874">
<ele>1139</ele>
<time>2015-05-12T18:56:58Z</time>
</trkpt>
<trkpt lat="37.32908937" lon="-4.37427406">
<ele>1148</ele>
<time>2015-05-12T18:57:00Z</time>
</trkpt>
<trkpt lat="37.32919016" lon="-4.37439525">
<ele>1144</ele>
<time>2015-05-12T18:57:02Z</time>
</trkpt>
<trkpt lat="37.32930993" lon="-4.3745376">
<ele>1142</ele>
<time>2015-05-12T18:57:04Z</time>
</trkpt>
<trkpt lat="37.32942209" lon="-4.37467113">
<ele>1140</ele>
<time>2015-05-12T18:57:06Z</time>
</trkpt>
<trkpt lat="37.32955636" lon="-4.37480521">
<ele>1138</ele>
<time>2015-05-12T18:57:08Z</time>
</trkpt>
<trkpt lat="37.32968314" lon="-4.37494948">
<ele>1136</ele>
<time>2015-05-12T18:57:10Z</time>
</trkpt>
<trkpt lat="37.32980755" lon="-4.37509267">
<ele>1133</ele>
<time>2015-05-12T18:57:12Z</time>
</trkpt>
<trkpt lat="37.3299757" lon="-4.3752677">
<ele>1128</ele>
<time>2015-05-12T18:57:14Z</time>
</trkpt>
<trkpt lat="37.330096" lon="-4.37541517">
<ele>1130</ele>
<time>2015-05-12T18:57:16Z</time>
</trkpt>
<trkpt lat="37.33015311" lon="-4.37553722">
<ele>1128</ele>
<time>2015-05-12T18:57:18Z</time>
</trkpt>
<trkpt lat="37.33016579" lon="-4.37568107">
<ele>1125</ele>
<time>2015-05-12T18:57:20Z</time>
</trkpt>
<trkpt lat="37.33011963" lon="-4.37581328">
<ele>1122</ele>
<time>2015-05-12T18:57:22Z</time>
</trkpt>
<trkpt lat="37.32998193" lon="-4.37582851">
<ele>1120</ele>
<time>2015-05-12T18:57:24Z</time>
</trkpt>
<trkpt lat="37.32984417" lon="-4.3757613">
<ele>1119</ele>
<time>2015-05-12T18:57:26Z</time>
</trkpt>
<trkpt lat="37.3297291" lon="-4.37563234">
<ele>1114</ele>
<time>2015-05-12T18:57:28Z</time>
</trkpt>
<trkpt lat="37.32962837" lon="-4.37539748">
<ele>1110</ele>
<time>2015-05-12T18:57:30Z</time>
</trkpt>
<trkpt lat="37.32958009" lon="-4.37511097">
<ele>1110</ele>
<time>2015-05-12T18:57:32Z</time>
</trkpt>
<trkpt lat="37.32959976" lon="-4.37483465">
<ele>1111</ele>
<time>2015-05-12T18:57:34Z</time>
</trkpt>
<trkpt lat="37.32964778" lon="-4.37453322">
<ele>1108</ele>
<time>2015-05-12T18:57:36Z</time>
</trkpt>
<trkpt lat="37.32974836" lon="-4.37424454">
<ele>1107</ele>
<time>2015-05-12T18:57:38Z</time>
</trkpt>
<trkpt lat="37.32991966" lon="-4.37403403">
<ele>1104</ele>
<time>2015-05-12T18:57:40Z</time>
</trkpt>
<trkpt lat="37.33013157" lon="-4.37387277">
<ele>1105</ele>
<time>2015-05-12T18:57:42Z</time>
</trkpt>
<trkpt lat="37.33032206" lon="-4.37377919">
<ele>1104</ele>
<time>2015-05-12T18:57:44Z</time>
</trkpt>
<trkpt lat="37.33052744" lon="-4.37379954">
<ele>1100</ele>
<time>2015-05-12T18:57:46Z</time>
</trkpt>
<trkpt lat="37.330711" lon="-4.37385015">
<ele>1101</ele>
<time>2015-05-12T18:57:48Z</time>
</trkpt>
<trkpt lat="37.33084672" lon="-4.37396525">
<ele>1098</ele>
<time>2015-05-12T18:57:50Z</time>
</trkpt>
<trkpt lat="37.33093911" lon="-4.37409946">
<ele>1096</ele>
<time>2015-05-12T18:57:52Z</time>
</trkpt>
<trkpt lat="37.33099604" lon="-4.37424894">
<ele>1092</ele>
<time>2015-05-12T18:57:54Z</time>
</trkpt>
<trkpt lat="37.33097244" lon="-4.37436829">
<ele>1089</ele>
<time>2015-05-12T18:57:56Z</time>
</trkpt>
<trkpt lat="37.33090259" lon="-4.37450482">
<ele>1086</ele>
<time>2015-05-12T18:57:58Z</time>
</trkpt>
<trkpt lat="37.33079015" lon="-4.37459702">
<ele>1084</ele>
<time>2015-05-12T18:58:00Z</time>
</trkpt>
<trkpt lat="37.33066222" lon="-4.37464041">
<ele>1081</ele>
<time>2015-05-12T18:58:02Z</time>
</trkpt>
<trkpt lat="37.33052901" lon="-4.37464149">
<ele>1080</ele>
<time>2015-05-12T18:58:04Z</time>
</trkpt>
<trkpt lat="37.33039836" lon="-4.37460356">
<ele>1077</ele>
<time>2015-05-12T18:58:06Z</time>
</trkpt>
<trkpt lat="37.33025789" lon="-4.3746312">
<ele>1075</ele>
<time>2015-05-12T18:58:08Z</time>
</trkpt>
<trkpt lat="37.33016581" lon="-4.37469399">
<ele>1075</ele>
<time>2015-05-12T18:58:10Z</time>
</trkpt>
<trkpt lat="37.33009127" lon="-4.37476119">
<ele>1073</ele>
<time>2015-05-12T18:58:12Z</time>
</trkpt>
<trkpt lat="37.3300062" lon="-4.37486653">
<ele>1070</ele>
<time>2015-05-12T18:58:14Z</time>
</trkpt>
<trkpt lat="37.32992591" lon="-4.37499655">
<ele>1068</ele>
<time>2015-05-12T18:58:16Z</time>
</trkpt>
<trkpt lat="37.32985334" lon="-4.37510137">
<ele>1065</ele>
<time>2015-05-12T18:58:18Z</time>
</trkpt>
<trkpt lat="37.32975894" lon="-4.37520474">
<ele>1062</ele>
<time>2015-05-12T18:58:20Z</time>
</trkpt>
<trkpt lat="37.32969111" lon="-4.37532881">
<ele>1063</ele>
<time>2015-05-12T18:58:22Z</time>
</trkpt>
<trkpt lat="37.32970272" lon="-4.37546449">
<ele>1059</ele>
<time>2015-05-12T18:58:24Z</time>
</trkpt>
<trkpt lat="37.32976048" lon="-4.37561323">
<ele>1056</ele>
<time>2015-05-12T18:58:26Z</time>
</trkpt>
<trkpt lat="37.3298913" lon="-4.37574817">
<ele>1055</ele>
<time>2015-05-12T18:58:28Z</time>
</trkpt>
<trkpt lat="37.33004005" lon="-4.37579954">
<ele>1052</ele>
<time>2015-05-12T18:58:30Z</time>
</trkpt>
<trkpt lat="37.33018237" lon="-4.37582319">
<ele>1051</ele>
<time>2015-05-12T18:58:32Z</time>
</trkpt>
<trkpt lat="37.3303496" lon="-4.37588927">
<ele>1051</ele>
<time>2015-05-12T18:58:34Z</time>
</trkpt>
<trkpt lat="37.33050799" lon="-4.37596735">
<ele>1051</ele>
<time>2015-05-12T18:58:36Z</time>
</trkpt>
<trkpt lat="37.33065414" lon="-4.37610038">
<ele>1048</ele>
<time>2015-05-12T18:58:38Z</time>
</trkpt>
<trkpt lat="37.33080127" lon="-4.37620848">
<ele>1045</ele>
<time>2015-05-12T18:58:40Z</time>
</trkpt>
<trkpt lat="37.3309196" lon="-4.376305">
<ele>1044</ele>
<time>2015-05-12T18:58:42Z</time>
</trkpt>
<trkpt lat="37.33102879" lon="-4.37641432">
<ele>1040</ele>
<time>2015-05-12T18:58:44Z</time>
</trkpt>
<trkpt lat="37.33120297" lon="-4.37647395">
<ele>1037</ele>
<time>2015-05-12T18:58:46Z</time>
</trkpt>
<trkpt lat="37.33134388" lon="-4.37657211">
<ele>1033</ele>
<time>2015-05-12T18:58:48Z</time>
</trkpt>
<trkpt lat="37.3314911" lon="-4.37668413">
<ele>1032</ele>
<time>2015-05-12T18:58:50Z</time>
</trkpt>
<trkpt lat="37.33156896" lon="-4.37678094">
<ele>1031</ele>
<time>2015-05-12T18:58:52Z</time>
</trkpt>
<trkpt lat="37.33164904" lon="-4.3767906">
<ele>1035</ele>
<time>2015-05-12T18:58:54Z</time>
</trkpt>
<trkpt lat="37.33168414" lon="-4.37691909">
<ele>1032</ele>
<time>2015-05-12T18:58:56Z</time>
</trkpt>
<trkpt lat="37.33165417" lon="-4.37705152">
<ele>1030</ele>
<time>2015-05-12T18:58:58Z</time>
</trkpt>
<trkpt lat="37.3316133" lon="-4.37714533">
<ele>1030</ele>
<time>2015-05-12T18:59:00Z</time>
</trkpt>
<trkpt lat="37.33161625" lon="-4.37729236">
<ele>1028</ele>
<time>2015-05-12T18:59:02Z</time>
</trkpt>
<trkpt lat="37.33165206" lon="-4.3774644">
<ele>1026</ele>
<time>2015-05-12T18:59:04Z</time>
</trkpt>
<trkpt lat="37.33176837" lon="-4.37754503">
<ele>1022</ele>
<time>2015-05-12T18:59:06Z</time>
</trkpt>
<trkpt lat="37.33193357" lon="-4.37761743">
<ele>1015</ele>
<time>2015-05-12T18:59:08Z</time>
</trkpt>
<trkpt lat="37.33207058" lon="-4.37774229">
<ele>1010</ele>
<time>2015-05-12T18:59:10Z</time>
</trkpt>
<trkpt lat="37.33218915" lon="-4.37787662">
<ele>1008</ele>
<time>2015-05-12T18:59:12Z</time>
</trkpt>
<trkpt lat="37.33229967" lon="-4.37786024">
<ele>1021</ele>
<time>2015-05-12T18:59:14Z</time>
</trkpt>
<trkpt lat="37.33242232" lon="-4.37802564">
<ele>1018</ele>
<time>2015-05-12T18:59:16Z</time>
</trkpt>
<trkpt lat="37.33248843" lon="-4.37820633">
<ele>1018</ele>
<time>2015-05-12T18:59:18Z</time>
</trkpt>
<trkpt lat="37.33245296" lon="-4.37832876">
<ele>1016</ele>
<time>2015-05-12T18:59:20Z</time>
</trkpt>
<trkpt lat="37.3323341" lon="-4.37839456">
<ele>1012</ele>
<time>2015-05-12T18:59:22Z</time>
</trkpt>
<trkpt lat="37.3321636" lon="-4.37835079">
<ele>1011</ele>
<time>2015-05-12T18:59:24Z</time>
</trkpt>
<trkpt lat="37.33201031" lon="-4.37825081">
<ele>1008</ele>
<time>2015-05-12T18:59:26Z</time>
</trkpt>
<trkpt lat="37.33184533" lon="-4.37813053">
<ele>1005</ele>
<time>2015-05-12T18:59:28Z</time>
</trkpt>
<trkpt lat="37.33165836" lon="-4.37799187">
<ele>1001</ele>
<time>2015-05-12T18:59:30Z</time>
</trkpt>
<trkpt lat="37.33147773" lon="-4.37785051">
<ele>1000</ele>
<time>2015-05-12T18:59:32Z</time>
</trkpt>
<trkpt lat="37.33134102" lon="-4.37773705">
<ele>997</ele>
<time>2015-05-12T18:59:34Z</time>
</trkpt>
<trkpt lat="37.33118352" lon="-4.37761378">
<ele>994</ele>
<time>2015-05-12T18:59:36Z</time>
</trkpt>
<trkpt lat="37.33102688" lon="-4.37749671">
<ele>990</ele>
<time>2015-05-12T18:59:38Z</time>
</trkpt>
<trkpt lat="37.33087036" lon="-4.37736244">
<ele>988</ele>
<time>2015-05-12T18:59:40Z</time>
</trkpt>
<trkpt lat="37.33072978" lon="-4.37721168">
<ele>985</ele>
<time>2015-05-12T18:59:42Z</time>
</trkpt>
<trkpt lat="37.33059852" lon="-4.3770797">
<ele>981</ele>
<time>2015-05-12T18:59:44Z</time>
</trkpt>
<trkpt lat="37.3304634" lon="-4.37692859">
<ele>978</ele>
<time>2015-05-12T18:59:46Z</time>
</trkpt>
<trkpt lat="37.33034216" lon="-4.37675992">
<ele>979</ele>
<time>2015-05-12T18:59:48Z</time>
</trkpt>
<trkpt lat="37.33021805" lon="-4.37660254">
<ele>978</ele>
<time>2015-05-12T18:59:50Z</time>
</trkpt>
<trkpt lat="37.33009504" lon="-4.37645293">
<ele>976</ele>
<time>2015-05-12T18:59:52Z</time>
</trkpt>
<trkpt lat="37.32995686" lon="-4.37630655">
<ele>973</ele>
<time>2015-05-12T18:59:54Z</time>
</trkpt>
<trkpt lat="37.32979674" lon="-4.37613669">
<ele>970</ele>
<time>2015-05-12T18:59:56Z</time>
</trkpt>
<trkpt lat="37.32965406" lon="-4.37597864">
<ele>967</ele>
<time>2015-05-12T18:59:58Z</time>
</trkpt>
<trkpt lat="37.32952245" lon="-4.37580447">
<ele>965</ele>
<time>2015-05-12T19:00:00Z</time>
</trkpt>
<trkpt lat="37.3294008" lon="-4.37563703">
<ele>964</ele>
<time>2015-05-12T19:00:02Z</time>
</trkpt>
<trkpt lat="37.32927529" lon="-4.37547998">
<ele>962</ele>
<time>2015-05-12T19:00:04Z</time>
</trkpt>
<trkpt lat="37.32911934" lon="-4.3753055">
<ele>960</ele>
<time>2015-05-12T19:00:06Z</time>
</trkpt>
<trkpt lat="37.32896614" lon="-4.37518071">
<ele>958</ele>
<time>2015-05-12T19:00:08Z</time>
</trkpt>
<trkpt lat="37.32878236" lon="-4.37511421">
<ele>957</ele>
<time>2015-05-12T19:00:10Z</time>
</trkpt>
<trkpt lat="37.32863949" lon="-4.37501223">
<ele>953</ele>
<time>2015-05-12T19:00:12Z</time>
</trkpt>
<trkpt lat="37.32847851" lon="-4.37489085">
<ele>949</ele>
<time>2015-05-12T19:00:14Z</time>
</trkpt>
<trkpt lat="37.32829909" lon="-4.37480864">
<ele>948</ele>
<time>2015-05-12T19:00:16Z</time>
</trkpt>
<trkpt lat="37.32810305" lon="-4.37474724">
<ele>947</ele>
<time>2015-05-12T19:00:18Z</time>
</trkpt>
<trkpt lat="37.32793722" lon="-4.37466546">
<ele>946</ele>
<time>2015-05-12T19:00:20Z</time>
</trkpt>
<trkpt lat="37.32779541" lon="-4.37467666">
<ele>945</ele>
<time>2015-05-12T19:00:22Z</time>
</trkpt>
<trkpt lat="37.32765139" lon="-4.37474517">
<ele>942</ele>
<time>2015-05-12T19:00:24Z</time>
</trkpt>
<trkpt lat="37.32753355" lon="-4.37484621">
<ele>939</ele>
<time>2015-05-12T19:00:26Z</time>
</trkpt>
<trkpt lat="37.32744471" lon="-4.37498475">
<ele>934</ele>
<time>2015-05-12T19:00:28Z</time>
</trkpt>
<trkpt lat="37.32738123" lon="-4.3751082">
<ele>929</ele>
<time>2015-05-12T19:00:30Z</time>
</trkpt>
<trkpt lat="37.32732652" lon="-4.37524224">
<ele>926</ele>
<time>2015-05-12T19:00:32Z</time>
</trkpt>
<trkpt lat="37.32726155" lon="-4.37535751">
<ele>921</ele>
<time>2015-05-12T19:00:34Z</time>
</trkpt>
<trkpt lat="37.32720572" lon="-4.37550013">
<ele>918</ele>
<time>2015-05-12T19:00:36Z</time>
</trkpt>
<trkpt lat="37.32715567" lon="-4.37563519">
<ele>914</ele>
<time>2015-05-12T19:00:38Z</time>
</trkpt>
<trkpt lat="37.3271612" lon="-4.3757712">
<ele>911</ele>
<time>2015-05-12T19:00:40Z</time>
</trkpt>
<trkpt lat="37.32724809" lon="-4.37591778">
<ele>907</ele>
<time>2015-05-12T19:00:42Z</time>
</trkpt>
<trkpt lat="37.32739399" lon="-4.37598258">
<ele>905</ele>
<time>2015-05-12T19:00:44Z</time>
</trkpt>
<trkpt lat="37.32757367" lon="-4.37594252">
<ele>903</ele>
<time>2015-05-12T19:00:46Z</time>
</trkpt>
<trkpt lat="37.32776411" lon="-4.37579851">
<ele>900</ele>
<time>2015-05-12T19:00:48Z</time>
</trkpt>
<trkpt lat="37.32790766" lon="-4.37553247">
<ele>898</ele>
<time>2015-05-12T19:00:50Z</time>
</trkpt>
<trkpt lat="37.32792907" lon="-4.37519539">
<ele>896</ele>
<time>2015-05-12T19:00:52Z</time>
</trkpt>
<trkpt lat="37.3278531" lon="-4.37493728">
<ele>896</ele>
<time>2015-05-12T19:00:54Z</time>
</trkpt>
<trkpt lat="37.32772692" lon="-4.37477951">
<ele>894</ele>
<time>2015-05-12T19:00:56Z</time>
</trkpt>
<trkpt lat="37.3275602" lon="-4.37470508">
<ele>887</ele>
<time>2015-05-12T19:00:58Z</time>
</trkpt>
<trkpt lat="37.32737403" lon="-4.37473679">
<ele>884</ele>
<time>2015-05-12T19:01:00Z</time>
</trkpt>
<trkpt lat="37.32726913" lon="-4.37480804">
<ele>881</ele>
<time>2015-05-12T19:01:02Z</time>
</trkpt>
<trkpt lat="37.32715415" lon="-4.37482455">
<ele>876</ele>
<time>2015-05-12T19:01:04Z</time>
</trkpt>
<trkpt lat="37.32701644" lon="-4.37487499">
<ele>874</ele>
<time>2015-05-12T19:01:06Z</time>
</trkpt>
<trkpt lat="37.32687401" lon="-4.37489437">
<ele>873</ele>
<time>2015-05-12T19:01:08Z</time>
</trkpt>
<trkpt lat="37.32678202" lon="-4.37495661">
<ele>868</ele>
<time>2015-05-12T19:01:10Z</time>
</trkpt>
<trkpt lat="37.32671324" lon="-4.37508129">
<ele>864</ele>
<time>2015-05-12T19:01:12Z</time>
</trkpt>
<trkpt lat="37.326756" lon="-4.37519837">
<ele>859</ele>
<time>2015-05-12T19:01:14Z</time>
</trkpt>
<trkpt lat="37.32686535" lon="-4.37526231">
<ele>854</ele>
<time>2015-05-12T19:01:16Z</time>
</trkpt>
<trkpt lat="37.32701418" lon="-4.37533546">
<ele>852</ele>
<time>2015-05-12T19:01:18Z</time>
</trkpt>
<trkpt lat="37.32714964" lon="-4.37536249">
<ele>852</ele>
<time>2015-05-12T19:01:20Z</time>
</trkpt>
<trkpt lat="37.32728468" lon="-4.37537901">
<ele>849</ele>
<time>2015-05-12T19:01:22Z</time>
</trkpt>
<trkpt lat="37.32744757" lon="-4.37538355">
<ele>847</ele>
<time>2015-05-12T19:01:24Z</time>
</trkpt>
<trkpt lat="37.32759898" lon="-4.37536943">
<ele>843</ele>
<time>2015-05-12T19:01:26Z</time>
</trkpt>
<trkpt lat="37.32774182" lon="-4.37538957">
<ele>840</ele>
<time>2015-05-12T19:01:28Z</time>
</trkpt>
<trkpt lat="37.32790649" lon="-4.3754396">
<ele>837</ele>
<time>2015-05-12T19:01:30Z</time>
</trkpt>
<trkpt lat="37.32806079" lon="-4.37549606">
<ele>837</ele>
<time>2015-05-12T19:01:32Z</time>
</trkpt>
<trkpt lat="37.32818954" lon="-4.37553276">
<ele>834</ele>
<time>2015-05-12T19:01:34Z</time>
</trkpt>
<trkpt lat="37.32836004" lon="-4.37557026">
<ele>829</ele>
<time>2015-05-12T19:01:36Z</time>
</trkpt>
<trkpt lat="37.32852924" lon="-4.37565731">
<ele>827</ele>
<time>2015-05-12T19:01:38Z</time>
</trkpt>
<trkpt lat="37.32864279" lon="-4.37574243">
<ele>828</ele>
<time>2015-05-12T19:01:40Z</time>
</trkpt>
<trkpt lat="37.32875757" lon="-4.37582402">
<ele>824</ele>
<time>2015-05-12T19:01:42Z</time>
</trkpt>
<trkpt lat="37.32882457" lon="-4.37594959">
<ele>821</ele>
<time>2015-05-12T19:01:44Z</time>
</trkpt>
<trkpt lat="37.32886946" lon="-4.37605771">
<ele>819</ele>
<time>2015-05-12T19:01:46Z</time>
</trkpt>
<trkpt lat="37.32895949" lon="-4.37615995">
<ele>816</ele>
<time>2015-05-12T19:01:48Z</time>
</trkpt>
<trkpt lat="37.32895807" lon="-4.37629381">
<ele>813</ele>
<time>2015-05-12T19:01:50Z</time>
</trkpt>
<trkpt lat="37.32883589" lon="-4.37634051">
<ele>813</ele>
<time>2015-05-12T19:01:52Z</time>
</trkpt>
<trkpt lat="37.32870232" lon="-4.37624706">
<ele>814</ele>
<time>2015-05-12T19:01:54Z</time>
</trkpt>
<trkpt lat="37.32857987" lon="-4.37604888">
<ele>811</ele>
<time>2015-05-12T19:01:56Z</time>
</trkpt>
<trkpt lat="37.3284496" lon="-4.37583102">
<ele>809</ele>
<time>2015-05-12T19:01:58Z</time>
</trkpt>
<trkpt lat="37.32831031" lon="-4.37567421">
<ele>807</ele>
<time>2015-05-12T19:02:00Z</time>
</trkpt>
<trkpt lat="37.32817831" lon="-4.37553455">
<ele>806</ele>
<time>2015-05-12T19:02:02Z</time>
</trkpt>
<trkpt lat="37.32804324" lon="-4.37534005">
<ele>802</ele>
<time>2015-05-12T19:02:04Z</time>
</trkpt>
<trkpt lat="37.32791355" lon="-4.37513571">
<ele>801</ele>
<time>2015-05-12T19:02:06Z</time>
</trkpt>
<trkpt lat="37.32779149" lon="-4.37492474">
<ele>799</ele>
<time>2015-05-12T19:02:08Z</time>
</trkpt>
<trkpt lat="37.32761204" lon="-4.37475103">
<ele>795</ele>
<time>2015-05-12T19:02:10Z</time>
</trkpt>
<trkpt lat="37.32740199" lon="-4.37466214">
<ele>793</ele>
<time>2015-05-12T19:02:12Z</time>
</trkpt>
<trkpt lat="37.32722648" lon="-4.37461182">
<ele>792</ele>
<time>2015-05-12T19:02:14Z</time>
</trkpt>
<trkpt lat="37.32706798" lon="-4.37462959">
<ele>788</ele>
<time>2015-05-12T19:02:16Z</time>
</trkpt>
<trkpt lat="37.32692839" lon="-4.3747032">
<ele>784</ele>
<time>2015-05-12T19:02:18Z</time>
</trkpt>
<trkpt lat="37.32681391" lon="-4.37479319">
<ele>783</ele>
<time>2015-05-12T19:02:20Z</time>
</trkpt>
<trkpt lat="37.32672151" lon="-4.37486213">
<ele>781</ele>
<time>2015-05-12T19:02:22Z</time>
</trkpt>
<trkpt lat="37.32669196" lon="-4.37497301">
<ele>777</ele>
<time>2015-05-12T19:02:24Z</time>
</trkpt>
<trkpt lat="37.32676116" lon="-4.37507942">
<ele>775</ele>
<time>2015-05-12T19:02:26Z</time>
</trkpt>
<trkpt lat="37.32689694" lon="-4.3750916">
<ele>772</ele>
<time>2015-05-12T19:02:28Z</time>
</trkpt>
<trkpt lat="37.32703738" lon="-4.37504134">
<ele>771</ele>
<time>2015-05-12T19:02:30Z</time>
</trkpt>
<trkpt lat="37.32716627" lon="-4.3750284">
<ele>770</ele>
<time>2015-05-12T19:02:32Z</time>
</trkpt>
<trkpt lat="37.32733587" lon="-4.37502362">
<ele>769</ele>
<time>2015-05-12T19:02:34Z</time>
</trkpt>
<trkpt lat="37.32745368" lon="-4.37505751">
<ele>771</ele>
<time>2015-05-12T19:02:36Z</time>
</trkpt>
<trkpt lat="37.32752685" lon="-4.3751173">
<ele>770</ele>
<time>2015-05-12T19:02:38Z</time>
</trkpt>
<trkpt lat="37.32765322" lon="-4.37515708">
<ele>768</ele>
<time>2015-05-12T19:02:40Z</time>
</trkpt>
<trkpt lat="37.32775628" lon="-4.37520364">
<ele>769</ele>
<time>2015-05-12T19:02:42Z</time>
</trkpt>
<trkpt lat="37.3278564" lon="-4.37523903">
<ele>767</ele>
<time>2015-05-12T19:02:44Z</time>
</trkpt>
<trkpt lat="37.32796521" lon="-4.37530961">
<ele>766</ele>
<time>2015-05-12T19:02:46Z</time>
</trkpt>
<trkpt lat="37.32794893" lon="-4.37538737">
<ele>762</ele>
<time>2015-05-12T19:02:48Z</time>
</trkpt>
<trkpt lat="37.32781174" lon="-4.37543723">
<ele>761</ele>
<time>2015-05-12T19:02:50Z</time>
</trkpt>
<trkpt lat="37.32776385" lon="-4.37554647">
<ele>759</ele>
<time>2015-05-12T19:02:52Z</time>
</trkpt>
<trkpt lat="37.32818154" lon="-4.37550169">
<ele>756</ele>
<time>2015-05-12T19:02:54Z</time>
</trkpt>
<trkpt lat="37.32823993" lon="-4.37555168">
<ele>751</ele>
<time>2015-05-12T19:02:56Z</time>
</trkpt>
<trkpt lat="37.32816705" lon="-4.37564005">
<ele>743</ele>
<time>2015-05-12T19:02:58Z</time>
</trkpt>
<trkpt lat="37.32803962" lon="-4.37564101">
<ele>742</ele>
<time>2015-05-12T19:03:00Z</time>
</trkpt>
<trkpt lat="37.32792698" lon="-4.37554334">
<ele>740</ele>
<time>2015-05-12T19:03:02Z</time>
</trkpt>
<trkpt lat="37.32775473" lon="-4.37546165">
<ele>730</ele>
<time>2015-05-12T19:03:04Z</time>
</trkpt>
<trkpt lat="37.32759321" lon="-4.37543733">
<ele>729</ele>
<time>2015-05-12T19:03:06Z</time>
</trkpt>
<trkpt lat="37.32748604" lon="-4.37538216">
<ele>726</ele>
<time>2015-05-12T19:03:08Z</time>
</trkpt>
<trkpt lat="37.32738119" lon="-4.37535028">
<ele>718</ele>
<time>2015-05-12T19:03:10Z</time>
</trkpt>
<trkpt lat="37.32732921" lon="-4.37544814">
<ele>711</ele>
<time>2015-05-12T19:03:12Z</time>
</trkpt>
<trkpt lat="37.32740371" lon="-4.37553437">
<ele>708</ele>
<time>2015-05-12T19:03:14Z</time>
</trkpt>
<trkpt lat="37.32752221" lon="-4.37555418">
<ele>705</ele>
<time>2015-05-12T19:03:16Z</time>
</trkpt>
<trkpt lat="37.32762881" lon="-4.37560392">
<ele>702</ele>
<time>2015-05-12T19:03:18Z</time>
</trkpt>
<trkpt lat="37.32772695" lon="-4.37568837">
<ele>698</ele>
<time>2015-05-12T19:03:20Z</time>
</trkpt>
<trkpt lat="37.327791" lon="-4.37581697">
<ele>692</ele>
<time>2015-05-12T19:03:22Z</time>
</trkpt>
<trkpt lat="37.32785929" lon="-4.37593935">
<ele>689</ele>
<time>2015-05-12T19:03:24Z</time>
</trkpt>
<trkpt lat="37.32794612" lon="-4.37602125">
<ele>686</ele>
<time>2015-05-12T19:03:26Z</time>
</trkpt>
<trkpt lat="37.32801452" lon="-4.37610558">
<ele>681</ele>
<time>2015-05-12T19:03:28Z</time>
</trkpt>
<trkpt lat="37.32799357" lon="-4.37620042">
<ele>677</ele>
<time>2015-05-12T19:03:30Z</time>
</trkpt>
<trkpt lat="37.32792794" lon="-4.37626368">
<ele>675</ele>
<time>2015-05-12T19:03:32Z</time>
</trkpt>
<trkpt lat="37.32790832" lon="-4.37633581">
<ele>672</ele>
<time>2015-05-12T19:03:34Z</time>
</trkpt>
<trkpt lat="37.32790362" lon="-4.37642034">
<ele>669</ele>
<time>2015-05-12T19:03:36Z</time>
</trkpt>
<trkpt lat="37.32790403" lon="-4.37649401">
<ele>667</ele>
<time>2015-05-12T19:03:38Z</time>
</trkpt>
<trkpt lat="37.3278939" lon="-4.37657737">
<ele>665</ele>
<time>2015-05-12T19:03:40Z</time>
</trkpt>
<trkpt lat="37.32790831" lon="-4.37667505">
<ele>664</ele>
<time>2015-05-12T19:03:42Z</time>
</trkpt>
<trkpt lat="37.32793749" lon="-4.37677082">
<ele>661</ele>
<time>2015-05-12T19:03:44Z</time>
</trkpt>
<trkpt lat="37.32798216" lon="-4.37689121">
<ele>657</ele>
<time>2015-05-12T19:03:46Z</time>
</trkpt>
<trkpt lat="37.32799147" lon="-4.37701623">
<ele>654</ele>
<time>2015-05-12T19:03:48Z</time>
</trkpt>
<trkpt lat="37.32796498" lon="-4.37719311">
<ele>652</ele>
<time>2015-05-12T19:03:50Z</time>
</trkpt>
<trkpt lat="37.32799642" lon="-4.37731891">
<ele>651</ele>
<time>2015-05-12T19:03:52Z</time>
</trkpt>
<trkpt lat="37.3280523" lon="-4.37739023">
<ele>648</ele>
<time>2015-05-12T19:03:54Z</time>
</trkpt>
<trkpt lat="37.32810457" lon="-4.37746572">
<ele>646</ele>
<time>2015-05-12T19:03:56Z</time>
</trkpt>
<trkpt lat="37.32814938" lon="-4.37752177">
<ele>645</ele>
<time>2015-05-12T19:03:58Z</time>
</trkpt>
<trkpt lat="37.32814664" lon="-4.37749118">
<ele>643</ele>
<time>2015-05-12T19:04:00Z</time>
</trkpt>
<trkpt lat="37.3281621" lon="-4.37748492">
<ele>643</ele>
<time>2015-05-12T19:04:02Z</time>
</trkpt>
<trkpt lat="37.3281485" lon="-4.37749791">
<ele>642</ele>
<time>2015-05-12T19:04:04Z</time>
</trkpt>
<trkpt lat="37.32814494" lon="-4.37749369">
<ele>643</ele>
<time>2015-05-12T19:04:06Z</time>
</trkpt>
<trkpt lat="37.32814878" lon="-4.37748398">
<ele>643</ele>
<time>2015-05-12T19:04:08Z</time>
</trkpt>
<trkpt lat="37.32815" lon="-4.37747669">
<ele>643</ele>
<time>2015-05-12T19:04:10Z</time>
</trkpt>
<trkpt lat="37.32815631" lon="-4.37747209">
<ele>642</ele>
<time>2015-05-12T19:04:12Z</time>
</trkpt>
<trkpt lat="37.32816147" lon="-4.3774781">
<ele>643</ele>
<time>2015-05-12T19:04:14Z</time>
</trkpt>
<trkpt lat="37.32816372" lon="-4.37748108">
<ele>643</ele>
<time>2015-05-12T19:04:16Z</time>
</trkpt>
<trkpt lat="37.32816449" lon="-4.37748156">
<ele>643</ele>
<time>2015-05-12T19:04:18Z</time>
</trkpt>
<trkpt lat="37.32816644" lon="-4.3774786">
<ele>643</ele>
<time>2015-05-12T19:04:20Z</time>
</trkpt>
<trkpt lat="37.32817149" lon="-4.37746545">
<ele>642</ele>
<time>2015-05-12T19:04:22Z</time>
</trkpt>
<trkpt lat="37.32817643" lon="-4.37745064">
<ele>642</ele>
<time>2015-05-12T19:04:24Z</time>
</trkpt>
<trkpt lat="37.32817434" lon="-4.37744241">
<ele>641</ele>
<time>2015-05-12T19:04:26Z</time>
</trkpt>
<trkpt lat="37.32817214" lon="-4.37743864">
<ele>641</ele>
<time>2015-05-12T19:04:28Z</time>
</trkpt>
<trkpt lat="37.32818003" lon="-4.37745121">
<ele>640</ele>
<time>2015-05-12T19:04:30Z</time>
</trkpt>
<trkpt lat="37.32820019" lon="-4.3774701">
<ele>639</ele>
<time>2015-05-12T19:04:32Z</time>
</trkpt>
<trkpt lat="37.32822242" lon="-4.3774873">
<ele>638</ele>
<time>2015-05-12T19:04:34Z</time>
</trkpt>
<trkpt lat="37.32824277" lon="-4.37750638">
<ele>637</ele>
<time>2015-05-12T19:04:36Z</time>
</trkpt>
<trkpt lat="37.32826383" lon="-4.37752752">
<ele>641</ele>
<time>2015-05-12T19:04:38Z</time>
</trkpt>
<trkpt lat="37.32828025" lon="-4.37754965">
<ele>643</ele>
<time>2015-05-12T19:04:40Z</time>
</trkpt>
<trkpt lat="37.32830088" lon="-4.37757212">
<ele>644</ele>
<time>2015-05-12T19:04:42Z</time>
</trkpt>
<trkpt lat="37.32832844" lon="-4.37759337">
<ele>645</ele>
<time>2015-05-12T19:04:44Z</time>
</trkpt>
<trkpt lat="37.32834985" lon="-4.37761638">
<ele>645</ele>
<time>2015-05-12T19:04:46Z</time>
</trkpt>
<trkpt lat="37.32837094" lon="-4.37763441">
<ele>645</ele>
<time>2015-05-12T19:04:48Z</time>
</trkpt>
<trkpt lat="37.32838857" lon="-4.3776522">
<ele>645</ele>
<time>2015-05-12T19:04:50Z</time>
</trkpt>
<trkpt lat="37.32840375" lon="-4.37767186">
<ele>645</ele>
<time>2015-05-12T19:04:52Z</time>
</trkpt>
<trkpt lat="37.32841486" lon="-4.37769492">
<ele>645</ele>
<time>2015-05-12T19:04:54Z</time>
</trkpt>
<trkpt lat="37.32843" lon="-4.37771423">
<ele>645</ele>
<time>2015-05-12T19:04:56Z</time>
</trkpt>
<trkpt lat="37.32844524" lon="-4.3777347">
<ele>644</ele>
<time>2015-05-12T19:04:58Z</time>
</trkpt>
<trkpt lat="37.32845757" lon="-4.37775664">
<ele>642</ele>
<time>2015-05-12T19:05:00Z</time>
</trkpt>
<trkpt lat="37.32847134" lon="-4.37777892">
<ele>641</ele>
<time>2015-05-12T19:05:02Z</time>
</trkpt>
<trkpt lat="37.32848851" lon="-4.37779537">
<ele>641</ele>
<time>2015-05-12T19:05:04Z</time>
</trkpt>
<trkpt lat="37.32850299" lon="-4.37781647">
<ele>641</ele>
<time>2015-05-12T19:05:06Z</time>
</trkpt>
<trkpt lat="37.32851768" lon="-4.37783846">
<ele>640</ele>
<time>2015-05-12T19:05:08Z</time>
</trkpt>
<trkpt lat="37.32853237" lon="-4.37786222">
<ele>640</ele>
<time>2015-05-12T19:05:10Z</time>
</trkpt>
<trkpt lat="37.32854499" lon="-4.37788713">
<ele>639</ele>
<time>2015-05-12T19:05:12Z</time>
</trkpt>
<trkpt lat="37.32856209" lon="-4.37791171">
<ele>639</ele>
<time>2015-05-12T19:05:14Z</time>
</trkpt>
<trkpt lat="37.32857805" lon="-4.37793264">
<ele>638</ele>
<time>2015-05-12T19:05:16Z</time>
</trkpt>
<trkpt lat="37.32859688" lon="-4.37794715">
<ele>639</ele>
<time>2015-05-12T19:05:18Z</time>
</trkpt>
<trkpt lat="37.32861904" lon="-4.37794281">
<ele>636</ele>
<time>2015-05-12T19:05:20Z</time>
</trkpt>
<trkpt lat="37.32864159" lon="-4.37791289">
<ele>636</ele>
<time>2015-05-12T19:05:22Z</time>
</trkpt>
<trkpt lat="37.32866563" lon="-4.37789066">
<ele>636</ele>
<time>2015-05-12T19:05:24Z</time>
</trkpt>
<trkpt lat="37.32868696" lon="-4.37786807">
<ele>636</ele>
<time>2015-05-12T19:05:26Z</time>
</trkpt>
<trkpt lat="37.3287074" lon="-4.37785053">
<ele>635</ele>
<time>2015-05-12T19:05:28Z</time>
</trkpt>
<trkpt lat="37.32873201" lon="-4.37782621">
<ele>636</ele>
<time>2015-05-12T19:05:30Z</time>
</trkpt>
<trkpt lat="37.32874432" lon="-4.37780215">
<ele>636</ele>
<time>2015-05-12T19:05:32Z</time>
</trkpt>
<trkpt lat="37.32875667" lon="-4.37777761">
<ele>636</ele>
<time>2015-05-12T19:05:34Z</time>
</trkpt>
<trkpt lat="37.32876837" lon="-4.37775131">
<ele>635</ele>
<time>2015-05-12T19:05:36Z</time>
</trkpt>
<trkpt lat="37.32877837" lon="-4.37772657">
<ele>635</ele>
<time>2015-05-12T19:05:38Z</time>
</trkpt>
<trkpt lat="37.32879307" lon="-4.37770346">
<ele>635</ele>
<time>2015-05-12T19:05:40Z</time>
</trkpt>
<trkpt lat="37.32880628" lon="-4.37767876">
<ele>634</ele>
<time>2015-05-12T19:05:42Z</time>
</trkpt>
<trkpt lat="37.32881902" lon="-4.37765568">
<ele>634</ele>
<time>2015-05-12T19:05:44Z</time>
</trkpt>
<trkpt lat="37.32882784" lon="-4.37763355">
<ele>633</ele>
<time>2015-05-12T19:05:46Z</time>
</trkpt>
<trkpt lat="37.3288387" lon="-4.37761252">
<ele>632</ele>
<time>2015-05-12T19:05:48Z</time>
</trkpt>
<trkpt lat="37.32885013" lon="-4.37759393">
<ele>632</ele>
<time>2015-05-12T19:05:50Z</time>
</trkpt>
<trkpt lat="37.32885966" lon="-4.37757383">
<ele>631</ele>
<time>2015-05-12T19:05:52Z</time>
</trkpt>
<trkpt lat="37.32886633" lon="-4.37755124">
<ele>631</ele>
<time>2015-05-12T19:05:54Z</time>
</trkpt>
<trkpt lat="37.32887482" lon="-4.3775267">
<ele>631</ele>
<time>2015-05-12T19:05:56Z</time>
</trkpt>
<trkpt lat="37.3288887" lon="-4.37751101">
<ele>631</ele>
<time>2015-05-12T19:05:58Z</time>
</trkpt>
<trkpt lat="37.32890349" lon="-4.37750049">
<ele>631</ele>
<time>2015-05-12T19:06:00Z</time>
</trkpt>
<trkpt lat="37.32891646" lon="-4.37748153">
<ele>630</ele>
<time>2015-05-12T19:06:02Z</time>
</trkpt>
<trkpt lat="37.32893369" lon="-4.37746541">
<ele>631</ele>
<time>2015-05-12T19:06:04Z</time>
</trkpt>
<trkpt lat="37.3289533" lon="-4.37744977">
<ele>630</ele>
<time>2015-05-12T19:06:06Z</time>
</trkpt>
<trkpt lat="37.32897428" lon="-4.3774349">
<ele>632</ele>
<time>2015-05-12T19:06:08Z</time>
</trkpt>
<trkpt lat="37.32899586" lon="-4.37741586">
<ele>632</ele>
<time>2015-05-12T19:06:10Z</time>
</trkpt>
<trkpt lat="37.3290128" lon="-4.37738731">
<ele>632</ele>
<time>2015-05-12T19:06:12Z</time>
</trkpt>
<trkpt lat="37.3290283" lon="-4.3773581">
<ele>633</ele>
<time>2015-05-12T19:06:14Z</time>
</trkpt>
<trkpt lat="37.32904377" lon="-4.37732995">
<ele>634</ele>
<time>2015-05-12T19:06:16Z</time>
</trkpt>
<trkpt lat="37.32906429" lon="-4.37730575">
<ele>635</ele>
<time>2015-05-12T19:06:18Z</time>
</trkpt>
<trkpt lat="37.32907965" lon="-4.37727566">
<ele>637</ele>
<time>2015-05-12T19:06:20Z</time>
</trkpt>
<trkpt lat="37.32909255" lon="-4.37724197">
<ele>635</ele>
<time>2015-05-12T19:06:22Z</time>
</trkpt>
<trkpt lat="37.32910457" lon="-4.37720237">
<ele>636</ele>
<time>2015-05-12T19:06:24Z</time>
</trkpt>
<trkpt lat="37.3291156" lon="-4.37716662">
<ele>637</ele>
<time>2015-05-12T19:06:26Z</time>
</trkpt>
<trkpt lat="37.32912876" lon="-4.37713285">
<ele>636</ele>
<time>2015-05-12T19:06:28Z</time>
</trkpt>
<trkpt lat="37.32914125" lon="-4.37710396">
<ele>637</ele>
<time>2015-05-12T19:06:30Z</time>
</trkpt>
<trkpt lat="37.3291593" lon="-4.37708542">
<ele>637</ele>
<time>2015-05-12T19:06:32Z</time>
</trkpt>
<trkpt lat="37.32918015" lon="-4.37707214">
<ele>638</ele>
<time>2015-05-12T19:06:34Z</time>
</trkpt>
<trkpt lat="37.32920211" lon="-4.37706518">
<ele>637</ele>
<time>2015-05-12T19:06:36Z</time>
</trkpt>
<trkpt lat="37.32922513" lon="-4.37706359">
<ele>637</ele>
<time>2015-05-12T19:06:38Z</time>
</trkpt>
<trkpt lat="37.32924467" lon="-4.37707579">
<ele>639</ele>
<time>2015-05-12T19:06:40Z</time>
</trkpt>
<trkpt lat="37.32924631" lon="-4.37709258">
<ele>641</ele>
<time>2015-05-12T19:06:42Z</time>
</trkpt>
<trkpt lat="37.32924672" lon="-4.37709748">
<ele>641</ele>
<time>2015-05-12T19:06:44Z</time>
</trkpt>
<trkpt lat="37.32924952" lon="-4.37709658">
<ele>640</ele>
<time>2015-05-12T19:06:46Z</time>
</trkpt>
<trkpt lat="37.32925028" lon="-4.37709562">
<ele>639</ele>
<time>2015-05-12T19:06:48Z</time>
</trkpt>
<trkpt lat="37.32924945" lon="-4.37709737">
<ele>639</ele>
<time>2015-05-12T19:06:50Z</time>
</trkpt>
<trkpt lat="37.32924757" lon="-4.37709629">
<ele>639</ele>
<time>2015-05-12T19:06:52Z</time>
</trkpt>
<trkpt lat="37.32924778" lon="-4.37709521">
<ele>639</ele>
<time>2015-05-12T19:06:54Z</time>
</trkpt>
<trkpt lat="37.32924859" lon="-4.37709505">
<ele>639</ele>
<time>2015-05-12T19:06:56Z</time>
</trkpt>
<trkpt lat="37.32924935" lon="-4.37709562">
<ele>640</ele>
<time>2015-05-12T19:06:58Z</time>
</trkpt>
<trkpt lat="37.3292498" lon="-4.37709594">
<ele>640</ele>
<time>2015-05-12T19:07:00Z</time>
</trkpt>
<trkpt lat="37.32925009" lon="-4.37709623">
<ele>640</ele>
<time>2015-05-12T19:07:02Z</time>
</trkpt>
<trkpt lat="37.32925014" lon="-4.37709623">
<ele>640</ele>
<time>2015-05-12T19:07:04Z</time>
</trkpt>
<trkpt lat="37.32925027" lon="-4.3770963">
<ele>639</ele>
<time>2015-05-12T19:07:06Z</time>
</trkpt>
<trkpt lat="37.32925029" lon="-4.3770963">
<ele>639</ele>
<time>2015-05-12T19:07:08Z</time>
</trkpt>
<trkpt lat="37.32925028" lon="-4.37709642">
<ele>640</ele>
<time>2015-05-12T19:07:10Z</time>
</trkpt>
<trkpt lat="37.32925031" lon="-4.37709633">
<ele>640</ele>
<time>2015-05-12T19:07:12Z</time>
</trkpt>
<trkpt lat="37.32925031" lon="-4.37709623">
<ele>640</ele>
<time>2015-05-12T19:07:14Z</time>
</trkpt>
<trkpt lat="37.3292503" lon="-4.37709619">
<ele>640</ele>
<time>2015-05-12T19:07:16Z</time>
</trkpt>
<trkpt lat="37.3292503" lon="-4.37709617">
<ele>640</ele>
<time>2015-05-12T19:07:18Z</time>
</trkpt>
<trkpt lat="37.32925034" lon="-4.37709611">
<ele>640</ele>
<time>2015-05-12T19:07:20Z</time>
</trkpt>
<trkpt lat="37.32925035" lon="-4.37709611">
<ele>640</ele>
<time>2015-05-12T19:07:22Z</time>
</trkpt>
<trkpt lat="37.32925032" lon="-4.37709612">
<ele>640</ele>
<time>2015-05-12T19:07:24Z</time>
</trkpt>
<trkpt lat="37.32925028" lon="-4.3770961">
<ele>640</ele>
<time>2015-05-12T19:07:26Z</time>
</trkpt>
<trkpt lat="37.32925014" lon="-4.37709602">
<ele>640</ele>
<time>2015-05-12T19:07:28Z</time>
</trkpt>
<trkpt lat="37.32924975" lon="-4.37709563">
<ele>640</ele>
<time>2015-05-12T19:07:30Z</time>
</trkpt>
<trkpt lat="37.32924946" lon="-4.37709531">
<ele>640</ele>
<time>2015-05-12T19:07:32Z</time>
</trkpt>
<trkpt lat="37.32924924" lon="-4.37709507">
<ele>640</ele>
<time>2015-05-12T19:07:34Z</time>
</trkpt>
<trkpt lat="37.32924915" lon="-4.37709496">
<ele>640</ele>
<time>2015-05-12T19:07:36Z</time>
</trkpt>
<trkpt lat="37.32924916" lon="-4.37709492">
<ele>640</ele>
<time>2015-05-12T19:07:38Z</time>
</trkpt>
<trkpt lat="37.32924911" lon="-4.37709497">
<ele>640</ele>
<time>2015-05-12T19:07:40Z</time>
</trkpt>
<trkpt lat="37.32924899" lon="-4.37709501">
<ele>640</ele>
<time>2015-05-12T19:07:42Z</time>
</trkpt>
<trkpt lat="37.32924884" lon="-4.37709505">
<ele>640</ele>
<time>2015-05-12T19:07:44Z</time>
</trkpt>
<trkpt lat="37.3292487" lon="-4.37709508">
<ele>640</ele>
<time>2015-05-12T19:07:46Z</time>
</trkpt>
<trkpt lat="37.3292486" lon="-4.37709508">
<ele>640</ele>
<time>2015-05-12T19:07:48Z</time>
</trkpt>
<trkpt lat="37.32924852" lon="-4.37709513">
<ele>640</ele>
<time>2015-05-12T19:07:50Z</time>
</trkpt>
<trkpt lat="37.32924844" lon="-4.37709519">
<ele>640</ele>
<time>2015-05-12T19:07:52Z</time>
</trkpt>
<trkpt lat="37.32924838" lon="-4.37709527">
<ele>640</ele>
<time>2015-05-12T19:07:54Z</time>
</trkpt>
<trkpt lat="37.32924841" lon="-4.37709527">
<ele>640</ele>
<time>2015-05-12T19:07:56Z</time>
</trkpt>
<trkpt lat="37.32924848" lon="-4.37709522">
<ele>640</ele>
<time>2015-05-12T19:07:58Z</time>
</trkpt>
<trkpt lat="37.32924852" lon="-4.37709521">
<ele>640</ele>
<time>2015-05-12T19:08:00Z</time>
</trkpt>
<trkpt lat="37.32924857" lon="-4.37709513">
<ele>640</ele>
<time>2015-05-12T19:08:02Z</time>
</trkpt>
<trkpt lat="37.32924859" lon="-4.37709511">
<ele>640</ele>
<time>2015-05-12T19:08:04Z</time>
</trkpt>
<trkpt lat="37.32924856" lon="-4.37709516">
<ele>640</ele>
<time>2015-05-12T19:08:06Z</time>
</trkpt>
<trkpt lat="37.32924855" lon="-4.37709519">
<ele>640</ele>
<time>2015-05-12T19:08:08Z</time>
</trkpt>
<trkpt lat="37.32924851" lon="-4.37709524">
<ele>640</ele>
<time>2015-05-12T19:08:10Z</time>
</trkpt>
<trkpt lat="37.32924847" lon="-4.37709532">
<ele>640</ele>
<time>2015-05-12T19:08:12Z</time>
</trkpt>
<trkpt lat="37.32924843" lon="-4.37709547">
<ele>640</ele>
<time>2015-05-12T19:08:14Z</time>
</trkpt>
<trkpt lat="37.32924838" lon="-4.37709559">
<ele>640</ele>
<time>2015-05-12T19:08:16Z</time>
</trkpt>
<trkpt lat="37.32924837" lon="-4.37709564">
<ele>640</ele>
<time>2015-05-12T19:08:18Z</time>
</trkpt>
<trkpt lat="37.32924836" lon="-4.37709569">
<ele>640</ele>
<time>2015-05-12T19:08:20Z</time>
</trkpt>
<trkpt lat="37.32924835" lon="-4.3770957">
<ele>640</ele>
<time>2015-05-12T19:08:22Z</time>
</trkpt>
<trkpt lat="37.32924834" lon="-4.37709569">
<ele>640</ele>
<time>2015-05-12T19:08:24Z</time>
</trkpt>
<trkpt lat="37.32924835" lon="-4.37709567">
<ele>640</ele>
<time>2015-05-12T19:08:26Z</time>
</trkpt>
<trkpt lat="37.32924836" lon="-4.37709573">
<ele>640</ele>
<time>2015-05-12T19:08:28Z</time>
</trkpt>
<trkpt lat="37.32924836" lon="-4.37709579">
<ele>640</ele>
<time>2015-05-12T19:08:30Z</time>
</trkpt>
<trkpt lat="37.32924835" lon="-4.37709584">
<ele>640</ele>
<time>2015-05-12T19:08:32Z</time>
</trkpt>
<trkpt lat="37.32924837" lon="-4.37709589">
<ele>640</ele>
<time>2015-05-12T19:08:34Z</time>
</trkpt>
<trkpt lat="37.3292484" lon="-4.37709592">
<ele>640</ele>
<time>2015-05-12T19:08:36Z</time>
</trkpt>
<trkpt lat="37.32924841" lon="-4.37709592">
<ele>640</ele>
<time>2015-05-12T19:08:38Z</time>
</trkpt>
<trkpt lat="37.32924843" lon="-4.37709589">
<ele>640</ele>
<time>2015-05-12T19:08:40Z</time>
</trkpt>
<trkpt lat="37.32924847" lon="-4.37709588">
<ele>640</ele>
<time>2015-05-12T19:08:42Z</time>
</trkpt>
<trkpt lat="37.32924851" lon="-4.37709588">
<ele>640</ele>
<time>2015-05-12T19:08:44Z</time>
</trkpt>
<trkpt lat="37.32924853" lon="-4.37709587">
<ele>640</ele>
<time>2015-05-12T19:08:46Z</time>
</trkpt>
<trkpt lat="37.32924856" lon="-4.37709586">
<ele>640</ele>
<time>2015-05-12T19:08:48Z</time>
</trkpt>
<trkpt lat="" lon="">
<ele></ele>
<time>2015-05-12TZ</time>
</trkpt>
</trkseg>
</trk>
<wpt lat="37.343829" lon="-4.354588">
	<name>L92080</name>
	<desc></desc>
	<cmt>A- RUTE</cmt>
	<photoid>0</photoid>
	<type>0</type>
</wpt>
<wpt lat="
37.335683" lon="-4.348467">
	<name>L04120</name>
	<desc></desc>
	<cmt>DESPEGUE RUTE</cmt>
	<photoid>0</photoid>
	<type>0</type>
</wpt>
<wpt lat="
" lon="">
	<name></name>
	<desc></desc>
	<cmt></cmt>
	<photoid></photoid>
	<type></type>
</wpt>
</gpx>
